[[{"header":{"parameterUnit":"m.s-1","parameterCategory":1,"la1":30.6,"la2":28.766,"lo1":-90.7593,"lo2":-88.6598,"dy":0.0162,"dx":0.0183,"nx":116,"ny":114,"refTime":"2023-04-18T06:00:00:Z","depth":0,"parameterNumber":2,"parameterNumberName":"U-component_of_WINDS"},"data":[0.0,0.0,0.0,0.0,0.0,0.0,0.0,0.0,0.0,0.0,0.0,0.0,0.0,0.0,0.0,0.0,0.0,0.0,0.0,0.0,0.0,0.0,0.0,0.0,0.0,0.0,0.0,0.0,0.0,0.0,0.0,0.0,0.0,0.0,0.0,0.0,0.0,0.0,0.0,0.0,0.0,0.0,0.0,0.0,0.0,0.0,0.0,0.0,0.0,0.0,0.0,0.0,0.0,0.0,0.0,0.0,0.0,0.0,0.0,0.0,0.0,0.0,0.0,0.0,0.0,0.0,0.0,0.0,0.0,0.0,0.0,0.0,0.0,0.0,0.0,0.0,0.0,0.0,0.0,0.0,0.0,0.0,0.0,0.0,0.0,0.0,0.0,0.0,0.0,0.0,0.0,0.0,0.0,0.0,0.0,0.0,0.0,0.0,0.0,0.0,0.0,0.0,0.0,0.0,0.0,0.0,0.0,0.0,0.0,0.0,0.0,0.0,0.0,0.0,0.0,0.0,0.0,0.0,0.0,0.0,0.0,0.0,0.0,0.0,0.0,0.0,0.0,0.0,0.0,0.0,0.0,0.0,0.0,0.0,0.0,0.0,0.0,0.0,0.0,0.0,0.0,0.0,0.0,0.0,0.0,0.0,0.0,0.0,0.0,0.0,0.0,0.0,0.0,0.0,0.0,0.0,0.0,0.0,0.0,0.0,0.0,0.0,0.0,0.0,0.0,0.0,0.0,0.0,0.0,0.0,0.0,0.0,0.0,0.0,0.0,0.0,0.0,0.0,0.0,0.0,0.0,0.0,0.0,0.0,0.0,0.0,0.0,0.0,0.0,0.0,0.0,0.0,0.0,0.0,0.0,0.0,0.0,0.0,0.0,0.0,0.0,0.0,0.0,0.0,0.0,0.0,0.0,0.0,0.0,0.0,0.0,0.0,0.0,0.0,0.0,0.0,0.0,0.0,0.0,0.0,0.0,0.0,0.0,0.0,0.0,0.0,0.0,0.0,0.0,0.0,0.0,0.0,0.0,0.0,0.0,0.0,0.0,0.0,0.0,0.0,0.0,0.0,0.0,0.0,0.0,0.0,0.0,0.0,0.0,0.0,0.0,0.0,0.0,0.0,0.0,0.0,0.0,0.0,0.0,0.0,0.0,0.0,0.0,0.0,0.0,0.0,0.0,0.0,0.0,0.0,0.0,0.0,0.0,0.0,0.0,0.0,0.0,0.0,0.0,0.0,0.0,0.0,0.0,0.0,0.0,0.0,0.0,0.0,0.0,0.0,0.0,0.0,0.0,0.0,0.0,0.0,0.0,0.0,0.0,0.0,0.0,0.0,0.0,0.0,0.0,0.0,0.0,0.0,0.0,0.0,0.0,0.0,0.0,0.0,0.0,0.0,0.0,0.0,0.0,0.0,0.0,0.0,0.0,0.0,0.0,0.0,0.0,0.0,0.0,0.0,0.0,0.0,0.0,0.0,0.0,0.0,0.0,0.0,0.0,0.0,0.0,0.0,0.0,0.0,0.0,0.0,0.0,0.0,0.0,0.0,0.0,0.0,0.0,0.0,0.0,0.0,0.0,0.0,0.0,0.0,0.0,0.0,0.0,0.0,0.0,0.0,0.0,0.0,0.0,0.0,0.0,0.0,0.0,0.0,0.0,0.0,0.0,0.0,0.0,0.0,0.0,0.0,0.0,0.0,0.0,0.0,0.0,0.0,0.0,0.0,0.0,0.0,0.0,0.0,0.0,0.0,0.0,0.0,0.0,0.0,0.0,0.0,0.0,0.0,0.0,0.0,0.0,0.0,0.0,0.0,0.0,0.0,0.0,0.0,0.0,0.0,0.0,0.0,0.0,0.0,0.0,0.0,0.0,0.0,0.0,0.0,0.0,0.0,0.0,0.0,0.0,0.0,0.0,0.0,0.0,0.0,0.0,0.0,0.0,0.0,0.0,0.0,0.0,0.0,0.0,0.0,0.0,0.0,0.0,0.0,0.0,0.0,0.0,0.0,0.0,0.0,0.0,0.0,0.0,0.0,0.0,0.0,0.0,0.0,0.0,0.0,0.0,0.0,0.0,0.0,0.0,0.0,0.0,0.0,0.0,0.0,0.0,0.0,0.0,0.0,0.0,0.0,0.0,0.0,0.0,0.0,0.0,0.0,0.0,0.0,0.0,0.0,0.0,0.0,0.0,0.0,0.0,0.0,0.0,0.0,0.0,0.0,0.0,0.0,0.0,0.0,0.0,0.0,0.0,0.0,0.0,0.0,0.0,0.0,0.0,0.0,0.0,0.0,0.0,0.0,0.0,0.0,0.0,0.0,0.0,0.0,0.0,0.0,0.0,0.0,0.0,0.0,0.0,0.0,0.0,0.0,0.0,0.0,0.0,0.0,0.0,0.0,0.0,0.0,0.0,0.0,0.0,0.0,0.0,0.0,0.0,0.0,0.0,0.0,0.0,0.0,0.0,0.0,0.0,0.0,0.0,0.0,0.0,0.0,0.0,0.0,0.0,0.0,0.0,0.0,0.0,0.0,0.0,0.0,0.0,0.0,0.0,0.0,0.0,0.0,0.0,0.0,0.0,0.0,0.0,0.0,0.0,0.0,0.0,0.0,0.0,0.0,0.0,0.0,0.0,0.0,0.0,0.0,0.0,0.0,0.0,0.0,0.0,0.0,0.0,0.0,0.0,0.0,0.0,0.0,0.0,0.0,0.0,0.0,0.0,0.0,0.0,0.0,0.0,0.0,0.0,0.0,0.0,0.0,0.0,0.0,0.0,0.0,0.0,0.0,0.0,0.0,0.0,0.0,0.0,0.0,0.0,0.0,0.0,0.0,0.0,0.0,0.0,0.0,0.0,0.0,0.0,0.0,0.0,0.0,0.0,0.0,0.0,0.0,0.0,0.0,0.0,0.0,0.0,0.0,0.0,0.0,0.0,0.0,0.0,0.0,0.0,0.0,0.0,0.0,0.0,0.0,0.0,0.0,0.0,0.0,0.0,0.0,0.0,0.0,0.0,0.0,0.0,0.0,0.0,0.0,0.0,0.0,0.0,0.0,0.0,0.0,0.0,0.0,0.0,0.0,0.0,0.0,0.0,0.0,0.0,0.0,0.0,0.0,0.0,0.0,0.0,0.0,0.0,0.0,0.0,0.0,0.0,0.0,0.0,0.0,0.0,0.0,0.0,0.0,0.0,0.0,0.0,0.0,0.0,0.0,0.0,0.0,0.0,0.0,0.0,0.0,0.0,0.0,0.0,0.0,0.0,0.0,0.0,0.0,0.0,0.0,0.0,0.0,0.0,0.0,0.0,0.0,0.0,0.0,0.0,0.0,0.0,0.0,0.0,0.0,0.0,0.0,0.0,0.0,0.0,0.0,0.0,0.0,0.0,0.0,0.0,0.0,0.0,0.0,0.0,0.0,0.0,0.0,0.0,0.0,0.0,0.0,0.0,0.0,0.0,0.0,0.0,0.0,0.0,0.0,0.0,0.0,0.0,0.0,0.0,0.0,0.0,0.0,0.0,0.0,0.0,0.0,0.0,0.0,0.0,0.0,0.0,0.0,0.0,0.0,0.0,0.0,0.0,0.0,0.0,0.0,0.0,0.0,0.0,0.0,0.0,0.0,0.0,0.0,0.0,0.0,0.0,0.0,0.0,0.0,0.0,0.0,0.0,0.0,0.0,0.0,0.0,0.0,0.0,0.0,0.0,0.0,0.0,0.0,0.0,0.0,0.0,0.0,0.0,0.0,0.0,0.0,0.0,0.0,0.0,0.0,0.0,0.0,0.0,0.0,0.0,0.0,0.0,0.0,0.0,0.0,0.0,0.0,0.0,0.0,0.0,0.0,0.0,0.0,0.0,0.0,0.0,0.0,0.0,0.0,0.0,0.0,0.0,0.0,0.0,0.0,0.0,0.0,0.0,0.0,0.0,0.0,0.0,0.0,0.0,0.0,0.0,0.0,0.0,0.0,0.0,0.0,0.0,0.0,0.0,0.0,0.0,0.0,0.0,0.0,0.0,0.0,0.0,0.0,0.0,0.0,0.0,0.0,0.0,0.0,0.0,0.0,0.0,0.0,0.0,0.0,0.0,0.0,0.0,0.0,0.0,0.0,0.0,0.0,0.0,0.0,0.0,0.0,0.0,0.0,0.0,0.0,0.0,0.0,0.0,0.0,0.0,0.0,0.0,0.0,0.0,0.0,0.0,0.0,0.0,0.0,0.0,0.0,0.0,0.0,0.0,0.0,0.0,0.0,0.0,0.0,0.0,0.0,0.0,0.0,0.0,0.0,0.0,0.0,0.0,0.0,0.0,0.0,0.0,0.0,0.0,0.0,0.0,0.0,0.0,0.0,0.0,0.0,0.0,0.0,0.0,0.0,0.0,0.0,0.0,0.0,0.0,0.0,0.0,0.0,0.0,0.0,0.0,0.0,0.0,0.0,0.0,0.0,0.0,0.0,0.0,0.0,0.0,0.0,0.0,0.0,0.0,0.0,0.0,0.0,0.0,0.0,0.0,0.0,0.0,0.0,0.0,0.0,0.0,0.0,0.0,0.0,0.0,0.0,0.0,0.0,0.0,0.0,0.0,0.0,0.0,0.0,0.0,0.0,0.0,0.0,0.0,0.0,0.0,0.0,0.0,0.0,0.0,0.0,0.0,0.0,0.0,0.0,0.0,0.0,0.0,0.0,0.0,0.0,0.0,0.0,0.0,0.0,0.0,0.0,0.0,0.0,0.0,0.0,0.0,0.0,0.0,0.0,0.0,0.0,0.0,0.0,0.0,0.0,0.0,0.0,0.0,0.0,0.0,0.0,0.0,0.0,0.0,0.0,0.0,0.0,0.0,0.0,0.0,0.0,0.0,0.0,0.0,0.0,0.0,0.0,0.0,0.0,0.0,0.0,0.0,0.0,0.0,0.0,0.0,0.0,0.0,0.0,0.0,0.0,0.0,0.0,0.0,0.0,0.0,0.0,0.0,0.0,0.0,0.0,0.0,0.0,0.0,0.0,0.0,0.0,0.0,0.0,0.0,0.0,0.0,0.0,0.0,0.0,0.0,0.0,0.0,0.0,0.0,0.0,0.0,0.0,0.0,0.0,0.0,0.0,0.0,0.0,0.0,0.0,0.0,0.0,0.0,0.0,0.0,0.0,0.0,0.0,0.0,0.0,0.0,0.0,0.0,0.0,0.0,0.0,0.0,0.0,0.0,0.0,0.0,0.0,0.0,0.0,0.0,0.0,0.0,0.0,0.0,0.0,0.0,0.0,0.0,0.0,0.0,0.0,0.0,0.0,0.0,0.0,0.0,0.0,0.0,0.0,0.0,0.0,0.0,0.0,0.0,0.0,0.0,0.0,0.0,0.0,0.0,0.0,0.0,0.0,0.0,0.0,0.0,0.0,0.0,0.0,0.0,0.0,0.0,0.0,0.0,0.0,0.0,0.0,0.0,0.0,0.0,0.0,0.0,0.0,0.0,0.0,0.0,0.0,0.0,0.0,0.0,0.0,0.0,0.0,0.0,0.0,0.0,0.0,0.0,0.0,0.0,0.0,0.0,0.0,0.0,0.0,0.0,0.0,0.0,0.0,0.0,0.0,0.0,0.0,0.0,0.0,0.0,0.0,0.0,0.0,0.0,0.0,0.0,0.0,0.0,0.0,0.0,0.0,0.0,0.0,0.0,0.0,0.0,0.0,0.0,0.0,0.0,0.0,0.0,0.0,0.0,0.0,0.0,0.0,0.0,0.0,0.0,0.0,0.0,0.0,0.0,0.0,0.0,0.0,0.0,0.0,0.0,0.0,0.0,0.0,0.0,0.0,0.0,0.0,0.0,0.0,0.0,0.0,0.0,0.0,0.0,0.0,0.0,0.0,0.0,0.0,0.0,0.0,0.0,0.0,0.0,0.0,0.0,0.0,0.0,0.0,0.0,0.0,0.0,0.0,0.0,0.0,0.0,0.0,0.0,0.0,0.0,0.0,0.0,0.0,0.0,0.0,0.0,0.0,0.0,0.0,0.0,0.0,0.0,0.0,0.0,0.0,0.0,0.0,0.0,0.0,0.0,0.0,0.0,0.0,0.0,0.0,0.0,0.0,0.0,0.0,0.0,0.0,0.0,0.0,-5.8542,0.0,0.0,0.0,0.0,0.0,0.0,0.0,0.0,0.0,0.0,0.0,0.0,0.0,0.0,0.0,0.0,0.0,0.0,0.0,0.0,0.0,0.0,0.0,0.0,0.0,0.0,0.0,0.0,0.0,0.0,0.0,0.0,0.0,0.0,0.0,0.0,0.0,0.0,-5.7997,-5.84,-5.9006,-5.9777,-5.9355,-5.8951,-5.8565,0.0,0.0,0.0,0.0,0.0,0.0,0.0,0.0,0.0,0.0,0.0,0.0,0.0,0.0,0.0,0.0,0.0,0.0,0.0,0.0,0.0,0.0,0.0,0.0,0.0,0.0,0.0,0.0,0.0,0.0,0.0,0.0,0.0,0.0,0.0,0.0,0.0,0.0,0.0,0.0,0.0,0.0,0.0,0.0,0.0,0.0,0.0,0.0,0.0,0.0,0.0,0.0,0.0,0.0,0.0,0.0,0.0,0.0,0.0,0.0,0.0,0.0,0.0,0.0,0.0,0.0,0.0,0.0,0.0,0.0,0.0,-5.8039,0.0,0.0,0.0,0.0,0.0,0.0,0.0,0.0,0.0,0.0,0.0,0.0,0.0,0.0,0.0,0.0,0.0,0.0,0.0,0.0,0.0,0.0,0.0,-5.3459,-5.3631,-5.4462,-5.5184,-5.5941,0.0,0.0,0.0,0.0,0.0,0.0,-5.7997,-5.7997,-5.807,-5.8217,-5.9171,-5.996,-6.0621,-6.0621,-6.0254,-5.957,-5.8786,0.0,0.0,0.0,0.0,0.0,0.0,0.0,0.0,0.0,0.0,0.0,0.0,0.0,0.0,0.0,0.0,0.0,0.0,0.0,0.0,0.0,0.0,0.0,0.0,0.0,0.0,0.0,0.0,0.0,0.0,0.0,0.0,0.0,0.0,0.0,0.0,0.0,0.0,0.0,0.0,0.0,0.0,0.0,0.0,0.0,0.0,0.0,0.0,0.0,0.0,0.0,0.0,0.0,0.0,0.0,0.0,0.0,0.0,0.0,0.0,0.0,0.0,0.0,-5.9607,-5.9607,-5.9607,-5.958,-5.958,-5.9534,-5.8902,-5.8905,-5.9216,0.0,0.0,0.0,0.0,0.0,0.0,0.0,0.0,0.0,0.0,0.0,0.0,0.0,0.0,0.0,0.0,0.0,0.0,0.0,0.0,0.0,0.0,-5.3459,-5.3652,-5.4603,-5.5245,-5.5941,-5.6767,0.0,0.0,0.0,0.0,0.0,-5.7997,-5.7997,-5.8345,-5.9038,-6.0548,-6.1337,-6.1429,-6.1429,-6.1392,-6.1245,-6.0438,-5.9703,-5.9038,0.0,0.0,0.0,0.0,0.0,0.0,0.0,0.0,0.0,0.0,0.0,0.0,0.0,0.0,0.0,0.0,0.0,0.0,0.0,0.0,0.0,0.0,0.0,0.0,0.0,0.0,0.0,0.0,0.0,0.0,0.0,0.0,0.0,0.0,0.0,0.0,0.0,0.0,0.0,0.0,0.0,-5.7892,-5.8659,0.0,0.0,0.0,0.0,0.0,0.0,0.0,0.0,0.0,0.0,0.0,0.0,0.0,-5.9048,-5.996,-5.9977,-6.0421,-6.1271,-6.1271,-6.1271,-6.1271,-6.111,-6.1006,-6.0941,-5.9668,0.0,-5.8311,-5.7175,0.0,0.0,0.0,0.0,0.0,0.0,0.0,0.0,0.0,0.0,0.0,0.0,0.0,0.0,0.0,0.0,0.0,0.0,0.0,0.0,0.0,-5.4433,-5.5182,-5.5971,-5.7077,-5.7845,-5.8143,-5.8492,0.0,0.0,0.0,-5.7997,-5.7997,-5.8437,-5.93,-6.0548,-6.1245,-6.1832,-6.2273,-6.2273,-6.2273,-6.2273,-6.1924,-6.1062,-5.9887,-5.9887,0.0,0.0,0.0,0.0,0.0,0.0,0.0,0.0,0.0,0.0,0.0,0.0,0.0,0.0,0.0,0.0,0.0,0.0,0.0,0.0,0.0,0.0,0.0,0.0,0.0,0.0,0.0,0.0,0.0,0.0,0.0,0.0,0.0,0.0,0.0,0.0,0.0,0.0,0.0,-5.797,-5.8731,-5.9416,-5.9102,-5.8698,0.0,0.0,0.0,0.0,0.0,0.0,0.0,0.0,0.0,-5.9334,-5.9351,-5.9802,-6.0657,-6.0675,-6.0883,-6.1317,-6.1317,-6.1317,-6.1317,-6.1241,-6.1182,-6.1135,-6.0092,-5.9269,-5.8526,-5.7397,-5.6769,-5.6429,0.0,0.0,0.0,0.0,-5.4266,-5.4316,0.0,0.0,0.0,0.0,0.0,0.0,0.0,0.0,0.0,0.0,0.0,0.0,-5.411,-5.5479,-5.6693,-5.7402,-5.8655,-5.9348,-5.9255,-5.9208,-5.8859,-5.8033,-5.7997,-5.7997,-5.7997,-5.9006,-6.0199,-6.1594,-6.1814,-6.2218,-6.278,-6.278,-6.278,-6.278,-6.278,-6.2034,-6.0713,-6.0713,-6.0254,-5.9478,0.0,0.0,0.0,0.0,0.0,0.0,0.0,0.0,0.0,0.0,0.0,0.0,0.0,0.0,0.0,0.0,0.0,0.0,0.0,0.0,0.0,0.0,0.0,0.0,0.0,0.0,0.0,0.0,0.0,0.0,0.0,0.0,0.0,0.0,0.0,0.0,0.0,-5.8518,-5.9335,-5.9974,-5.9749,-5.9416,0.0,0.0,0.0,0.0,0.0,0.0,-5.868,-5.8456,-5.8963,-6.0457,-6.0701,-6.1075,-6.1682,-6.1682,-6.1682,-6.1682,-6.1682,-6.1682,-6.1682,-6.1682,-6.1682,-6.1652,-6.1109,-6.0451,-5.9649,-5.7909,-5.6894,-5.6341,-5.58,-5.5385,-5.5035,-5.4829,-5.4771,-5.4825,0.0,0.0,0.0,0.0,0.0,0.0,0.0,0.0,0.0,0.0,0.0,-5.4946,-5.4946,-5.6333,-5.7569,-5.836,-5.9013,-5.9394,-5.9394,-5.9255,-5.8859,-5.8033,-5.7997,-5.7997,-5.7997,-5.9538,-6.075,-6.1594,-6.2383,-6.2768,-6.278,-6.278,-6.278,-6.278,-6.278,-6.2346,-6.1539,-6.1539,-6.108,-6.0272,-5.9496,0.0,0.0,0.0,0.0,0.0,0.0,0.0,0.0,0.0,0.0,0.0,0.0,0.0,0.0,0.0,0.0,0.0,0.0,0.0,0.0,0.0,0.0,0.0,0.0,0.0,0.0,0.0,0.0,0.0,0.0,0.0,0.0,0.0,0.0,0.0,0.0,0.0,0.0,-5.9826,-6.054,0.0,0.0,0.0,0.0,-5.7781,-5.7702,-5.8018,-5.8751,-5.9492,-6.0599,-6.2128,-6.2842,-6.3234,-6.327,-6.327,-6.327,-6.327,-6.327,-6.327,-6.327,-6.327,-6.327,-6.327,-6.3239,-6.2846,-6.1991,-5.8988,-5.7727,-5.755,-5.6171,-5.6003,-5.6487,-5.58,-5.5532,-5.5632,0.0,0.0,0.0,0.0,0.0,0.0,0.0,0.0,-5.2902,-5.3701,-5.45,-5.5224,-5.5782,-5.7709,-5.9282,-6.0029,-6.1168,-6.1605,-6.0977,-6.0344,-5.9612,-5.8822,-5.829,-5.8474,-5.952,-6.0603,-6.1575,-6.2383,-6.2677,-6.278,-6.278,-6.278,-6.278,-6.278,-6.278,-6.2658,-6.2383,-6.2383,-6.1906,-6.1153,-6.086,-6.0078,0.0,0.0,0.0,0.0,0.0,0.0,0.0,0.0,0.0,0.0,0.0,0.0,0.0,0.0,0.0,0.0,0.0,0.0,0.0,0.0,0.0,0.0,0.0,0.0,0.0,0.0,0.0,0.0,0.0,0.0,0.0,0.0,0.0,0.0,0.0,0.0,0.0,-5.9809,-6.0165,0.0,-5.9933,-5.9916,-5.9674,-5.9159,-5.9164,-5.9725,-6.099,-6.0854,-6.1467,-6.2954,-6.3252,-6.3395,-6.3395,-6.3395,-6.3395,-6.3395,-6.3395,-6.3395,-6.3395,-6.3395,-6.3395,-6.3395,-6.3395,-6.3034,-6.2301,-6.1204,-5.9888,-5.847,-5.7442,-5.6906,-5.6684,-5.6414,-5.6316,-5.6349,0.0,0.0,0.0,0.0,0.0,0.0,0.0,0.0,-5.3292,-5.411,-5.4946,-5.5874,-5.6989,-5.9051,-6.0642,-6.1411,-6.2577,-6.2775,-6.1615,-6.0861,-5.9995,-5.8906,-5.8827,-5.9557,-6.1172,-6.1741,-6.242,-6.3246,-6.2952,-6.278,-6.278,-6.278,-6.278,-6.278,-6.278,-6.278,-6.278,-6.278,-6.2493,-6.1979,-6.1704,-6.0756,-5.9432,0.0,0.0,0.0,0.0,0.0,0.0,0.0,0.0,0.0,0.0,0.0,0.0,0.0,0.0,0.0,0.0,0.0,0.0,0.0,0.0,0.0,0.0,0.0,0.0,0.0,0.0,0.0,0.0,0.0,0.0,0.0,0.0,0.0,0.0,0.0,-5.928,-5.9844,-6.0148,-6.0415,-6.0683,-6.0719,-6.0734,-6.0753,-6.0513,-6.0861,-6.1881,-6.148,-6.1778,-6.2984,-6.3527,-6.3797,-6.3797,-6.4055,-6.4198,-6.4198,-6.4198,-6.4198,-6.4198,-6.4198,-6.4198,-6.4198,-6.4198,-6.3783,-6.3142,-6.2854,-6.1531,-5.9695,-5.9157,-5.8504,-5.7823,-5.7573,-5.7298,-5.7028,0.0,0.0,0.0,0.0,0.0,0.0,0.0,-5.3292,-5.4091,-5.489,-5.5782,-5.6952,-5.8568,-6.024,-6.1558,-6.2376,-6.3025,-6.2734,-6.1141,-6.0771,-5.9914,-5.8344,-5.9701,-6.1227,-6.2798,-6.2879,-6.3301,-6.4127,-6.3301,-6.2879,-6.286,-6.286,-6.2817,-6.278,-6.278,-6.278,-6.278,-6.278,-6.278,-6.275,-6.1942,-6.1153,-6.034,0.0,0.0,0.0,0.0,0.0,0.0,0.0,0.0,0.0,0.0,0.0,0.0,0.0,0.0,0.0,0.0,0.0,0.0,0.0,0.0,0.0,0.0,0.0,0.0,0.0,0.0,0.0,0.0,0.0,0.0,0.0,0.0,0.0,-5.8938,-5.952,-5.9933,-5.9969,-6.0665,-6.145,-6.2283,-6.2355,-6.2333,-6.2385,-6.1675,-6.122,-6.1219,-6.1245,-6.1616,-6.2358,-6.3817,-6.4601,-6.4635,-6.5394,-6.5772,-6.5804,-6.5804,-6.5804,-6.5804,-6.5804,-6.5804,-6.5804,-6.5804,-6.5344,-6.4601,-6.381,-6.2627,-6.1321,-6.126,-6.0769,-5.9979,-5.9272,-5.8492,-5.769,0.0,0.0,0.0,0.0,0.0,0.0,0.0,-5.3292,-5.4091,-5.489,-5.6283,-5.7788,-5.9404,-6.1076,-6.2394,-6.3212,-6.334,-6.2956,-6.1937,-6.1062,-6.0364,-5.9824,-6.1282,-6.264,-6.3723,-6.431,-6.4732,-6.4971,-6.4732,-6.431,-6.3741,-6.3741,-6.3411,-6.278,-6.278,-6.278,-6.278,-6.278,-6.278,-6.2762,-6.2567,-6.1998,-6.1245,0.0,0.0,0.0,0.0,0.0,0.0,0.0,0.0,0.0,0.0,0.0,0.0,0.0,0.0,0.0,0.0,0.0,0.0,0.0,0.0,0.0,0.0,0.0,0.0,0.0,0.0,0.0,0.0,0.0,0.0,0.0,0.0,-5.9713,-5.9645,-5.9802,-6.0355,-6.1628,-6.1897,-6.2331,-6.3238,-6.3201,-6.2889,-6.2352,-6.2121,-6.2,-6.2004,-6.2494,-6.3153,-6.3956,-6.4375,-6.4857,-6.546,-6.5127,-6.5227,-6.5804,-6.5804,-6.5804,-6.5804,-6.5804,-6.5804,-6.5804,-6.5804,-6.569,-6.546,-6.5227,-6.4886,-6.4266,-6.1435,-5.9889,-5.9208,-5.8991,-5.8435,-5.7757,0.0,0.0,0.0,0.0,0.0,0.0,0.0,-5.3497,-5.4351,-5.5856,-5.6915,-5.8382,-6.0704,-6.1819,-6.2729,-6.3546,-6.3218,-6.2635,-6.1819,-6.0784,-6.0554,-6.1374,-6.2658,-6.3906,-6.5081,-6.5558,-6.5815,-6.5815,-6.5485,-6.5063,-6.4604,-6.4604,-6.4328,-6.3833,-6.3503,-6.3337,-6.3319,-6.297,-6.278,-6.278,-6.278,-6.2328,-6.1594,-6.1594,-6.1098,-6.0377,-6.0256,-6.0139,-5.9967,-5.9317,0.0,0.0,0.0,0.0,0.0,0.0,0.0,0.0,0.0,0.0,0.0,0.0,0.0,0.0,0.0,0.0,0.0,0.0,0.0,0.0,0.0,0.0,0.0,0.0,-5.9869,-6.0634,-6.1024,-6.1084,-6.1424,-6.2385,-6.2737,-6.3196,-6.3982,-6.3974,-6.3736,-6.331,-6.2953,-6.2741,-6.2774,-6.2867,-6.3317,-6.4077,-6.4113,-6.448,-6.5278,-6.4823,-6.5009,-6.5804,-6.5804,-6.5804,-6.5804,-6.5804,-6.5804,0.0,-6.5804,-6.5607,-6.5311,-6.5311,-6.5094,0.0,0.0,0.0,0.0,0.0,-5.8883,-5.8253,0.0,0.0,0.0,0.0,0.0,0.0,0.0,-5.3813,-5.4704,-5.7175,-5.7583,-5.8846,-6.206,-6.2487,-6.2822,-6.3546,-6.2859,-6.2038,-6.1199,-6.0426,-6.0881,-6.286,-6.3851,-6.5081,-6.6604,-6.6641,-6.6641,-6.6641,-6.5925,-6.5521,-6.5448,-6.5448,-6.5393,-6.5264,-6.4457,-6.409,-6.4035,-6.3172,-6.278,-6.278,-6.278,-6.2383,-6.1741,-6.1741,-6.1282,-6.0652,-6.0555,-6.0487,-6.042,-6.0078,0.0,0.0,0.0,0.0,0.0,0.0,0.0,0.0,0.0,0.0,0.0,0.0,0.0,0.0,0.0,0.0,0.0,0.0,0.0,0.0,0.0,0.0,0.0,0.0,-6.0205,-6.1296,-6.2569,-6.2853,-6.292,-6.2791,-6.3406,-6.4079,-6.4693,-6.4782,-6.4663,-6.4479,-6.3882,-6.3466,-6.3299,0.0,0.0,0.0,0.0,-6.3774,-6.4601,-6.4601,-6.5009,-6.5804,-6.5804,-6.5804,-6.5804,-6.5804,-6.5804,-6.5804,-6.5804,-6.5376,-6.4755,-6.4755,-6.4323,-6.3774,-6.4942,-6.4497,-6.2895,-6.0876,-5.9661,-5.9015,0.0,0.0,0.0,0.0,0.0,0.0,0.0,-5.3813,-5.4704,-5.7175,-5.8085,-5.9478,-6.2116,-6.2989,-6.3435,-6.3602,-6.2859,-6.1971,-6.094,-6.1907,-6.2909,-6.3821,-6.5246,-6.6476,-6.7448,-6.7467,-6.7467,-6.7467,-6.7302,-6.6898,-6.6274,-6.6274,-6.5925,-6.5264,-6.4457,-6.409,-6.4035,-6.3172,-6.278,-6.278,-6.278,-6.2713,-6.2585,-6.2585,-6.2475,-6.2321,-6.2297,-6.2222,-6.2011,-6.12,-6.0872,-6.0614,-5.9867,-5.9054,0.0,0.0,0.0,0.0,0.0,0.0,0.0,0.0,0.0,0.0,0.0,0.0,0.0,0.0,0.0,0.0,0.0,0.0,0.0,-6.0176,-6.1502,-6.2632,-6.2911,-6.3901,-6.4621,-6.4603,-6.4644,-6.4964,-6.5636,-6.5726,-6.5163,-6.3757,-6.4077,-6.3827,-6.2595,-6.2943,0.0,-6.3393,-6.3393,-6.3774,-6.4601,-6.4601,-6.5009,-6.5804,0.0,0.0,-6.5804,-6.5804,-6.5804,-6.5804,-6.5804,-6.5722,-6.5575,-6.5575,-6.546,-6.5161,-6.3591,-6.238,-6.1489,-6.1061,-6.0423,-5.9794,0.0,0.0,0.0,0.0,0.0,0.0,0.0,-5.4407,-5.5299,-5.7788,-5.8456,-5.9497,-6.1577,-6.2171,-6.2413,-6.2413,-6.2041,-6.1715,-6.1518,-6.2623,-6.3928,-6.5338,-6.6158,-6.6959,-6.7696,-6.7687,-6.7687,-6.7687,-6.7687,-6.7485,-6.71,-6.71,-6.688,-6.6476,-6.565,-6.5301,-6.5209,-6.398,-6.3447,-6.3411,-6.2989,-6.278,-6.278,-6.278,-6.278,-6.278,-6.278,-6.2755,-6.2625,-6.1992,-6.1761,-6.161,-6.099,-6.0267,-5.9524,0.0,0.0,0.0,0.0,0.0,0.0,0.0,0.0,0.0,0.0,0.0,0.0,0.0,0.0,-5.9483,0.0,0.0,-6.082,-6.1135,-6.2255,-6.3378,-6.4191,-6.4823,-6.519,-6.5202,-6.5351,-6.5591,-6.5967,-6.5958,-6.5192,-6.3539,-6.4148,-6.4095,-6.2905,-6.3188,-6.3774,-6.4601,-6.381,-6.3989,-6.5194,-6.4789,-6.5009,-6.5804,-6.5804,-6.5804,-6.5804,-6.5804,-6.5804,-6.5804,-6.5804,-6.5804,-6.5804,-6.5804,-6.5575,-6.5076,-6.3916,-6.296,-6.2223,-6.1837,-6.1191,-6.0556,0.0,0.0,0.0,0.0,0.0,0.0,0.0,-5.5261,-5.6097,-5.8401,-5.8716,-5.9348,-6.102,-6.1206,-6.1131,-6.0964,-6.1391,-6.183,-6.2178,-6.34,-6.4892,-6.6636,-6.685,-6.7185,-6.7696,-6.7687,-6.7687,-6.7687,-6.7687,-6.7687,-6.7687,-6.7687,-6.7687,-6.765,-6.6861,-6.6494,-6.6402,-6.4952,-6.4237,-6.4035,-6.3337,-6.297,-6.278,-6.278,-6.278,-6.278,-6.278,-6.2688,-6.2553,-6.2464,-6.2305,-6.2162,-6.2078,-6.1462,-6.0683,-6.0031,-5.9724,0.0,0.0,0.0,0.0,0.0,0.0,0.0,0.0,-5.9832,-5.9887,-6.0031,-5.9961,-5.9952,-6.0059,-6.063,-6.1344,-6.2105,-6.301,-6.4078,-6.541,-6.5524,-6.5526,-6.5585,-6.5904,-6.6066,-6.599,-6.58,-6.511,-6.3738,-6.4218,-6.4341,-6.3666,-6.3612,-6.4218,-6.5542,-6.4288,-6.4253,-6.5542,-6.5076,-6.5161,-6.5804,-6.5804,-6.5804,-6.5804,-6.5804,-6.5804,-6.5804,-6.5804,-6.5804,-6.5804,-6.5804,-6.5427,-6.4823,-6.4823,-6.4323,-6.352,-6.2634,-6.1877,-6.1334,0.0,0.0,0.0,0.0,0.0,0.0,0.0,0.0,-5.6766,-5.8494,-5.8716,-5.9348,-6.102,-6.1206,-6.089,-6.0107,-6.2079,-6.3018,-6.2256,-6.503,-6.6686,-6.671,-6.7366,-6.7755,-6.7714,-6.7687,-6.7687,-6.7687,-6.7687,-6.7687,-6.7687,-6.7687,-6.7687,-6.765,-6.6861,-6.6494,-6.6439,-6.5558,-6.4751,-6.409,-6.398,-6.3484,-6.278,-6.278,-6.278,-6.278,-6.278,-6.2346,-6.1808,-6.2391,-6.2026,-6.1441,-6.1994,-6.1552,-6.0792,-6.0675,-6.0176,-5.9434,-5.8619,-5.8474,-5.8528,-5.8528,-5.8999,-5.9687,0.0,-6.0683,-6.0883,-6.1562,-6.1725,-6.1725,-6.1725,-6.2386,-6.2947,-6.3037,-6.4191,-6.5181,-6.5544,-6.5923,-6.6313,-6.66,-6.6506,-6.6269,-6.585,-6.5424,-6.4956,-6.4514,-6.4566,-6.4566,-6.448,-6.4445,-6.4566,-6.4738,-6.4566,-6.4566,-6.4738,-6.5344,-6.5722,-6.5804,-6.5804,-6.5804,-6.5804,-6.5804,-6.5804,-6.5804,-6.5804,-6.5804,-6.5804,-6.5804,-6.5772,-6.5657,-6.5657,-6.5161,-6.4306,-6.2863,-6.224,-6.2043,0.0,0.0,0.0,0.0,0.0,0.0,0.0,0.0,0.0,-5.8549,-5.8716,-5.8977,-5.9682,-5.9757,-5.9608,-5.9237,-6.1484,-6.2929,-6.3014,-6.5644,-6.7352,-6.7615,-6.7897,-6.7959,-6.782,-6.7741,-6.7687,-6.7687,-6.7687,-6.7687,-6.7687,-6.7687,-6.7687,-6.7687,-6.7338,-6.7192,-6.7136,-6.6347,-6.5797,-6.5411,-6.4475,-6.387,-6.3503,-6.3007,-6.278,-6.275,-6.2273,-6.1887,0.0,-6.183,-6.1587,-6.1313,-6.2002,-6.1552,-6.081,-6.081,-6.0231,-5.9633,-5.976,-5.9452,-5.9325,-6.0267,-6.0412,-6.052,-6.129,-6.1489,-6.158,-6.1924,-6.1996,-6.2123,-6.2603,-6.2965,-6.3508,0.0,-6.5081,-6.5667,-6.6225,-6.6469,-6.6608,-6.662,-6.665,-6.6518,-6.6133,-6.575,-6.526,-6.4635,-6.5043,-6.5076,-6.4635,-6.4148,-6.4323,-6.5278,-6.4376,-6.4341,-6.5278,-6.5607,-6.5804,-6.5804,-6.5804,-6.5804,-6.5804,-6.5804,-6.5804,-6.5804,-6.5804,-6.5804,-6.5804,-6.5804,-6.5804,-6.5804,-6.5804,-6.5575,-6.5161,-6.4059,-6.3073,-6.224,0.0,0.0,0.0,0.0,0.0,0.0,0.0,0.0,0.0,0.0,-5.8716,-5.8716,-5.8716,-5.8716,-5.8716,-5.8716,-6.0778,-6.2506,-6.3546,-6.5719,-6.7356,-6.8222,-6.8139,-6.8011,-6.7855,-6.7741,-6.7687,-6.7687,-6.7687,-6.7687,-6.7687,-6.7687,-6.7687,-6.7687,-6.7687,-6.7687,-6.765,-6.7063,-6.6696,-6.6402,-6.5228,-6.4494,-6.4016,-6.3392,-6.2879,-6.2401,-6.1814,-6.1447,-6.1239,-6.1116,-6.082,-6.0657,-6.1329,-6.1044,-6.0484,-6.0484,-5.9905,-5.9452,-6.0267,-6.005,-5.9941,-6.1308,-6.1381,-6.1272,-6.1851,-6.1996,-6.1996,-6.1996,-6.1996,-6.2259,-6.3037,-6.3363,-6.3979,-6.5374,-6.579,-6.6134,-6.6732,-6.6804,-6.6745,-6.659,-6.6668,-6.6638,-6.6379,-6.5958,-6.5507,-6.5025,-6.5344,-6.5376,-6.4925,-6.4428,-6.4652,-6.5754,-6.4686,-6.4652,-6.5804,-6.5804,-6.5804,-6.5804,-6.5804,-6.5804,-6.5804,-6.5804,-6.5804,-6.5804,-6.5804,-6.5804,-6.5804,-6.5804,-6.5804,-6.5804,-6.5804,-6.5804,-6.5722,-6.5161,-6.4095,-6.2884,0.0,0.0,0.0,0.0,0.0,0.0,0.0,0.0,0.0,0.0,0.0,0.0,0.0,-5.8716,-5.8716,-5.8716,-6.0258,-6.1911,-6.3509,-6.5199,-6.6733,-6.804,-6.8114,-6.7985,-6.7714,-6.7714,-6.7687,-6.7687,-6.7687,-6.7687,-6.7687,-6.7687,-6.7687,-6.7687,-6.7687,-6.7687,-6.7687,-6.765,-6.721,-6.6494,-6.6439,-6.5485,-6.409,-6.4053,-6.3044,-6.163,-6.1594,-6.1098,-6.0413,-6.0292,-5.9615,-5.8999,-5.9656,-5.9764,-5.9651,-5.9651,-5.9072,-5.8619,-5.9416,-5.9633,-5.9814,-6.0647,-6.1381,-6.196,-6.1978,-6.1996,-6.1996,-6.1996,-6.1996,-6.2259,-6.3037,-6.3834,-6.4631,-6.5464,-6.6243,-6.6768,-6.6804,-6.6804,-6.6804,-6.6804,-6.662,-6.653,0.0,-6.5824,-6.5551,-6.5922,-6.5308,-6.5176,-6.5722,-6.5846,-6.5877,-6.5804,-6.5895,-6.5877,-6.5804,-6.5804,-6.5804,-6.5804,-6.5804,-6.5804,-6.5804,-6.5804,-6.5804,-6.5804,-6.5804,-6.5804,-6.5804,-6.5804,-6.5804,-6.5804,-6.5804,-6.5804,-6.5804,-6.5772,-6.5245,-6.4306,0.0,0.0,0.0,0.0,0.0,0.0,0.0,0.0,0.0,0.0,0.0,0.0,0.0,0.0,0.0,0.0,-6.024,-6.1428,-6.1986,-6.4586,-6.6304,-6.6752,-6.7635,-6.8063,-6.7959,-6.7794,-6.7687,-6.7687,-6.7687,-6.7687,-6.7687,-6.7687,-6.7687,-6.7687,-6.7687,-6.7687,-6.7687,-6.7687,-6.7522,-6.7247,-6.6714,-6.554,-6.4035,-6.3466,-6.2218,-6.0731,0.0,-5.9832,-5.9588,-5.9444,-5.9122,-5.8926,-5.9583,-5.9346,-5.88,-5.88,-5.8999,-5.9379,-6.0194,-6.0412,-6.0593,-6.1381,-6.1797,-6.1996,-6.1996,-6.1996,-6.1996,-6.1996,-6.1996,-6.2259,-6.3037,-6.34,-6.4033,-6.5374,-6.5826,-6.6188,-6.6732,-6.6804,-6.6804,-6.6804,-6.6727,0.0,0.0,0.0,0.0,-6.6177,-6.5972,-6.5909,-6.6133,-6.5586,-6.5522,-6.6101,-6.5439,-6.5341,-6.5927,-6.585,-6.5804,-6.5804,-6.5804,-6.5804,-6.5804,-6.5804,-6.5804,-6.5804,-6.5804,-6.5804,-6.5804,-6.5804,-6.5804,-6.5804,-6.5804,-6.5804,-6.5804,-6.5804,-6.5607,-6.5245,0.0,0.0,0.0,0.0,0.0,0.0,0.0,0.0,0.0,0.0,0.0,0.0,0.0,0.0,0.0,0.0,0.0,-6.0574,-6.1168,-6.3193,-6.4582,-6.5111,-6.5945,-6.6377,-6.6277,-6.6099,-6.5996,-6.5944,-6.6549,-6.6843,-6.6843,-6.7412,-6.7687,-6.7687,-6.7687,-6.7687,-6.7687,-6.7687,-6.7357,-6.6788,-6.6274,-6.4916,-6.3135,-6.2585,-6.1374,0.0,-5.9386,-5.9001,-5.8762,-5.8602,-5.8482,-5.8488,-5.9165,-5.8903,-5.8456,-5.8746,-5.8999,-5.9416,-6.052,-6.081,-6.1009,-6.1797,-6.1996,-6.1996,-6.1996,-6.1996,-6.1906,-6.1616,-6.1797,-6.2168,-6.2675,-6.3001,-6.3726,-6.5337,-6.5591,-6.5881,-6.6696,-6.6804,-6.6804,-6.6804,-6.6804,-6.6804,0.0,0.0,0.0,-6.6379,-6.6379,-6.6348,-6.6318,-6.5714,-6.5683,-6.6287,-6.5504,-6.5406,-6.6003,-6.5881,-6.5804,-6.5804,-6.5804,-6.5804,-6.5804,-6.5804,-6.5804,-6.5804,-6.5804,-6.5804,-6.5804,-6.5804,-6.5804,-6.5804,-6.5804,-6.5804,-6.5804,-6.5804,-6.5804,-6.569,0.0,0.0,0.0,0.0,0.0,0.0,0.0,0.0,0.0,0.0,0.0,0.0,0.0,0.0,0.0,0.0,0.0,0.0,-6.0983,-6.115,-6.1808,-6.3234,-6.3359,-6.3279,-6.3039,-6.3015,-6.2923,-6.2805,-6.4402,-6.5173,-6.5228,-6.6733,-6.743,-6.743,-6.743,-6.743,-6.743,-6.743,-6.6568,-6.5173,-6.5173,-6.3704,-6.1539,-6.1539,-6.0548,-5.9129,-5.9129,-5.8676,-5.8028,-5.7857,-5.7715,-5.7777,-5.843,-5.8558,-5.8619,-5.9434,-5.9126,-5.8872,-6.0448,-6.0856,-6.1045,-6.1797,-6.1996,-6.1996,-6.1996,-6.196,-6.1706,-6.0946,-6.1426,-6.1924,-6.1924,0.0,-6.3708,-6.5283,-6.5573,-6.5881,-6.6696,-6.6804,-6.6804,0.0,-6.6804,0.0,0.0,0.0,0.0,-6.653,0.0,-6.647,-6.6318,-6.6318,-6.6318,-6.6318,-6.6115,-6.6003,-6.6003,-6.5881,-6.5804,-6.5804,-6.5804,-6.5804,-6.5804,-6.5804,-6.5804,-6.5804,-6.5804,-6.5804,-6.5804,-6.5804,-6.5804,-6.5804,-6.5804,-6.5804,-6.5804,-6.5804,-6.5804,-6.569,0.0,0.0,0.0,0.0,0.0,0.0,0.0,0.0,0.0,0.0,0.0,0.0,0.0,0.0,0.0,0.0,0.0,0.0,-5.9311,-6.0518,-6.137,-6.1734,-6.2812,-6.3373,-6.3302,-6.3093,-6.2972,-6.2947,-6.3271,-6.3422,-6.3466,-6.387,-6.4053,-6.4053,-6.4053,-6.4053,-6.4053,-6.4053,-6.3815,-6.3422,-6.3422,-6.2346,-6.0713,-6.0713,-5.9703,-5.8309,-5.8309,-5.8565,-5.8781,-5.8059,-5.8051,-5.8492,-5.9249,-5.9419,-5.9452,-6.0267,-6.0357,-6.043,-6.1417,-6.167,-6.1725,-6.1942,-6.1996,-6.1996,-6.1996,-6.1525,-6.1064,-6.0819,-6.0946,-6.1091,-6.1091,-6.2241,0.0,-6.4541,-6.5211,0.0,-6.6696,-6.6804,0.0,-6.6804,-6.6804,-6.6804,-6.6804,-6.6804,0.0,0.0,-6.6727,-6.6697,-6.6668,-6.653,-6.647,-6.647,-6.6159,-6.6003,-6.6003,-6.5881,-6.5804,-6.5804,-6.5804,-6.5804,-6.5804,-6.5804,-6.5804,-6.5804,-6.5804,-6.5804,-6.5804,-6.5804,-6.5804,-6.5804,-6.5804,-6.5804,-6.5804,-6.5804,-6.5804,-6.5772,0.0,0.0,0.0,0.0,0.0,0.0,0.0,0.0,0.0,0.0,0.0,0.0,0.0,0.0,0.0,0.0,0.0,0.0,0.0,-5.9589,-6.011,-6.011,-6.0896,-6.1315,-6.1248,-6.1094,-6.0978,-6.088,-6.1526,-6.1808,-6.1777,-6.245,-6.278,-6.278,-6.278,-6.278,-6.278,-6.278,-6.2377,0.0,0.0,-6.0786,-5.9355,-5.9355,-5.8786,-5.7997,-5.7997,-5.8529,-5.9166,-5.8985,-5.9353,-5.9885,-6.022,-6.028,-6.0364,-6.11,-6.1073,-6.0991,-6.1761,-6.1996,-6.1996,-6.1996,-6.1996,-6.1906,-6.1543,-6.1109,-6.0611,-5.9905,-6.0321,-6.081,-6.081,-6.2114,-6.3563,0.0,0.0,0.0,-6.6696,-6.6804,-6.6804,-6.6804,-6.6804,-6.6804,-6.6804,-6.6804,-6.6804,0.0,-6.6804,-6.6804,-6.6804,-6.659,-6.6482,-6.6482,-6.6159,-6.5972,-6.5895,-6.5818,-6.5804,-6.5804,-6.5804,-6.5804,-6.5804,-6.5804,-6.5804,-6.5804,0.0,-6.5804,-6.5804,-6.5804,-6.5804,-6.5804,-6.5804,-6.5804,-6.5804,-6.5804,-6.5804,-6.5804,0.0,0.0,0.0,0.0,0.0,0.0,0.0,0.0,0.0,0.0,0.0,0.0,0.0,0.0,0.0,0.0,0.0,0.0,0.0,0.0,-5.8716,-5.8716,-5.8716,-5.8635,-5.8532,-5.8511,-5.8422,-5.8219,-5.9615,-6.0207,-6.0107,-6.152,-6.2163,-6.2163,-6.2163,-6.2163,-6.2163,-6.2163,-6.1374,-6.0089,-6.0089,-5.9245,-5.7997,0.0,-5.7997,-5.8015,-5.8125,-5.8694,-5.9478,-6.0291,-6.0927,-6.1382,-6.1217,-6.1176,-6.1268,-6.1833,-6.1516,-6.1091,-6.1797,-6.1996,-6.1996,-6.1996,-6.1996,-6.1779,-6.0964,-6.0738,-6.0212,-5.8709,-5.9524,-6.0557,-6.0774,-6.2023,-6.3599,-6.5319,-6.5591,-6.5881,-6.6696,-6.6804,-6.6804,-6.6804,-6.6804,-6.6804,-6.6804,-6.6804,-6.6804,-6.6804,-6.6804,-6.6804,-6.6804,-6.662,-6.653,-6.6482,-6.619,-6.599,-6.5836,-6.5836,-6.5836,-6.5836,-6.5804,-6.5804,-6.5804,-6.5804,-6.5804,-6.5804,0.0,0.0,-6.5804,-6.5804,-6.5804,-6.5804,-6.5804,-6.5804,-6.5804,-6.5804,-6.5804,-6.5804,0.0,0.0,0.0,0.0,0.0,0.0,0.0,0.0,0.0,0.0,-5.8716,-5.8716,0.0,0.0,0.0,0.0,0.0,0.0,0.0,0.0,0.0,-5.8716,-5.8716,-5.8696,-5.8675,-5.8553,-5.8465,-5.8371,-5.8518,-5.8552,-5.8419,-5.8694,-5.8822,-5.8822,-5.8822,-5.8822,-5.8822,-5.8822,-5.8676,-5.8419,-5.8419,-5.8253,-5.7997,-5.7997,0.0,0.0,-5.8767,-5.952,-6.0309,-6.1117,-6.1385,-6.1474,-6.1995,-6.2065,-6.1995,-6.1996,-6.1887,-6.1815,-6.1942,-6.1996,-6.1996,-6.1996,-6.1996,-6.1779,-6.0964,-6.0303,-5.9542,-5.8601,-5.8619,-5.9216,-6.0557,-6.1589,-6.2965,-6.5229,-6.5591,-6.5881,-6.6696,-6.6804,-6.6804,-6.6804,-6.6804,-6.6804,-6.6804,-6.6804,0.0,0.0,0.0,-6.6804,-6.6804,-6.6775,-6.6638,-6.6348,-6.6287,-6.6146,-6.599,-6.599,-6.599,-6.594,-6.585,-6.5804,-6.5804,-6.5804,-6.5804,-6.5804,0.0,0.0,-6.5804,-6.5804,-6.5804,-6.5804,-6.5804,-6.5804,-6.5804,-6.5804,-6.5804,-6.5804,0.0,0.0,0.0,0.0,0.0,0.0,0.0,-5.8716,-5.8716,-5.8716,-5.8716,-5.8716,-5.8716,-5.8716,-5.8716,0.0,0.0,0.0,0.0,0.0,0.0,0.0,-5.8716,-5.8656,-5.8593,-5.8532,-5.8443,-5.8305,0.0,-5.8129,-5.7997,-5.7997,-5.7997,-5.7997,-5.7997,-5.7997,-5.7997,-5.7997,-5.7997,-5.7997,-5.7997,-5.7997,-5.7997,0.0,0.0,0.0,-5.8437,-5.9098,-5.9832,-6.0236,-6.0591,-6.1068,-6.2168,-6.2397,-6.221,-6.166,-6.1734,-6.1906,-6.1471,-6.167,-6.1996,-6.1996,-6.1996,-6.167,-6.0466,-5.9887,-5.9253,-5.8021,-5.8112,-5.8891,-6.052,-6.148,-6.2657,-6.4649,-6.5319,-6.5736,-6.6116,-6.6551,-6.6804,-6.6804,-6.6804,-6.6804,-6.6804,-6.6804,-6.6804,0.0,0.0,-6.6804,-6.6804,-6.6638,-6.65,-6.6409,-6.6238,-6.6146,-6.6146,-6.6034,-6.6003,-6.6003,-6.585,-6.5804,-6.5804,-6.5804,-6.5804,-6.5804,-6.5804,0.0,-6.5804,-6.5804,-6.5804,-6.5804,-6.5804,-6.5804,-6.5804,-6.5804,-6.5804,-6.5804,0.0,0.0,0.0,0.0,0.0,0.0,0.0,-5.8716,-5.8716,-5.8716,-5.8716,-5.8716,-5.8716,-5.8716,-5.8716,0.0,0.0,0.0,0.0,0.0,0.0,0.0,0.0,0.0,0.0,0.0,0.0,-5.8197,-5.8197,0.0,0.0,0.0,0.0,0.0,-5.7997,-5.7997,-5.7997,-5.7997,-5.7997,0.0,0.0,-5.7997,0.0,0.0,0.0,0.0,0.0,-5.8529,-5.9184,-5.9184,-5.9716,-6.0597,-6.1764,-6.204,-6.1813,-6.1184,-6.1379,-6.1688,-6.119,-6.1507,-6.1996,-6.1996,-6.1996,-6.1562,-5.9977,-5.9615,-5.9144,-5.7532,-5.7695,-5.8691,-6.0484,-6.1163,-6.2132,-6.407,-6.4776,-6.5211,-6.5555,-6.6134,-6.6605,-6.6786,-6.6804,0.0,-6.6804,-6.6804,0.0,0.0,0.0,0.0,-6.6804,-6.6548,-6.6439,-6.65,-6.622,-6.6177,-6.6318,-6.6097,-6.6003,-6.6003,-6.585,-6.5804,-6.5804,-6.5804,-6.5836,-6.585,-6.585,0.0,0.0,-6.585,-6.5836,-6.5804,-6.5804,-6.5804,-6.5804,-6.5804,-6.5804,-6.5804,0.0,0.0,0.0,0.0,0.0,0.0,0.0,-5.8716,-5.8716,-5.8716,-5.8716,-5.8716,-5.8716,-5.8716,-5.8716,0.0,0.0,0.0,0.0,0.0,0.0,0.0,0.0,0.0,0.0,0.0,0.0,-5.8197,-5.8197,0.0,0.0,0.0,0.0,0.0,0.0,-5.7997,-5.7997,-5.7997,0.0,0.0,0.0,0.0,0.0,0.0,0.0,0.0,0.0,-5.8529,-5.9184,-5.9184,-5.9716,-6.0438,-6.056,-6.0524,-6.048,-6.0874,-6.105,-6.1197,-6.1743,-6.1924,-6.1996,-6.1996,-6.1996,-6.1562,-5.9977,-5.9615,-5.9144,-5.7532,-5.7261,-5.8021,-6.0375,-6.0267,-6.0828,-6.3889,-6.3834,-6.3925,-6.5392,-6.5663,-6.5989,-6.6714,0.0,0.0,-6.6804,0.0,0.0,0.0,0.0,0.0,-6.6804,-6.6775,-6.6668,-6.653,-6.6452,-6.6391,-6.6318,-6.6097,-6.6003,-6.6003,-6.585,-6.5804,-6.5804,-6.5804,-6.5881,-6.5972,0.0,0.0,0.0,-6.5972,-6.5895,-6.5804,-6.5804,-6.5804,-6.5804,-6.5804,-6.5804,-6.5804,0.0,0.0,0.0,0.0,0.0,0.0,-5.8716,-5.8716,-5.8716,-5.8716,-5.8716,-5.8716,-5.8716,-5.8716,-5.8716,-5.8716,0.0,0.0,0.0,0.0,0.0,0.0,0.0,0.0,0.0,0.0,-5.8331,-5.8065,-5.8065,0.0,0.0,0.0,0.0,0.0,0.0,0.0,-5.7997,-5.7997,0.0,0.0,0.0,0.0,0.0,0.0,0.0,0.0,0.0,0.0,-5.8492,-5.8492,-5.8694,-5.8951,-5.8951,-5.8927,-5.8998,-5.9509,-6.0311,-6.0933,-6.0638,-6.1254,-6.1996,-6.1996,-6.1996,-6.1562,-5.9977,-5.9615,-5.9144,-5.7532,-5.7188,-5.7641,-5.909,-5.9488,-6.0176,-6.1951,-6.2766,-6.3581,-6.4722,-6.5283,-6.5899,-6.6696,-6.6804,0.0,0.0,0.0,0.0,0.0,0.0,0.0,-6.6804,-6.6697,-6.6638,-6.6668,-6.656,-6.6482,-6.6439,-6.6269,-6.6115,-6.6003,-6.585,-6.5804,-6.5804,-6.5804,-6.5881,-6.6003,0.0,0.0,0.0,-6.5895,-6.585,-6.5804,-6.5804,-6.5804,-6.5804,-6.5804,-6.5804,-6.5804,0.0,0.0,0.0,0.0,0.0,-5.8716,-5.8716,-5.8716,-5.8716,-5.8716,-5.8716,-5.8716,-5.8716,-5.8716,-5.8716,-5.8716,-5.8716,0.0,0.0,0.0,0.0,0.0,0.0,0.0,0.0,0.0,-5.8264,-5.7997,-5.7997,-5.7997,0.0,0.0,0.0,0.0,0.0,0.0,0.0,0.0,0.0,0.0,0.0,0.0,0.0,0.0,0.0,0.0,0.0,0.0,0.0,0.0,0.0,-5.7997,-5.7997,-5.7997,-5.8097,-5.8707,-5.9575,-6.0295,-6.0074,-6.0819,-6.1688,-6.1924,-6.1815,-6.1299,-5.9923,-5.9416,-5.8854,-5.7478,-5.7188,-5.7442,-5.8257,-5.8854,-5.9597,-6.0647,-6.1752,-6.2838,-6.3889,-6.474,-6.5464,-6.6025,0.0,-6.6442,0.0,0.0,0.0,0.0,0.0,0.0,0.0,-6.6668,-6.665,-6.6804,-6.6578,-6.6439,-6.6439,-6.6256,-6.6101,-6.5958,-6.585,-6.5804,-6.5804,-6.5804,-6.5881,-6.6003,0.0,0.0,0.0,-6.5913,-6.5818,-6.5804,-6.5804,-6.5804,-6.5804,-6.5804,-6.5804,-6.5804,0.0,0.0,0.0,0.0,0.0,0.0,-5.8716,-5.8716,-5.8716,-5.8716,-5.8716,-5.8716,-5.8716,-5.8716,-5.8716,-5.8716,-5.8716,0.0,0.0,0.0,0.0,0.0,0.0,0.0,0.0,0.0,-5.8264,-5.7997,-5.7997,-5.7997,-5.7997,-5.7997,-5.7997,-5.7997,0.0,0.0,0.0,0.0,0.0,0.0,0.0,0.0,0.0,0.0,0.0,0.0,0.0,0.0,0.0,0.0,0.0,0.0,0.0,-5.7997,-5.8139,-5.8804,-5.8921,-5.9138,-6.0586,-6.089,-6.1009,-6.1797,-6.1381,-6.0611,-5.9796,-5.8981,-5.8184,-5.7369,-5.7188,-5.7442,-5.8257,-5.8402,-5.8945,-6.0557,-6.0801,-6.139,-6.2983,-6.3907,-6.4414,0.0,0.0,-6.5609,0.0,0.0,0.0,0.0,0.0,0.0,0.0,-6.6804,-6.6804,-6.6804,-6.6488,-6.6318,-6.6318,-6.5976,-6.5804,-6.5804,-6.5804,-6.5804,-6.5804,-6.5804,-6.5881,0.0,0.0,0.0,0.0,-6.6003,-6.5927,-6.5804,-6.5804,-6.5804,-6.5804,-6.5804,-6.5804,-6.5804,0.0,0.0,0.0,0.0,0.0,0.0,0.0,-5.8716,-5.8716,-5.8716,-5.8887,-5.8947,-5.8719,-5.8906,-5.8966,-5.8719,-5.8716,0.0,0.0,0.0,0.0,0.0,0.0,0.0,0.0,-5.8393,-5.8264,-5.7997,-5.7997,-5.7997,-5.7997,-5.7997,-5.7997,-5.7997,-5.7997,0.0,0.0,0.0,0.0,0.0,0.0,0.0,0.0,0.0,0.0,0.0,0.0,0.0,0.0,0.0,0.0,0.0,0.0,0.0,0.0,-5.8244,-5.8602,-5.9006,-5.9274,-5.9717,-6.0155,-6.033,-6.0176,-5.9778,-5.8963,-5.8583,-5.8166,-5.7369,-5.7188,-5.7279,-5.7532,-5.8039,-5.8746,-5.9814,-6.0448,-6.1371,-6.2965,0.0,0.0,-6.5138,-6.5935,0.0,0.0,0.0,0.0,0.0,0.0,0.0,0.0,-6.6804,-6.6745,-6.659,-6.65,-6.633,-6.6115,-6.599,-6.5895,-6.5804,-6.5804,-6.5804,-6.5804,-6.5804,0.0,0.0,0.0,0.0,0.0,-6.5895,-6.5818,-6.5804,-6.5804,-6.5804,-6.5804,-6.5804,-6.5804,-6.5804,0.0,0.0,0.0,0.0,0.0,0.0,0.0,-5.8925,-5.9063,-5.8906,-5.9064,-5.9122,-5.8906,-5.8947,-5.8926,-5.8719,-5.8716,0.0,0.0,0.0,0.0,0.0,0.0,0.0,-5.8393,-5.8393,-5.8264,-5.7997,-5.7997,-5.7997,-5.7997,-5.7997,-5.7997,-5.7997,-5.7997,-5.7997,0.0,0.0,0.0,0.0,0.0,0.0,-5.7997,0.0,0.0,0.0,0.0,0.0,0.0,0.0,0.0,0.0,0.0,0.0,0.0,0.0,-5.8294,-5.8639,-5.8732,-5.9044,-5.9397,-5.9603,-5.9406,-5.9017,-5.851,-5.8166,-5.7804,-5.7297,-5.7188,-5.7188,-5.7188,-5.7605,-5.8202,-5.9017,-5.9832,-6.081,0.0,0.0,0.0,-6.5048,0.0,0.0,0.0,0.0,0.0,0.0,0.0,0.0,0.0,0.0,-6.662,-6.6482,-6.6482,-6.6361,-6.6115,-6.6097,-6.6021,-6.5881,-6.5881,-6.585,-6.5804,-6.5804,0.0,0.0,0.0,0.0,0.0,-6.5818,-6.5804,-6.5804,-6.5804,-6.5804,-6.5804,-6.5804,-6.5804,-6.5804,0.0,0.0,0.0,0.0,0.0,0.0,0.0,-5.929,-5.9607,-5.9252,-5.9215,-5.9215,-5.9196,-5.8946,-5.876,-5.8698,0.0,0.0,0.0,0.0,0.0,0.0,0.0,0.0,-5.8393,-5.8393,-5.8264,-5.7997,-5.7997,-5.7997,-5.7997,-5.7997,-5.7997,-5.7997,-5.7997,-5.7997,-5.7997,-5.7997,-5.7997,-5.7997,-5.7932,-5.795,0.0,0.0,0.0,0.0,0.0,0.0,0.0,0.0,0.0,0.0,0.0,0.0,0.0,0.0,0.0,0.0,0.0,-5.8756,-5.8721,-5.9459,-5.8976,-5.8329,-5.8311,-5.7732,0.0,-5.7188,-5.7188,-5.7188,-5.7188,-5.7188,-5.746,-5.8275,-5.909,-5.9887,-6.0701,-6.2223,0.0,0.0,0.0,0.0,0.0,0.0,0.0,0.0,0.0,0.0,0.0,0.0,-6.6512,-6.65,-6.6512,-6.647,-6.6318,-6.6318,-6.6207,-6.6034,-6.6034,-6.5958,-6.5804,-6.5804,0.0,0.0,0.0,0.0,0.0,-6.5804,-6.5804,-6.5804,-6.5804,-6.5804,-6.5804,-6.5804,-6.5804,-6.5804,0.0,0.0,0.0,0.0,0.0,0.0,0.0,0.0,0.0,0.0,-5.9467,-5.9537,-5.9215,-5.9397,-5.9307,0.0,0.0,0.0,0.0,0.0,0.0,0.0,0.0,0.0,-5.8393,-5.8393,-5.8264,-5.7997,-5.7997,-5.7997,-5.7997,-5.7997,-5.7997,-5.7997,-5.7997,-5.7997,-5.7997,-5.7997,-5.7997,-5.7973,-5.7498,-5.7309,0.0,0.0,0.0,0.0,-5.7116,-5.7216,0.0,0.0,0.0,0.0,0.0,0.0,0.0,0.0,-5.7997,-5.8033,-5.817,0.0,-5.7978,-5.7964,-5.7799,-5.7604,0.0,-5.7333,-5.7188,-5.7188,-5.7188,-5.7188,-5.7188,-5.7188,-5.746,-5.8275,-5.909,-5.9887,-6.0701,-6.2712,0.0,-6.5211,0.0,0.0,0.0,0.0,0.0,0.0,0.0,0.0,0.0,0.0,-6.6608,-6.6348,-6.6608,-6.6608,-6.6318,-6.6318,-6.6287,-6.6238,-6.6238,-6.6146,-6.594,-6.594,0.0,0.0,0.0,0.0,-6.5804,-6.5804,-6.5804,-6.5804,-6.5804,-6.5804,-6.5804,-6.5804,-6.5804,-6.5804,0.0,0.0,0.0,0.0,0.0,0.0,0.0,0.0,0.0,0.0,0.0,-5.9725,-5.9502,-5.9362,0.0,0.0,0.0,0.0,0.0,0.0,0.0,0.0,0.0,-5.8612,-5.8393,-5.8393,-5.8264,-5.7997,-5.7997,-5.7997,-5.7997,-5.7997,-5.7997,-5.7997,-5.7997,-5.7862,-5.7589,-5.7589,-5.7589,-5.7522,-5.6964,0.0,0.0,0.0,0.0,0.0,-5.6817,-5.6765,0.0,-5.7613,-5.7839,-5.7637,0.0,0.0,0.0,0.0,-5.7997,-5.7997,-5.7997,-5.7886,-5.7768,-5.7625,-5.7486,-5.7363,-5.7307,-5.7239,-5.7188,-5.7188,-5.7188,-5.7188,-5.7188,-5.7188,-5.7333,-5.7786,-5.8836,-6.014,-6.1679,0.0,-6.5102,-6.5555,0.0,0.0,0.0,0.0,0.0,0.0,0.0,0.0,0.0,0.0,-6.6638,-6.6548,-6.6608,-6.6578,-6.6409,-6.647,-6.647,-6.6409,-6.6318,-6.6177,-6.6003,-6.5927,0.0,0.0,0.0,0.0,-6.5804,-6.5804,-6.5804,-6.5804,-6.5804,-6.5804,-6.5804,-6.5804,-6.5804,-6.5804,0.0,0.0,0.0,0.0,0.0,0.0,0.0,0.0,0.0,0.0,0.0,0.0,0.0,0.0,0.0,0.0,0.0,0.0,0.0,0.0,0.0,0.0,-5.8716,-5.8612,-5.8393,-5.8393,-5.8264,-5.7997,-5.7997,-5.7997,-5.7997,-5.7997,-5.7997,-5.7997,-5.7997,-5.766,-5.7116,-5.7191,-5.7141,-5.692,-5.6492,0.0,0.0,0.0,0.0,0.0,0.0,0.0,0.0,-5.7327,-5.7522,-5.7209,-5.7797,0.0,0.0,0.0,0.0,0.0,-5.7997,-5.7927,-5.7834,-5.781,-5.7625,-5.7437,-5.7406,-5.7313,-5.7213,-5.7188,-5.7188,-5.7243,-5.7351,-5.7387,-5.7424,-5.755,-5.8818,-6.0593,-6.2875,-6.4468,-6.5464,0.0,0.0,0.0,0.0,0.0,0.0,0.0,0.0,0.0,0.0,0.0,0.0,-6.6745,-6.662,-6.656,-6.656,-6.6697,-6.6668,-6.6482,-6.6379,-6.6177,-6.6003,-6.5863,-6.5836,0.0,0.0,0.0,-6.5804,-6.5804,-6.5804,-6.5804,-6.5804,-6.5804,-6.5804,-6.5804,-6.5804,-6.5804,0.0,0.0,0.0,0.0,0.0,0.0,0.0,0.0,0.0,0.0,0.0,0.0,0.0,0.0,0.0,0.0,0.0,0.0,0.0,0.0,0.0,-5.8716,-5.8716,-5.8612,-5.8393,-5.8393,-5.8264,-5.7997,-5.7997,-5.7997,-5.7997,-5.7997,-5.7997,-5.7997,-5.7997,-5.766,-5.7141,-5.7637,-5.7284,-5.6412,-5.633,0.0,0.0,0.0,0.0,0.0,0.0,0.0,0.0,-5.6817,-5.7166,-5.7209,-5.7797,0.0,0.0,0.0,0.0,0.0,-5.7997,-5.7973,-5.795,-5.7815,-5.7768,-5.7673,-5.7437,-5.7363,-5.7356,-5.7213,-5.7188,-5.7406,-5.8094,-5.822,-5.8438,-5.9126,-6.0013,-6.1227,0.0,0.0,0.0,0.0,0.0,0.0,0.0,0.0,0.0,0.0,0.0,0.0,0.0,0.0,0.0,-6.656,-6.6668,-6.6757,-6.6757,-6.6638,-6.653,-6.6482,-6.6379,-6.6177,-6.6003,-6.5972,-6.5895,0.0,0.0,-6.5804,-6.5804,-6.5804,-6.5804,-6.5804,-6.5804,-6.5804,-6.5804,-6.5804,-6.5804,-6.5804,0.0,0.0,0.0,0.0,0.0,0.0,0.0,0.0,0.0,0.0,0.0,0.0,0.0,0.0,0.0,0.0,0.0,0.0,0.0,0.0,-5.8716,-5.8716,-5.8635,-5.8529,-5.8393,-5.8393,-5.8264,-5.7997,-5.7997,-5.7997,-5.7997,-5.7997,-5.7997,-5.7997,-5.7997,-5.766,-5.7116,-5.7382,-5.704,-5.6276,0.0,0.0,0.0,0.0,0.0,0.0,0.0,0.0,0.0,0.0,-5.6678,-5.6783,-5.7333,0.0,0.0,0.0,0.0,0.0,-5.7997,-5.7997,-5.8084,-5.8477,-5.8168,-5.7745,-5.7553,-5.7437,-5.7363,-5.7232,-5.7188,-5.7442,-5.8257,-5.8402,-5.8818,-6.0068,-6.0937,-6.186,-6.3019,-6.4269,0.0,0.0,0.0,0.0,0.0,0.0,0.0,0.0,0.0,0.0,0.0,0.0,0.0,0.0,-6.6745,-6.6745,-6.6638,-6.647,-6.6439,-6.65,-6.6269,-6.6097,-6.6003,-6.5927,-6.585,-6.5804,0.0,-6.5804,-6.5804,-6.5804,-6.5804,-6.5804,-6.5804,-6.5804,-6.5804,-6.5804,-6.5804,-6.5804,0.0,0.0,0.0,0.0,0.0,0.0,0.0,0.0,0.0,0.0,0.0,0.0,0.0,0.0,0.0,0.0,0.0,0.0,0.0,-5.8739,-5.8716,-5.8716,-5.8553,-5.8465,-5.8393,-5.8371,-5.8242,-5.7997,-5.7997,-5.7997,-5.7997,-5.7997,-5.7997,-5.7997,-5.7997,-5.766,-5.7116,-5.7241,-5.6912,-5.6248,0.0,0.0,0.0,0.0,0.0,0.0,0.0,0.0,0.0,0.0,0.0,0.0,0.0,0.0,0.0,-5.7973,-5.7997,-5.7997,-5.7997,-5.7997,-5.8143,-5.8786,-5.8532,-5.8145,-5.8184,-5.8117,-5.7976,-5.7826,-5.7775,-5.8003,-5.8818,-5.9126,-5.9579,-6.0647,-6.1471,-6.2295,0.0,0.0,0.0,0.0,0.0,0.0,0.0,0.0,0.0,0.0,0.0,0.0,0.0,0.0,0.0,0.0,-6.6804,-6.6745,-6.656,-6.6379,-6.6348,-6.6391,-6.6083,-6.594,-6.5958,-6.585,-6.5804,-6.5804,-6.5804,-6.5804,-6.5804,-6.5804,-6.5804,-6.5804,-6.5804,-6.5804,-6.5804,-6.5804,-6.5804,-6.5804,0.0,0.0,0.0,0.0,0.0,0.0,0.0,0.0,0.0,0.0,0.0,0.0,0.0,0.0,0.0,0.0,0.0,0.0,0.0,-5.8867,-5.8716,-5.8716,-5.8553,-5.8465,-5.8393,-5.8264,-5.8133,-5.7997,-5.7997,-5.7997,-5.7997,-5.7997,-5.7997,-5.7997,-5.7997,-5.766,-5.7141,-5.7703,-5.7302,-5.6303,-5.6248,0.0,0.0,0.0,0.0,0.0,0.0,0.0,0.0,0.0,0.0,0.0,0.0,0.0,-5.7266,-5.7839,-5.7997,-5.7997,-5.7997,-5.7997,-5.8015,-5.807,-5.8597,-5.9271,-5.9883,-5.9925,-5.9757,-5.963,-5.952,-5.9669,-6.0484,-6.1245,-6.1525,-6.0919,-6.1471,0.0,0.0,0.0,0.0,0.0,0.0,0.0,0.0,0.0,0.0,0.0,0.0,0.0,0.0,0.0,0.0,0.0,0.0,-6.6804,-6.6775,-6.6439,-6.6207,-6.6034,-6.5881,-6.5804,-6.5804,-6.5804,-6.5804,-6.5804,-6.5804,-6.5804,-6.5804,-6.5804,-6.5804,-6.5804,-6.5804,-6.5804,-6.5804,-6.5804,-6.5804,-6.5804,0.0,0.0,0.0,0.0,0.0,0.0,0.0,0.0,0.0,0.0,0.0,0.0,0.0,0.0,0.0,0.0,0.0,0.0,0.0,-5.8905,-5.8716,-5.8716,-5.8526,-5.8437,-5.8393,-5.8264,-5.8133,-5.7997,-5.7997,-5.7997,-5.7997,-5.7997,-5.7997,-5.7997,-5.7997,-5.7886,-5.766,-5.7909,-5.7351,-5.633,-5.666,-5.6231,0.0,0.0,0.0,0.0,0.0,0.0,0.0,0.0,-5.6065,-5.6528,-5.6835,-5.7259,-5.7684,-5.7932,-5.7997,-5.7997,-5.7997,-5.8364,-5.8877,-5.9373,-5.9722,-5.9858,-5.9536,-5.9743,-5.9965,-5.9838,-5.9683,-5.985,-6.0665,-6.148,-6.1887,-6.158,-6.1797,0.0,0.0,0.0,0.0,0.0,0.0,0.0,0.0,0.0,0.0,0.0,0.0,0.0,0.0,0.0,0.0,0.0,0.0,-6.6727,-6.662,-6.6409,-6.6207,-6.6003,-6.585,-6.5804,-6.5804,-6.5804,-6.5804,-6.5804,-6.5804,-6.5804,-6.5804,-6.5804,-6.5804,-6.5804,-6.5804,-6.5804,-6.5804,-6.5804,-6.5804,-6.5804,0.0,0.0,0.0,0.0,0.0,0.0,0.0,0.0,0.0,0.0,0.0,0.0,0.0,0.0,0.0,0.0,0.0,0.0,-5.9379,-5.8946,-5.8716,-5.8716,-5.8523,-5.8393,-5.8393,-5.8219,-5.8088,-5.7997,-5.7997,-5.7997,-5.7997,-5.7997,-5.7997,-5.7997,-5.7997,-5.7997,-5.7997,-5.7997,-5.754,-5.6835,-5.704,-5.6634,0.0,0.0,0.0,0.0,0.0,0.0,0.0,0.0,-5.634,-5.6861,-5.6835,-5.7234,-5.775,-5.7932,-5.7997,-5.7997,-5.7997,-5.8602,-5.9313,-5.9887,-6.0401,-6.0615,-5.9969,-5.9938,-6.0088,-6.0216,-6.0308,-6.0466,-6.0756,-6.148,-6.1906,0.0,0.0,0.0,0.0,0.0,0.0,0.0,0.0,0.0,0.0,0.0,0.0,0.0,0.0,0.0,0.0,0.0,0.0,0.0,0.0,-6.6697,-6.6482,-6.6409,-6.6128,-6.565,-6.5539,-6.5607,-6.5804,-6.5804,-6.5804,-6.5804,-6.5804,-6.5804,-6.5804,-6.5804,-6.5804,-6.5804,-6.5804,-6.5804,-6.5804,-6.5804,-6.5804,-6.5804,0.0,0.0,0.0,0.0,0.0,0.0,0.0,0.0,0.0,0.0,0.0,0.0,0.0,0.0,0.0,0.0,0.0,0.0,-5.9774,-5.9121,-5.8698,-5.8698,-5.8523,-5.8393,-5.8393,-5.8152,-5.7997,-5.7997,-5.7997,-5.7997,-5.7997,-5.7997,-5.7997,-5.7997,-5.7997,-5.7997,-5.7997,-5.7997,-5.7997,-5.7932,-5.7358,-5.7116,-5.704,0.0,0.0,0.0,0.0,0.0,0.0,0.0,-5.6739,-5.6519,-5.7655,-5.7589,-5.7234,-5.7821,-5.7997,-5.7997,-5.7997,-5.8602,-5.9221,-5.9221,-6.0419,-6.1594,-6.1594,-6.0872,-6.0402,-6.1055,-6.1614,-6.1743,-6.0955,-6.148,0.0,0.0,0.0,0.0,0.0,0.0,0.0,0.0,0.0,0.0,0.0,0.0,0.0,0.0,0.0,0.0,0.0,0.0,0.0,0.0,0.0,0.0,-6.6482,-6.6482,-6.5936,-6.4873,-6.4873,-6.5194,-6.5772,-6.5804,-6.5804,-6.5804,-6.5804,-6.5804,-6.5804,-6.5804,-6.5804,-6.5804,-6.5804,-6.5804,-6.5804,-6.5804,-6.5804,-6.5804,0.0,0.0,0.0,0.0,0.0,0.0,0.0,0.0,0.0,0.0,0.0,0.0,0.0,0.0,0.0,0.0,0.0,0.0,-5.9807,-5.9325,-5.9045,-5.9045,-5.8638,-5.8393,-5.8393,-5.8152,-5.7997,-5.7997,-5.7997,-5.7997,-5.7997,-5.7997,-5.7997,-5.7997,-5.7997,-5.7997,-5.7997,-5.7997,-5.775,-5.7382,-5.7637,-5.7474,-5.7091,0.0,0.0,0.0,0.0,0.0,0.0,0.0,0.0,0.0,-5.7382,-5.7522,-5.7774,-5.795,-5.84,-5.8859,-5.8859,-5.985,-6.0896,-6.0896,-6.1245,-6.1594,-6.1594,-6.1312,-6.0882,-6.0326,-6.1171,-6.1743,-6.0955,-6.148,0.0,0.0,0.0,0.0,0.0,0.0,0.0,0.0,0.0,0.0,0.0,0.0,0.0,0.0,0.0,0.0,0.0,0.0,0.0,0.0,0.0,0.0,-6.5174,-6.5041,-6.472,-6.4253,-6.4183,-6.4112,-6.4148,-6.4703,-6.4976,-6.4976,-6.5542,-6.5804,-6.5804,-6.5804,-6.5804,-6.5804,-6.5804,-6.5804,-6.5804,-6.5804,-6.5804,-6.5804,0.0,0.0,0.0,0.0,0.0,0.0,0.0,0.0,0.0,0.0,-5.9823,-6.0091,0.0,0.0,0.0,0.0,0.0,0.0,0.0,-5.9484,-5.9215,-5.9215,-5.8681,-5.8349,-5.8242,-5.8065,-5.7997,-5.7997,-5.7997,-5.7997,-5.7997,-5.7997,-5.7997,-5.7997,-5.7997,-5.7997,-5.7997,-5.7997,-5.7797,-5.7498,-5.7862,-5.7774,-5.7449,0.0,0.0,0.0,0.0,0.0,0.0,0.0,0.0,0.0,-5.757,-5.7726,-5.7997,-5.7997,-5.8584,-5.9184,-5.9184,-6.0382,-6.1594,-6.1594,-6.1832,-6.1998,-6.1667,-6.1446,-6.1142,-6.0489,-6.1234,-6.1833,-6.1362,-6.1652,0.0,0.0,0.0,0.0,0.0,0.0,0.0,0.0,0.0,0.0,0.0,0.0,0.0,0.0,0.0,0.0,0.0,0.0,0.0,0.0,0.0,0.0,-6.4497,-6.4463,-6.4095,-6.3427,-6.3408,-6.3073,-6.2501,-6.3629,-6.4288,-6.4635,-6.546,-6.5804,-6.5804,-6.5804,-6.5804,-6.5804,-6.5804,-6.5804,-6.5804,-6.5804,-6.5804,-6.5804,0.0,0.0,0.0,0.0,0.0,0.0,0.0,0.0,0.0,0.0,-5.9849,-6.0279,0.0,0.0,0.0,0.0,0.0,0.0,0.0,-5.962,-5.9252,-5.9197,-5.8661,-5.8264,-5.7997,-5.7997,-5.7997,-5.7997,-5.7997,-5.7997,-5.7997,-5.7997,-5.7997,-5.7997,-5.7997,-5.7997,-5.7997,-5.7997,-5.7997,-5.7997,-5.7997,-5.7997,-5.7997,-5.7997,0.0,0.0,0.0,0.0,0.0,0.0,0.0,0.0,-5.7997,-5.7997,-5.7997,-5.7997,-5.8584,-5.9221,-5.9276,-6.0438,-6.1612,-6.1686,-6.2254,-6.2622,-6.1887,-6.1506,-6.1292,-6.112,-6.1577,-6.1978,-6.1887,-6.1942,0.0,0.0,0.0,0.0,0.0,0.0,0.0,0.0,0.0,0.0,0.0,0.0,0.0,0.0,0.0,0.0,0.0,0.0,0.0,0.0,0.0,0.0,-6.4147,-6.4271,-6.3736,0.0,-6.26,-6.2127,-6.1144,-6.2617,-6.3774,-6.4635,-6.5376,-6.5722,-6.5804,-6.5804,-6.5804,-6.5804,-6.5804,-6.5804,-6.5804,-6.5804,-6.5804,-6.5804,0.0,0.0,0.0,0.0,0.0,0.0,0.0,0.0,0.0,0.0,0.0,0.0,0.0,0.0,0.0,0.0,0.0,0.0,0.0,-5.9758,-5.9521,-5.914,-5.8556,-5.8174,-5.7997,-5.7997,-5.7997,-5.7997,-5.7997,-5.7997,-5.7997,-5.7997,-5.7997,-5.7997,-5.7997,-5.7997,-5.7997,-5.7997,-5.7997,-5.7997,-5.7997,-5.7997,-5.7997,-5.7997,-5.7997,0.0,0.0,0.0,0.0,0.0,0.0,0.0,-5.7997,-5.7997,-5.7997,-5.7997,-5.8584,-5.9331,-5.9979,-6.086,-6.1741,-6.2383,-6.2652,-6.2743,-6.2585,-6.2423,-6.1905,-6.0544,-6.1178,-6.1797,-6.1163,0.0,0.0,0.0,0.0,0.0,0.0,0.0,0.0,0.0,0.0,0.0,0.0,0.0,0.0,0.0,0.0,0.0,0.0,0.0,0.0,0.0,0.0,-6.2834,-6.2796,-6.2629,-6.2318,0.0,-6.1756,-6.1489,-6.1144,-6.2082,-6.3279,-6.4601,-6.4772,-6.5212,-6.5804,-6.5804,-6.5804,-6.5804,-6.5804,-6.5804,-6.5804,-6.5804,-6.5804,-6.5804,0.0,0.0,0.0,0.0,0.0,0.0,0.0,0.0,0.0,0.0,0.0,0.0,0.0,0.0,0.0,0.0,0.0,0.0,0.0,0.0,-5.9739,-5.9026,-5.8492,-5.8152,-5.7997,-5.7997,-5.7997,-5.7997,-5.7997,-5.7997,-5.7997,-5.7997,-5.7997,-5.7997,-5.7997,-5.7997,-5.7997,-5.7997,-5.7997,-5.7997,-5.7997,-5.7997,-5.7997,-5.7997,-5.7997,-5.7997,-5.7997,0.0,0.0,0.0,0.0,0.0,0.0,0.0,-5.7997,-5.7997,-5.8584,-5.9368,-6.0181,-6.0988,-6.1796,-6.2603,-6.278,-6.278,-6.278,-6.2705,-6.2322,-6.1346,-6.1648,-6.196,0.0,0.0,0.0,0.0,0.0,0.0,0.0,0.0,0.0,0.0,0.0,0.0,0.0,0.0,0.0,0.0,0.0,0.0,0.0,0.0,0.0,0.0,-6.2212,-6.2381,-6.2381,-6.2133,-6.1877,-6.1709,-6.1506,-6.1276,-6.1144,-6.2302,-6.3279,-6.4077,-6.4823,-6.5427,-6.5804,-6.5804,-6.5804,-6.5804,-6.5804,-6.5804,-6.5804,-6.5804,-6.5804,-6.5804,0.0,0.0,0.0,0.0,0.0,0.0,0.0,0.0,0.0,0.0,0.0,0.0,0.0,0.0,0.0,0.0,0.0,0.0,0.0,0.0,0.0,-5.893,-5.8428,-5.8111,-5.7997,-5.7997,-5.7997,-5.7997,-5.7997,-5.7997,-5.7997,-5.7997,-5.7997,-5.7997,-5.7997,-5.7997,-5.7997,-5.7997,-5.7997,-5.7997,-5.7997,-5.7997,-5.7997,-5.7997,-5.7997,-5.7997,-5.7997,-5.7997,-5.7997,-5.7997,0.0,0.0,0.0,0.0,-5.7997,-5.7997,-5.8474,-5.9189,-5.9979,-6.0878,-6.1796,-6.2603,-6.278,-6.278,-6.278,-6.2705,-6.2603,-6.2441,-6.2283,0.0,0.0,0.0,0.0,0.0,0.0,0.0,0.0,0.0,0.0,0.0,0.0,0.0,0.0,0.0,0.0,0.0,0.0,0.0,0.0,0.0,-6.1163,-6.1298,-6.189,-6.2262,-6.2381,-6.2093,-6.1854,-6.1709,-6.1482,-6.1252,-6.1144,-6.2578,-6.3299,-6.3466,-6.4925,-6.5657,-6.5804,-6.5804,-6.5804,-6.5804,-6.5804,-6.5804,-6.5804,-6.5804,-6.5804,-6.5804,0.0,0.0,0.0,0.0,0.0,0.0,0.0,0.0,0.0,0.0,-6.052,-6.0475,0.0,0.0,0.0,0.0,0.0,0.0,0.0,0.0,0.0,-5.891,-5.8344,-5.802,-5.7997,-5.7997,-5.7997,-5.7997,-5.7997,-5.7997,-5.7997,-5.7997,-5.7997,-5.7997,-5.7997,-5.7997,-5.7997,-5.7997,-5.7997,-5.7997,-5.7997,-5.7997,-5.7997,-5.7997,-5.7997,-5.7997,-5.7997,-5.7997,-5.7997,-5.7997,-5.7997,0.0,0.0,0.0,-5.7997,-5.7997,-5.807,-5.8345,-5.9153,-6.0456,-6.1796,-6.2603,-6.278,-6.278,-6.278,-6.2798,-6.2705,0.0,0.0,0.0,0.0,0.0,0.0,0.0,0.0,0.0,0.0,0.0,0.0,0.0,0.0,0.0,0.0,0.0,0.0,0.0,0.0,0.0,0.0,-5.986,-6.0588,-6.1281,-6.14,-6.1755,-6.2381,-6.1967,-6.1709,-6.1709,-6.1334,-6.1144,-6.1144,-6.2059,-6.2808,-6.3429,-6.4358,-6.5161,-6.5804,-6.5804,-6.5804,-6.5804,-6.5804,-6.5804,-6.5804,-6.5804,-6.5804,-6.5804,0.0,0.0,0.0,0.0,0.0,0.0,0.0,0.0,0.0,0.0,0.0,-6.0641,0.0,0.0,0.0,0.0,0.0,0.0,0.0,0.0,0.0,-5.9177,-5.8418,-5.7997,-5.7997,-5.7997,-5.7997,-5.7997,-5.7997,-5.7997,-5.7997,-5.7997,-5.7997,-5.7997,-5.7997,-5.7997,-5.7997,-5.7997,-5.7997,-5.7997,-5.7997,-5.7997,-5.7997,-5.7997,-5.7997,-5.7997,-5.7997,-5.7997,-5.7997,-5.7997,-5.7997,-5.7997,-5.7997,0.0,0.0,0.0,-5.7997,-5.818,-5.8964,-6.0382,-6.1686,-6.2034,-6.2475,-6.278,-6.278,-6.278,-6.2748,-6.2552,0.0,0.0,0.0,0.0,0.0,0.0,0.0,0.0,0.0,0.0,0.0,0.0,0.0,0.0,0.0,0.0,0.0,0.0,0.0,0.0,-5.8389,-5.9082,-5.9658,-6.0013,-6.0858,-6.145,-6.1772,-6.1726,-6.1604,-6.1375,-6.1186,-6.1102,-6.1144,-6.2363,-6.3076,-6.3429,-6.4253,-6.5043,-6.5804,-6.5804,-6.5804,-6.5804,-6.5804,-6.5804,-6.5804,-6.5804,-6.5804,-6.5804,0.0,0.0,0.0,0.0,0.0,0.0,0.0,0.0,0.0,0.0,0.0,0.0,0.0,0.0,0.0,0.0,0.0,0.0,0.0,0.0,0.0,-5.923,-5.8526,-5.8097,-5.7997,-5.7997,-5.7997,-5.7997,-5.7997,-5.7997,-5.7997,-5.7997,-5.7997,-5.7997,-5.7997,-5.7997,-5.7997,-5.7997,-5.7997,-5.7997,-5.7997,-5.7997,-5.7997,-5.7997,-5.7997,-5.7997,-5.7997,-5.7997,-5.7997,-5.7997,-5.7997,-5.7997,-5.7997,-5.7997,0.0,0.0,0.0,-5.818,-5.8964,-6.0089,-6.108,-6.1502,-6.2053,-6.2567,-6.2743,0.0,-6.2755,0.0,0.0,0.0,0.0,0.0,0.0,0.0,0.0,0.0,0.0,0.0,0.0,0.0,0.0,0.0,0.0,0.0,0.0,0.0,0.0,0.0,-5.7881,-5.8423,-5.8829,-5.9015,-6.0131,-6.0909,-6.1298,-6.1558,-6.1482,-6.1102,-6.1102,-6.1102,-6.1144,-6.2501,-6.3208,-6.3466,-6.448,-6.5245,-6.5804,-6.5804,-6.5804,-6.5804,-6.5804,-6.5804,-6.5804,-6.5804,-6.5804,-6.5804,0.0,0.0,0.0,0.0,0.0,0.0,0.0,0.0,0.0,0.0,0.0,0.0,-6.0293,-6.0321,-6.0449,-6.0757,-6.08,0.0,0.0,0.0,0.0,-5.8756,-5.863,0.0,-5.802,-5.7997,-5.7997,-5.7997,-5.7997,-5.7997,-5.7997,-5.7997,-5.7997,-5.7997,-5.7997,-5.7997,-5.7997,-5.7997,-5.7997,-5.7997,-5.7997,-5.7997,-5.7997,-5.7997,-5.7997,-5.7997,-5.7997,-5.7997,-5.7997,-5.7997,-5.7997,-5.7997,-5.7997,-5.7997,-5.7997,0.0,0.0,0.0,-5.8964,-5.9258,-5.9703,-6.1208,-6.163,-6.1851,0.0,0.0,0.0,0.0,0.0,0.0,0.0,0.0,0.0,0.0,0.0,0.0,0.0,0.0,0.0,0.0,0.0,0.0,0.0,0.0,0.0,0.0,0.0,0.0,-5.7881,-5.7932,-5.8271,-5.8998,-5.9099,-5.9827,-6.1298,-6.1558,-6.1482,-6.1102,-6.1102,-6.1102,-6.1144,-6.198,-6.2732,-6.3466,-6.5043,-6.5754,-6.5804,-6.5804,-6.5804,-6.5804,-6.5804,-6.5804,-6.5804,-6.5804,-6.5804,-6.5804,0.0,0.0,0.0,0.0,0.0,0.0,0.0,0.0,0.0,0.0,0.0,0.0,0.0,-6.0121,-6.0026,-6.015,-6.0349,0.0,0.0,0.0,0.0,-5.9103,-5.8524,-5.8142,-5.7997,-5.7997,-5.7997,-5.7997,-5.7997,-5.7997,-5.7997,-5.7997,-5.7997,-5.7997,-5.7997,-5.7997,-5.7997,-5.7997,-5.7997,-5.7997,-5.7997,-5.7997,-5.7997,-5.7997,-5.7997,-5.807,-5.8584,-5.8786,-5.8859,-5.9373,-5.9208,-5.8786,-5.8786,-5.8419,-5.7997,-5.7997,-5.7997,-5.8052,-5.8345,-5.8822,-5.9331,-5.9924,-6.0456,-6.0915,-6.119,-6.1667,0.0,0.0,0.0,0.0,0.0,0.0,0.0,0.0,0.0,0.0,0.0,0.0,0.0,0.0,0.0,0.0,0.0,0.0,0.0,0.0,0.0,0.0,-5.7881,-5.7881,-5.8017,-5.8287,-5.8761,-5.9667,-6.1037,-6.1031,-6.1079,-6.1276,-6.1144,-6.1102,-6.1144,-6.194,-6.2441,-6.277,-6.4341,-6.5311,-6.5804,-6.5804,-6.5804,-6.5804,-6.5804,-6.5804,-6.5804,-6.5804,-6.5804,-6.5804,0.0,0.0,0.0,0.0,0.0,0.0,0.0,0.0,-5.9252,-5.9849,0.0,0.0,0.0,0.0,-5.9639,-5.9791,-5.9996,-6.0131,-6.0112,-5.9682,-5.9268,-5.8873,-5.8437,-5.8142,-5.7997,-5.7997,-5.7997,-5.7997,-5.7997,-5.7997,-5.7997,-5.7997,-5.7997,-5.7997,-5.7997,-5.7997,-5.7997,-5.7997,-5.7997,-5.7997,-5.7997,-5.7997,-5.8033,-5.8309,-5.84,-5.851,-5.9318,-5.9588,-5.9661,-6.0236,-5.9887,-5.9184,-5.9184,-5.8657,-5.7997,-5.7997,-5.7997,-5.7997,-5.7997,-5.84,-5.8854,-5.9129,-5.9588,-6.007,-6.0346,0.0,0.0,0.0,0.0,0.0,0.0,0.0,0.0,0.0,0.0,0.0,0.0,0.0,0.0,0.0,0.0,0.0,0.0,0.0,0.0,0.0,0.0,0.0,-5.7881,-5.7881,-5.7881,-5.7881,-5.8626,-5.9338,-6.0046,-6.0432,-6.0735,-6.0911,-6.1069,-6.1102,-6.1144,-6.194,-6.2302,-6.238,-6.3629,-6.4669,-6.5427,-6.569,-6.5804,-6.5804,-6.5804,-6.5804,-6.5804,-6.5804,-6.5804,-6.5804,0.0,0.0,0.0,0.0,0.0,0.0,0.0,0.0,-5.8805,-5.9159,0.0,0.0,0.0,0.0,0.0,-5.9741,-5.9774,-5.9537,-5.895,-5.927,-5.9046,-5.8047,0.0,0.0,-5.802,-5.7997,-5.7997,-5.7997,-5.7997,-5.7997,-5.7997,-5.7997,-5.7997,-5.7997,-5.7997,-5.7997,-5.7997,-5.7997,-5.7997,-5.7997,-5.8033,-5.8033,-5.8125,-5.8933,-5.9239,-5.9331,-6.0162,-6.0438,-6.0438,-6.0456,-5.9924,-5.9221,-5.9166,-5.8639,-5.7997,-5.7997,-5.7997,-5.7997,0.0,0.0,0.0,-5.8964,0.0,0.0,-6.0181,0.0,0.0,0.0,0.0,0.0,0.0,0.0,0.0,0.0,0.0,0.0,0.0,0.0,0.0,0.0,0.0,0.0,0.0,0.0,0.0,0.0,0.0,-5.7881,-5.7881,-5.7881,-5.7881,-5.7881,-5.8592,-5.8794,-5.8394,-5.9817,-6.0371,-6.0009,-6.0738,-6.1086,-6.1144,-6.1917,-6.2262,-6.2318,-6.3056,-6.381,-6.4601,-6.5427,-6.5772,-6.5804,-6.5804,-6.5804,-6.5804,-6.5804,-6.5804,-6.5804,0.0,0.0,0.0,0.0,0.0,-5.8739,-5.8825,-5.876,-5.8805,0.0,0.0,0.0,-5.9159,-5.8986,-5.8985,-5.9343,-5.9307,-5.9307,-5.9324,-5.9065,-5.8773,-5.8437,-5.8257,-5.8097,-5.7997,-5.7997,-5.7997,-5.7997,-5.7997,-5.7997,-5.7997,-5.7997,-5.7997,-5.7997,-5.7997,-5.7997,-5.7997,-5.7997,-5.7997,-5.8052,-5.8639,-5.8877,-5.8969,-5.9777,-6.007,-6.0181,-6.097,-6.1263,-6.1355,0.0,-6.1227,-5.9869,-5.8712,-5.818,-5.7997,-5.7997,-5.7997,-5.7997,-5.7997,0.0,0.0,0.0,0.0,0.0,0.0,0.0,0.0,0.0,0.0,0.0,0.0,0.0,0.0,0.0,0.0,0.0,0.0,0.0,0.0,0.0,0.0,0.0,0.0,0.0,0.0,0.0,-5.7881,-5.7881,-5.7881,-5.7881,-5.7881,-5.7881,-5.8101,-5.8346,-5.8623,-5.889,-5.9432,-6.022,-6.029,-6.0589,-6.1119,-6.1334,-6.1441,-6.1482,-6.2262,-6.2732,-6.3035,-6.4393,-6.526,-6.5804,-6.5804,-6.5804,-6.5804,-6.5804,-6.5804,-6.5804,0.0,0.0,0.0,0.0,0.0,-5.8716,-5.8716,-5.8716,-5.8762,0.0,0.0,0.0,-5.8967,-5.8823,-5.8782,-5.8967,-5.8908,-5.8908,-5.9026,-5.8708,-5.8437,-5.8348,-5.8138,-5.7997,-5.7997,-5.7997,-5.7997,-5.7997,-5.7997,-5.7997,-5.7997,-5.7997,-5.7997,-5.7997,-5.7997,-5.7997,-5.7997,-5.7997,-5.8198,-5.851,-5.8657,-5.8891,-5.9276,-6.0107,-6.0401,-6.0548,-6.1686,0.0,-6.2181,-6.2658,-6.1961,0.0,-5.8602,-5.8235,-5.8437,-5.8107,-5.7997,-5.7997,-5.7997,-5.7997,-5.7997,-5.7997,0.0,0.0,-5.8602,-5.8946,0.0,0.0,0.0,0.0,0.0,0.0,0.0,0.0,0.0,0.0,0.0,0.0,0.0,0.0,0.0,0.0,0.0,0.0,0.0,0.0,-5.7881,-5.7881,-5.7881,-5.7881,-5.7881,-5.7881,-5.7881,-5.8028,-5.8244,-5.8358,-5.8714,-5.9385,-5.9816,-6.0225,-6.0655,-6.097,-6.1102,-6.1144,-6.1588,-6.198,-6.238,-6.3297,-6.4323,-6.5344,-6.5657,-6.5804,-6.5804,-6.5804,-6.5804,-6.5804,0.0,0.0,-5.8716,-5.8716,-5.8716,-5.8716,-5.8716,-5.8716,-5.8716,0.0,-5.8716,-5.8716,-5.8716,-5.8716,-5.8677,-5.8677,-5.8553,-5.8465,-5.8393,-5.8242,-5.8111,-5.7997,-5.7997,-5.7997,-5.7997,-5.7997,-5.7997,-5.7997,-5.7997,-5.7997,-5.7997,-5.7997,-5.7997,-5.7997,-5.7997,-5.7997,-5.7997,-5.7997,-5.8455,-5.9148,-5.8529,-5.8749,-5.9533,-6.0364,-6.0676,-6.086,-6.231,-6.278,-6.2762,-6.2578,-6.2126,0.0,0.0,0.0,0.0,0.0,-5.807,-5.7997,-5.7997,-5.7997,-5.7997,-5.7997,0.0,0.0,-5.8107,-5.8621,-5.9313,0.0,0.0,0.0,0.0,0.0,0.0,0.0,0.0,0.0,0.0,0.0,0.0,0.0,0.0,0.0,0.0,0.0,-5.7881,-5.7881,-5.7881,-5.7881,-5.7881,-5.7881,-5.7881,-5.7881,-5.7881,-5.7808,-5.7588,-5.8056,-5.8212,-5.8103,-5.9212,-5.9844,-6.0026,-6.0688,-6.1036,-6.1102,-6.1102,-6.1506,-6.2161,-6.2296,-6.3237,-6.4619,-6.5344,-6.5707,-6.5779,-6.579,-6.5804,-6.5804,0.0,-5.8716,-5.8716,-5.8716,-5.8716,-5.8716,-5.8716,-5.8716,-5.8716,-5.8716,-5.8716,-5.8716,-5.8716,-5.8716,-5.8656,-5.8553,-5.8483,-5.8353,-5.8242,-5.8111,-5.802,-5.7997,-5.7997,-5.7997,-5.7997,-5.7997,-5.7997,-5.7997,-5.7997,-5.7997,-5.7997,-5.7997,-5.7997,-5.7997,-5.7997,-5.7997,-5.7997,-5.7997,-5.8455,-5.9239,-5.974,-6.0419,-6.1227,-6.2034,-6.2346,-6.2358,-6.267,-6.278,-6.2597,-6.13,-6.119,-6.1282,0.0,0.0,0.0,-5.9001,0.0,0.0,0.0,0.0,0.0,0.0,0.0,0.0,-5.8822,-5.8602,-5.8657,0.0,0.0,0.0,0.0,0.0,0.0,0.0,0.0,0.0,0.0,0.0,0.0,0.0,0.0,0.0,0.0,0.0,-5.7881,-5.7881,-5.7881,-5.7881,-5.7881,-5.7881,-5.7881,-5.7881,-5.7881,-5.7808,-5.7588,-5.7536,-5.7733,-5.8103,-5.8206,-5.885,-6.0009,-6.0158,-6.0539,-6.1102,-6.1102,-6.1186,-6.1417,-6.2268,-6.3264,-6.4297,-6.4462,-6.5033,-6.5801,-6.5803,-6.5804,-6.5804,-5.8716,-5.8716,-5.8716,-5.8716,-5.8716,-5.8716,-5.8716,-5.8716,-5.8716,-5.8716,-5.8716,-5.8716,-5.8716,-5.8635,-5.8553,-5.8511,-5.8396,-5.8264,-5.8197,-5.8065,-5.7997,-5.7997,-5.7997,-5.7997,-5.7997,-5.7997,-5.7997,-5.7997,-5.7997,-5.7997,-5.7997,-5.7997,-5.7997,-5.7997,-5.7997,-5.7997,-5.8033,-5.8437,-5.9061,-5.9813,-5.9813,0.0,-6.108,-6.1906,-6.2199,-6.2254,-6.2677,-6.278,-6.264,-6.141,-6.1263,0.0,0.0,-5.9515,-5.9184,0.0,-5.8639,-5.7997,0.0,0.0,0.0,-5.7997,0.0,0.0,0.0,-5.829,-5.8345,0.0,0.0,0.0,0.0,0.0,0.0,0.0,0.0,0.0,0.0,0.0,0.0,0.0,0.0,0.0,0.0,0.0,-5.7881,-5.7881,-5.7881,-5.7881,-5.7881,-5.7881,-5.7881,-5.7881,-5.7881,-5.7845,-5.7735,-5.7551,-5.7511,-5.7706,-5.7881,-5.8339,-5.9105,-5.9577,-6.0281,-6.1119,-6.1119,-6.1086,-6.1161,-6.1688,-6.2182,-6.2712,-6.3485,-6.4636,-6.5793,-6.5811,-6.5808,-6.5808,-5.8656,-5.8677,-5.8716,-5.8716,-5.8716,-5.8716,-5.8716,-5.8716,-5.8716,-5.8716,-5.8696,-5.8712,-5.89,-5.8664,-5.8542,-5.869,-5.8404,-5.8197,-5.8174,-5.8065,-5.7997,-5.7997,-5.7997,-5.7997,-5.7997,-5.7997,-5.7997,-5.7997,-5.7997,-5.7997,-5.7997,-5.7997,-5.7997,-5.7997,-5.7997,-5.8088,-5.8272,-5.8909,-5.9667,-6.0364,0.0,-6.0052,-6.0731,-6.152,-6.1722,-6.1704,-6.2511,-6.278,-6.2695,-6.1869,-6.1686,-6.1667,-6.0694,-5.996,0.0,0.0,0.0,0.0,0.0,0.0,0.0,0.0,0.0,-5.7997,0.0,0.0,0.0,0.0,0.0,0.0,0.0,0.0,0.0,0.0,0.0,0.0,0.0,0.0,0.0,0.0,0.0,0.0,0.0,0.0,-5.7881,-5.7881,-5.7881,-5.7881,-5.7881,-5.7881,-5.7881,-5.7881,-5.7881,-5.7881,-5.7881,-5.7698,-5.7514,-5.7348,-5.7718,-5.7908,-5.7935,-5.8681,-5.9641,-6.0686,-6.0984,-6.1085,-6.1111,-6.1119,-6.1094,-6.1227,-6.2464,-6.373,-6.4907,-6.4897,-6.5268,-6.5725,-5.8511,-5.8614,-5.8716,-5.8716,-5.8716,-5.8716,-5.8716,-5.8716,-5.8716,-5.8716,-5.8593,-5.8831,-5.9661,-5.8952,-5.8692,-5.9413,-5.8692,-5.8152,-5.802,-5.7997,-5.7997,-5.7997,-5.7997,-5.7997,-5.7997,-5.7997,-5.7997,-5.7997,-5.7997,-5.7997,-5.7997,-5.7997,-5.7997,-5.7997,-5.7997,-5.84,-5.9056,-5.9148,-5.9667,0.0,-6.108,-6.1374,0.0,-6.2365,-6.2218,-6.1704,-6.2511,-6.278,-6.2695,0.0,-6.2071,-6.2401,0.0,-6.0346,-6.0126,-5.9404,0.0,0.0,0.0,0.0,0.0,0.0,-5.7997,0.0,0.0,0.0,0.0,0.0,0.0,0.0,0.0,0.0,0.0,0.0,0.0,0.0,0.0,0.0,0.0,0.0,0.0,0.0,0.0,0.0,0.0,-5.7881,-5.7881,-5.7881,-5.7881,-5.7881,-5.7881,-5.7881,-5.7881,-5.7881,-5.7881,-5.7698,-5.7571,-5.75,-5.7277,-5.7072,-5.6851,-5.6965,-5.7797,-5.9205,-6.0515,-6.111,-6.1103,-6.1084,-6.1085,-6.1117,-6.1267,-6.1457,-6.1625,-6.1633,-6.3393,-6.5374,-5.8418,-5.8508,-5.8574,-5.8574,-5.8656,-5.8716,-5.8716,-5.8716,-5.8716,-5.8716,-5.8656,-5.8911,-5.9706,-5.8989,-5.8917,-6.0093,-5.938,-5.9035,0.0,-5.8969,-5.8914,-5.9373,-5.8492,-5.8217,-5.8694,-5.8235,-5.7997,-5.7997,-5.7997,-5.7997,-5.7997,-5.7997,-5.7997,-5.8015,-5.8492,-5.8872,-5.9258,-6.0199,-6.0529,0.0,0.0,0.0,0.0,-6.2328,-6.2603,-6.2346,-6.2695,-6.278,-6.2743,0.0,-6.2218,0.0,0.0,0.0,0.0,0.0,0.0,0.0,0.0,0.0,0.0,0.0,0.0,0.0,-5.8107,0.0,-5.7997,0.0,0.0,0.0,0.0,0.0,0.0,0.0,0.0,0.0,0.0,0.0,0.0,0.0,0.0,0.0,0.0,0.0,0.0,0.0,0.0,-5.7256,-5.7256,-5.7662,-5.7881,-5.7881,-5.7881,-5.7881,-5.7881,-5.7808,-5.7681,-5.752,-5.7532,-5.7251,-5.6713,-5.6707,-5.702,-5.7665,-5.827,-5.8535,-5.8621,-5.9477,-5.9816,-5.984,-5.9841,-6.0331,-6.0882,-5.9168,-6.0483,-6.287,-5.8264,-5.84,-5.8511,-5.8511,-5.8614,-5.8716,-5.8716,-5.8716,-5.8716,-5.8716,-5.8656,-5.9004,-5.9955,-5.926,-5.9335,-6.0793,-6.0162,-5.9871,0.0,0.0,-5.9551,-6.0364,-5.9079,-5.8602,-5.9184,-5.8639,-5.8217,-5.7997,-5.7997,-5.7997,-5.7997,-5.7997,-5.7997,-5.8033,-5.8621,-5.9134,-5.9606,-6.0786,-6.119,-6.1117,-6.1686,-6.1575,-6.1172,-6.2126,-6.2622,-6.278,-6.278,-6.278,-6.278,-6.278,-6.242,0.0,-6.2365,0.0,0.0,0.0,0.0,0.0,-5.9373,0.0,0.0,0.0,0.0,0.0,0.0,0.0,0.0,0.0,0.0,0.0,0.0,0.0,0.0,0.0,0.0,0.0,0.0,0.0,0.0,0.0,0.0,0.0,0.0,0.0,0.0,0.0,0.0,0.0,-5.6799,-5.7306,-5.7679,-5.7881,-5.7881,-5.7881,-5.7881,-5.7881,-5.7792,-5.7611,-5.7799,-5.7474,-5.672,-5.6713,-5.6702,-5.6678,-5.6678,-5.6698,-5.6777,-5.7839,-5.8306,-5.8306,-5.8292,-5.8953,-5.9721,-5.8388,-5.8732,-5.9907,-5.802,-5.8272,-5.8511,-5.8511,-5.8614,-5.8716,-5.8716,-5.8716,-5.8716,-5.8716,-5.8593,-5.914,-6.077,-6.0014,-6.0024,-6.1621,0.0,-6.0382,-6.0401,0.0,-5.9551,0.0,0.0,-5.9166,0.0,-5.9166,-5.8786,-5.7997,-5.7997,-5.7997,-5.7997,-5.7997,-5.7997,-5.7997,-5.8033,-5.8896,-6.0364,-6.0419,-6.1337,-6.275,-6.2743,-6.2743,-6.2633,0.0,-6.2126,-6.278,-6.278,0.0,0.0,-6.278,-6.2762,0.0,0.0,0.0,0.0,0.0,0.0,0.0,0.0,0.0,0.0,-6.0181,0.0,0.0,0.0,0.0,-5.7997,0.0,0.0,0.0,0.0,0.0,0.0,0.0,0.0,0.0,0.0,0.0,0.0,0.0,0.0,0.0,0.0,0.0,0.0,0.0,0.0,0.0,-5.6765,-5.6816,-5.7154,-5.7865,-5.7881,-5.7881,-5.7881,-5.7881,-5.7898,-5.7881,-5.7891,-5.7461,-5.6721,-5.6701,-5.6697,-5.6697,-5.6697,-5.6697,-5.6691,-5.6727,-5.6787,-5.6764,-5.6779,-5.6814,-5.7173,-5.9944,-5.9212,-5.6854,-5.7997,-5.8223,-5.844,-5.844,-5.8508,-5.8593,-5.8696,-5.8716,0.0,0.0,-5.9329,0.0,0.0,-6.0817,-6.0895,0.0,0.0,-6.1526,-6.1961,-6.1245,0.0,0.0,0.0,-5.9997,0.0,0.0,0.0,-5.7997,-5.7997,-5.7997,-5.7997,-5.7997,-5.7997,-5.8015,-5.8565,-5.9391,-6.0438,0.0,0.0,0.0,0.0,-6.1686,-6.13,0.0,0.0,-6.278,-6.278,-6.278,0.0,-6.278,-6.278,-6.2743,-6.2493,-6.2034,-6.1539,-6.1263,-6.0823,0.0,0.0,0.0,-6.086,-6.1135,0.0,0.0,0.0,0.0,0.0,0.0,0.0,0.0,0.0,0.0,0.0,0.0,0.0,0.0,0.0,0.0,0.0,0.0,0.0,0.0,0.0,0.0,0.0,0.0,0.0,0.0,0.0,-5.6545,-5.7137,-5.7865,-5.7881,-5.7881,-5.7881,-5.7881,-5.7881,-5.7898,-5.7901,-5.7473,-5.6705,-5.6716,-5.6713,-5.668,-5.668,-5.668,-5.6697,-5.6685,-5.6718,-5.6679,-5.6723,-5.6701,-5.68,-5.7816,-5.7566,-5.6685,-5.7997,-5.8152,-5.8305,-5.8371,-5.8486,-5.8614,0.0,0.0,0.0,0.0,-5.9789,0.0,-6.1277,0.0,-6.1608,0.0,-6.2402,-6.2328,-6.2768,-6.2053,0.0,-6.2743,-6.1539,0.0,0.0,0.0,0.0,0.0,-5.8143,-5.7997,-5.7997,-5.7997,-5.7997,-5.8015,-5.8547,-5.9226,-6.0034,-6.0823,-6.1337,0.0,0.0,-6.1282,0.0,0.0,-6.2383,-6.242,0.0,-6.278,-6.278,-6.278,-6.278,-6.278,-6.278,-6.2456,-6.2034,-6.2034,-6.1667,-6.1374,-6.1887,-6.1814,0.0,-6.1961,-6.1208,0.0,-6.0126,0.0,0.0,0.0,0.0,0.0,0.0,0.0,0.0,0.0,0.0,0.0,0.0,0.0,0.0,0.0,0.0,0.0,0.0,0.0,0.0,0.0,0.0,0.0,0.0,0.0,-5.6679,-5.7848,-5.7881,-5.7881,-5.7881,-5.7881,-5.7881,-5.7881,-5.7887,-5.7547,-5.6892,-5.6754,-5.6701,-5.668,-5.668,-5.668,-5.668,-5.668,-5.668,-5.668,-5.668,-5.668,-5.6697,-5.669,-5.6701,-5.6723,-5.7997,-5.7997,-5.8088,-5.8349,-5.8548,0.0,0.0,0.0,-5.9526,0.0,-5.9974,-6.0926,-6.0687,-6.1382,-6.2126,-6.275,-6.278,-6.278,-6.278,-6.2089,0.0,0.0,-6.2071,-6.163,-6.1594,0.0,0.0,0.0,0.0,-5.7997,-5.7997,-5.7997,-5.7997,-5.7997,-5.7997,-5.8455,-5.9239,-6.0034,-6.0823,-6.1594,-6.163,-6.163,-6.1594,-6.163,-6.163,-6.1704,-6.2511,-6.278,-6.278,-6.278,-6.278,-6.278,-6.278,-6.278,-6.278,-6.278,-6.278,-6.278,-6.278,-6.2236,-6.1832,-6.2622,0.0,0.0,0.0,0.0,-6.0377,0.0,0.0,0.0,0.0,0.0,0.0,0.0,0.0,0.0,0.0,0.0,0.0,0.0,0.0,0.0,0.0,0.0,0.0,0.0,0.0,0.0,0.0,0.0,-5.5812,-5.7763,-5.7865,-5.7881,-5.7881,-5.7881,-5.7881,-5.7881,-5.7924,-5.7685,-5.7327,-5.6913,-5.6701,-5.6735,-5.6735,-5.668,-5.668,-5.668,-5.668,-5.668,-5.668,-5.668,-5.668,-5.668,-5.668,-5.668,-5.7997,-5.8065,-5.8197,0.0,-5.8437,-5.8483,0.0,0.0,0.0,0.0,-6.0379,-6.1233,-6.1466,-6.2433,-6.2988,-6.2812,-6.278,0.0,0.0,0.0,0.0,-6.278,-6.2603,-6.2218,-6.1612,-6.0805,0.0,-5.9184,0.0,-5.7997,-5.7997,-5.7997,-5.7997,-5.7997,-5.7997,-5.8455,-5.9203,-5.9404,-6.0327,-6.1649,-6.2254,-6.2126,0.0,0.0,-6.2126,-6.1704,-6.2511,-6.278,-6.278,-6.278,-6.278,-6.278,-6.278,-6.278,-6.278,-6.278,-6.278,-6.278,-6.278,-6.2658,-6.2548,-6.2743,-6.1953,-6.1208,0.0,0.0,0.0,0.0,0.0,0.0,0.0,0.0,0.0,0.0,0.0,0.0,0.0,0.0,0.0,0.0,0.0,0.0,0.0,0.0,0.0,0.0,0.0,0.0,0.0,0.0,0.0,-5.6761,-5.7526,-5.7881,-5.7881,-5.7881,-5.7881,-5.7881,-5.7896,-5.7836,-5.7739,-5.7222,-5.7017,-5.6999,-5.6774,-5.668,-5.668,-5.668,-5.668,-5.668,-5.668,-5.668,-5.668,-5.668,-5.668,-5.668,-5.7997,-5.8065,0.0,-5.8305,0.0,0.0,-5.8968,-5.9294,0.0,-6.0141,-6.1252,0.0,-6.1811,-6.263,-6.3086,-6.283,-6.278,0.0,-6.278,0.0,0.0,-6.278,-6.278,-6.2603,-6.2126,-6.1337,0.0,-5.9722,0.0,-5.8345,-5.7997,-5.7997,-5.7997,-5.7997,-5.7997,-5.8253,-5.8731,-5.9446,-6.0254,-6.1153,-6.1961,0.0,0.0,-6.2108,-6.2218,-6.2181,-6.2658,-6.278,-6.278,-6.278,-6.278,-6.278,-6.278,-6.278,-6.278,-6.278,-6.278,-6.278,-6.278,-6.278,-6.278,-6.278,-6.2375,-6.1926,-6.1926,-6.1452,-6.1065,0.0,0.0,0.0,0.0,0.0,0.0,0.0,0.0,0.0,0.0,0.0,0.0,0.0,0.0,0.0,0.0,0.0,0.0,0.0,0.0,0.0,0.0,0.0,0.0,-5.6063,-5.7292,-5.7497,-5.6609,-5.7439,-5.7729,-5.7408,-5.7746,-5.7859,-5.7742,-5.7564,-5.7273,-5.6937,-5.6889,-5.6812,-5.668,-5.668,-5.668,-5.668,-5.668,-5.668,-5.668,-5.668,-5.668,-5.668,-5.7997,-5.7997,0.0,0.0,0.0,0.0,0.0,-6.0377,0.0,-6.0929,0.0,-6.2627,-6.1879,-6.2451,-6.288,-6.2823,0.0,-6.278,-6.278,-6.278,-6.278,-6.278,-6.278,-6.278,-6.278,-6.2016,-6.1208,0.0,0.0,-5.8804,-5.7997,-5.7997,-5.7997,-5.7997,-5.7997,0.0,0.0,-5.9758,-6.0456,-6.0639,-6.1429,-6.1759,-6.1759,-6.1759,-6.2199,-6.278,-6.278,-6.278,-6.278,-6.278,-6.278,-6.278,-6.278,-6.278,-6.278,-6.278,-6.278,-6.278,-6.278,-6.278,-6.2798,-6.278,-6.2679,-6.2578,-6.2552,-6.2423,-6.2336,-6.2362,-6.1798,-6.1217,0.0,0.0,0.0,0.0,0.0,0.0,0.0,0.0,0.0,0.0,0.0,0.0,0.0,0.0,0.0,0.0,0.0,0.0,0.0,0.0,0.0,0.0,-5.6835,0.0,-5.51,0.0,-5.7577,-5.6951,-5.7577,-5.7808,-5.7625,-5.7796,-5.7452,-5.6804,-5.7008,-5.6944,-5.668,-5.668,-5.668,-5.668,-5.668,-5.668,-5.668,-5.668,-5.668,-5.668,-5.7997,0.0,0.0,0.0,0.0,-5.8938,-6.126,-6.0393,-5.9808,-6.0724,-6.1771,-6.2266,-6.1848,-6.2729,-6.321,-6.283,-6.278,0.0,0.0,0.0,0.0,-6.278,-6.278,-6.278,-6.278,-6.2016,-6.1208,0.0,0.0,0.0,-5.7997,-5.7997,-5.7997,-5.7997,-5.7997,0.0,-5.9038,-6.0015,0.0,-6.1465,-6.2273,-6.2603,-6.2603,-6.2603,-6.2695,-6.278,-6.278,-6.278,-6.278,-6.278,-6.278,-6.278,-6.278,-6.278,-6.278,-6.278,-6.278,-6.278,-6.278,-6.278,-6.2755,-6.2654,-6.2526,-6.2415,-6.231,-6.2168,-6.2114,-6.2203,-6.2014,-6.1543,-6.0538,0.0,0.0,0.0,0.0,0.0,0.0,0.0,0.0,0.0,0.0,0.0,0.0,0.0,0.0,0.0,0.0,0.0,0.0,0.0,0.0,0.0,0.0,0.0,0.0,0.0,-5.7831,-5.7695,-5.7831,-5.7881,-5.7845,-5.7715,-5.7493,-5.7181,-5.7063,-5.6889,-5.668,-5.668,-5.668,-5.668,-5.668,-5.668,-5.668,-5.668,-5.668,-5.668,-5.7997,0.0,0.0,0.0,0.0,0.0,0.0,-6.0908,0.0,-6.2008,-6.2387,-6.2514,-6.2413,-6.2841,-6.3056,-6.2805,-6.278,-6.278,-6.278,-6.278,-6.278,-6.278,-6.278,0.0,-6.278,-6.242,-6.163,-6.0401,0.0,0.0,-5.7997,-5.7997,-5.7997,-5.8015,0.0,-5.8859,0.0,0.0,0.0,-6.1667,-6.2493,-6.2755,-6.2705,-6.2705,-6.2654,-6.2603,-6.2679,-6.2705,-6.2705,-6.2798,-6.278,-6.278,-6.278,-6.278,-6.278,-6.278,-6.278,-6.278,-6.278,-6.278,-6.278,-6.2705,-6.2552,-6.2389,-6.231,-6.2141,-6.2023,-6.2087,-6.2033,-6.1468,-5.9781,-5.8003,0.0,0.0,0.0,0.0,0.0,0.0,0.0,0.0,0.0,0.0,0.0,0.0,0.0,0.0,0.0,0.0,0.0,0.0,0.0,0.0,0.0,0.0,0.0,0.0,0.0,-5.6765,-5.7526,-5.7881,-5.7898,-5.7808,-5.7662,-5.7439,-5.7252,-5.7025,-5.6834,-5.6719,-5.668,-5.668,-5.668,-5.668,-5.668,-5.668,-5.668,-5.668,0.0,-5.841,0.0,0.0,-5.9171,0.0,-6.0977,-6.1523,-6.2153,-6.3178,-6.3002,-6.283,-6.2953,-6.2855,-6.278,-6.278,-6.278,-6.278,-6.278,-6.278,-6.278,-6.278,-6.278,-6.278,-6.278,-6.278,-6.2108,0.0,0.0,0.0,0.0,-5.7997,0.0,0.0,0.0,0.0,0.0,0.0,-6.1686,-6.1906,-6.2498,-6.2705,-6.2603,-6.2578,-6.2475,-6.2415,-6.2552,-6.2603,-6.2629,-6.2755,-6.278,-6.278,-6.278,-6.278,-6.278,-6.278,-6.278,-6.278,-6.278,-6.278,-6.2798,-6.273,-6.257,-6.2389,-6.231,-6.2141,-6.1996,-6.1996,-6.1766,-6.1013,-5.9155,-5.8141,0.0,0.0,0.0,0.0,0.0,0.0,0.0,0.0,0.0,0.0,0.0,0.0,0.0,0.0,0.0,-5.3568,-5.3719,-5.3602,0.0,0.0,0.0,-5.526,-5.4837,0.0,-5.7154,0.0,-5.734,-5.7881,-5.7881,-5.7881,-5.7772,-5.7588,-5.7439,-5.7214,-5.6987,-5.6796,-5.668,-5.668,-5.668,-5.668,-5.668,-5.668,-5.668,-5.668,0.0,0.0,0.0,0.0,0.0,0.0,-6.1974,-6.1994,-6.21,-6.2916,-6.2904,-6.2805,-6.2823,-6.2823,-6.278,-6.278,-6.278,-6.278,-6.278,-6.278,-6.278,-6.278,-6.278,-6.278,-6.278,-6.278,-6.2383,0.0,0.0,0.0,0.0,0.0,0.0,0.0,0.0,0.0,0.0,-6.1539,-6.2016,-6.267,-6.2643,-6.2629,-6.2603,-6.2467,-6.2415,-6.2415,-6.2552,-6.2603,-6.2629,-6.2755,-6.278,-6.278,-6.278,-6.278,-6.278,-6.278,-6.278,-6.278,-6.278,-6.278,-6.273,-6.2493,-6.2415,-6.2336,-6.2087,-6.2023,-6.1996,-6.1996,-6.1034,-5.9899,-5.9059,-5.7808,-5.6616,0.0,0.0,0.0,0.0,0.0,0.0,0.0,0.0,0.0,0.0,0.0,0.0,0.0,0.0,-5.3805,-5.4482,-5.3873,-5.3856,-5.4617,0.0,-5.4989,-5.5598,-5.6478,0.0,-5.7695,-5.7814,-5.7881,-5.7881,-5.7881,-5.7772,-5.7588,-5.7588,-5.7364,-5.6987,-5.6796,-5.668,-5.668,-5.668,-5.668,-5.668,-5.668,-5.668,-5.668,0.0,0.0,0.0,0.0,0.0,0.0,0.0,-6.2647,-6.2712,-6.322,-6.3008,-6.278,-6.278,-6.278,-6.278,-6.278,-6.278,-6.278,-6.278,-6.278,-6.278,-6.278,-6.278,-6.278,-6.278,-6.278,-6.242,0.0,0.0,0.0,0.0,0.0,0.0,0.0,0.0,-6.094,-6.1507,-6.2077,-6.2412,-6.257,-6.2603,-6.25,-6.2344,-6.231,-6.223,-6.2195,-6.2291,-6.2344,-6.2397,-6.2603,-6.273,-6.278,-6.278,-6.278,-6.278,-6.278,-6.278,-6.278,-6.278,-6.273,-6.2654,-6.2552,-6.2397,-6.2257,-6.215,-6.206,-6.1996,-6.1996,-6.0927,-5.9774,-5.9028,-5.8113,-5.7359,0.0,0.0,0.0,0.0,0.0,0.0,0.0,0.0,0.0,0.0,0.0,0.0,0.0,0.0,0.0,-5.3923,-5.4076,0.0,-5.5243,0.0,-5.5615,-5.6359,-5.6664,-5.6951,-5.7239,-5.7679,-5.7881,-5.7881,-5.7881,-5.7735,-5.7439,-5.7439,-5.7176,-5.6796,-5.6719,-5.668,-5.668,-5.668,-5.668,-5.668,-5.668,-5.668,-5.668,-6.25,0.0,-6.2293,0.0,-6.248,-6.2629,-6.2814,-6.2903,-6.3032,-6.3257,-6.3008,-6.278,-6.278,-6.278,-6.278,-6.278,-6.278,-6.278,-6.278,-6.278,-6.278,-6.278,-6.278,0.0,-6.278,-6.278,-6.253,-6.1942,-6.1153,0.0,0.0,0.0,0.0,0.0,-6.1306,-6.1617,-6.1798,-6.2416,-6.2552,-6.2415,-6.2449,-6.237,-6.2203,-6.215,-6.2087,-6.2023,-6.215,-6.2203,-6.2257,-6.25,-6.2629,-6.2698,-6.2773,-6.278,-6.278,-6.278,-6.278,-6.278,-6.278,-6.2705,-6.2603,-6.2552,-6.237,-6.2203,-6.215,-6.206,-6.1895,-6.1505,-6.0638,-5.9709,-5.8772,-5.8244,-5.7799,-5.7518,0.0,0.0,0.0,0.0,0.0,0.0,-5.4834,-5.5375,-5.5171,0.0,0.0,0.0,0.0,0.0,0.0,0.0,0.0,0.0,0.0,0.0,0.0,-5.6478,-5.6697,-5.712,-5.7645,-5.7881,-5.7881,-5.7881,-5.7698,-5.7402,-5.7327,-5.7101,-5.6796,-5.6719,-5.668,-5.668,-5.668,-5.668,-5.668,-5.668,-5.668,-5.668,-6.4273,-6.3783,-6.3181,-6.3182,-6.2813,-6.2433,-6.2242,-6.2551,-6.2805,-6.2805,-6.2805,-6.278,-6.278,-6.278,-6.278,-6.278,-6.278,-6.278,-6.278,-6.278,-6.278,0.0,0.0,-6.278,-6.278,-6.278,-6.278,-6.2805,0.0,0.0,-6.0382,0.0,-6.0052,-6.1575,-6.1446,-6.1853,-6.2585,-6.2467,-6.2415,-6.2389,-6.2257,-6.2203,-6.2177,-6.206,-6.1996,-6.2023,-6.215,-6.2203,-6.2257,-6.25,-6.25,-6.2441,-6.2723,-6.278,-6.278,-6.278,-6.278,-6.278,-6.278,-6.2705,-6.2578,-6.2441,-6.231,-6.2177,-6.2033,-6.1996,-6.1636,-6.0299,-5.9998,-5.9578,-5.819,-5.7935,-5.7577,-5.6592,0.0,0.0,0.0,0.0,0.0,0.0,-5.4885,-5.5102,-5.5631,0.0,0.0,0.0,0.0,0.0,0.0,0.0,0.0,-5.4583,-5.3907,0.0,-5.5681,-5.5698,-5.6444,-5.7881,-5.7881,-5.7881,-5.7881,-5.7881,-5.7772,-5.7588,-5.7402,-5.7176,-5.6987,-5.6796,-5.668,-5.668,-5.668,-5.668,-5.668,-5.668,-5.668,-5.668,-6.525,-6.5182,-6.4936,-6.4856,-6.4444,-6.4105,-6.3974,-6.3804,-6.3677,-6.3677,-6.3677,-6.3677,-6.3677,-6.3427,-6.328,0.0,-6.352,-6.3565,0.0,-6.328,-6.3134,-6.2805,-6.278,-6.278,-6.278,-6.278,-6.278,-6.278,0.0,0.0,0.0,-6.152,-6.1918,-6.2395,-6.227,-6.2314,-6.2467,-6.2415,-6.2283,-6.2141,-6.2177,-6.215,-6.206,-6.2023,-6.1996,-6.2023,-6.206,-6.206,-6.2087,-6.2283,-6.231,-6.231,-6.2578,-6.2654,-6.2679,-6.2755,-6.278,-6.278,-6.2679,-6.2552,-6.2423,-6.231,-6.215,-6.206,-6.2023,-6.1996,-6.1608,-6.0299,-5.9998,-5.9578,-5.8154,-5.7881,-5.7799,-5.7484,-5.7686,0.0,0.0,0.0,0.0,0.0,-5.5632,-5.5697,0.0,-5.5784,0.0,0.0,0.0,0.0,0.0,0.0,0.0,0.0,-5.5869,0.0,-5.7188,-5.6714,-5.6934,-5.7881,-5.7881,-5.7881,-5.7881,-5.7881,-5.7772,-5.7588,-5.7402,-5.7176,-5.6987,-5.6796,-5.668,-5.668,-5.668,-5.668,-5.668,-5.668,-5.668,-5.668,-6.5718,-6.5787,-6.5627,-6.5382,-6.5063,-6.4738,-6.4369,-6.4195,-6.4055,-6.389,-6.4014,-6.4096,-6.4096,-6.4014,0.0,-6.3739,-6.3952,-6.3994,-6.3739,-6.3583,-6.3372,-6.3062,-6.2886,-6.278,-6.278,0.0,0.0,-6.278,-6.231,-6.2053,-6.2053,-6.2567,-6.2755,-6.2705,-6.2578,-6.2449,-6.231,-6.2257,-6.2141,-6.2023,-6.2087,-6.2087,-6.1996,-6.1996,-6.1996,-6.1996,-6.1996,-6.1996,-6.2005,-6.215,-6.2177,-6.2177,-6.2423,-6.25,-6.2475,-6.2679,-6.273,-6.2705,-6.2552,-6.2441,-6.231,-6.223,-6.2114,-6.1996,-6.1996,-6.1794,-6.135,-6.0427,-5.9946,-5.9367,-5.8135,-5.7881,-5.7884,-5.7891,-5.7887,-5.7768,-5.737,0.0,0.0,0.0,0.0,0.0,0.0,-5.6393,0.0,0.0,0.0,0.0,0.0,0.0,0.0,-5.6376,-5.6393,0.0,-5.7476,-5.7036,-5.7171,-5.7881,-5.7881,-5.7881,-5.7881,-5.7881,-5.7772,-5.7588,-5.7402,-5.7176,-5.6987,-5.6796,-5.668,-5.668,-5.668,-5.668,-5.668,-5.668,-5.668,-5.668,-6.578,-6.5688,0.0,0.0,-6.4879,0.0,-6.3715,-6.3932,-6.4055,-6.3649,-6.3932,-6.4195,-6.4195,-6.4594,-6.4686,-6.4234,0.0,0.0,0.0,-6.3803,-6.3561,-6.3513,-6.3086,-6.283,-6.278,-6.278,-6.278,-6.278,-6.278,-6.278,-6.278,-6.278,-6.273,-6.2603,-6.2467,-6.2336,-6.2203,-6.206,-6.1996,-6.1996,-6.1996,-6.1996,-6.1996,-6.1996,-6.1996,-6.1996,-6.1996,-6.1996,-6.2005,-6.215,-6.2096,-6.2051,-6.231,-6.231,-6.2257,-6.25,-6.2603,-6.2552,-6.2415,-6.231,-6.2203,-6.2203,-6.2087,-6.1996,-6.1996,-6.1533,-6.0986,-6.0674,-5.9945,-5.903,-5.808,-5.7881,-5.7881,-5.7881,-5.7881,-5.756,-5.6523,0.0,0.0,0.0,0.0,0.0,0.0,-5.6884,-5.6867,0.0,0.0,0.0,0.0,0.0,-5.5869,-5.5869,-5.5869,-5.619,-5.6867,-5.6884,-5.7222,-5.7881,-5.7881,-5.7881,-5.7881,-5.7881,-5.7808,-5.7625,-5.7402,-5.7176,-5.6987,-5.6796,-5.668,-5.668,-5.668,-5.668,-5.668,-5.668,-5.668,-5.668,0.0,0.0,-6.5494,-6.5386,-6.5295,-6.5085,-6.4576,-6.4827,-6.4949,-6.4539,-6.4845,-6.5101,-6.5101,-6.5185,-6.5201,-6.5101,-6.5101,-6.4966,-6.4649,-6.4539,-6.4194,-6.3535,-6.3377,-6.3181,-6.2805,-6.278,-6.278,-6.278,-6.278,-6.278,-6.278,-6.278,-6.273,-6.2603,-6.2467,-6.2336,-6.2203,-6.206,-6.1996,-6.1996,-6.1996,-6.1996,-6.1996,-6.1996,-6.1996,-6.1996,-6.1996,-6.1996,-6.1978,-6.2033,-6.2051,-6.2051,-6.2203,-6.223,-6.223,-6.2415,-6.2441,-6.2415,-6.2283,-6.223,-6.2177,-6.2087,-6.2005,-6.1996,-6.1996,-6.1895,-6.1537,-6.0737,-6.0198,-5.945,-5.8118,-5.7881,-5.7881,-5.7881,-5.7881,-5.756,-5.6523,-5.678,0.0,0.0,-5.6697,-5.7019,-5.7577,-5.7628,-5.7408,0.0,0.0,0.0,0.0,-5.6867,-5.7374,-5.7374,-5.7374,-5.7459,-5.7628,-5.7628,-5.7729,-5.7881,-5.7881,-5.7881,-5.7881,-5.7881,-5.7881,-5.7808,-5.7439,-5.7289,-5.7214,-5.6834,-5.668,-5.668,-5.668,-5.668,-5.668,-5.668,-5.668,-5.668,-6.5646,-6.5571,-6.5494,-6.545,-6.5425,-6.5267,-6.4863,-6.5153,-6.5267,-6.4846,-6.5153,-6.5394,-6.5394,-6.5394,-6.5394,-6.5394,-6.5394,-6.5298,-6.5085,-6.4898,-6.4502,-6.3803,-6.3605,-6.328,-6.2805,-6.278,-6.278,-6.278,-6.278,-6.278,-6.278,-6.278,-6.2698,-6.25,-6.2441,-6.2283,-6.2096,-6.2033,-6.1996,-6.1996,-6.1996,-6.1996,-6.1996,-6.1996,-6.1996,-6.1996,-6.1996,-6.1996,-6.1996,-6.1996,-6.1996,-6.2005,-6.2087,-6.2114,-6.2141,-6.2195,-6.2257,-6.2283,-6.2168,-6.2114,-6.2087,-6.2023,-6.1996,-6.1996,-6.1996,-6.1659,-6.1159,-6.0452,-5.9635,-5.8806,-5.8046,-5.7881,-5.7881,-5.7881,-5.749,-5.7084,-5.6626,-5.6696,0.0,-5.6799,-5.7103,-5.7459,-5.7848,-5.7881,-5.7729,-5.7323,0.0,0.0,-5.6731,-5.7154,-5.7391,-5.7391,-5.7712,-5.7881,-5.7881,-5.7881,-5.7881,-5.7881,-5.7881,-5.7881,-5.7881,-5.7881,-5.7881,-5.7881,-5.7476,-5.7289,-5.7289,-5.6872,-5.668,-5.668,-5.668,-5.668,-5.668,-5.668,-5.668,-5.668,-6.5494,-6.5494,-6.5484,-6.5409,-6.5394,-6.5283,-6.4932,-6.5185,-6.5283,-6.4951,-6.5185,-6.5394,-6.5394,-6.5394,-6.5394,-6.5394,-6.5394,-6.5394,-6.5394,-6.5068,-6.4704,-6.4234,-6.3803,-6.3377,-6.2929,-6.283,-6.278,-6.278,-6.278,-6.278,-6.278,-6.278,-6.2672,-6.2389,-6.2389,-6.223,-6.1996,-6.1996,-6.1996,-6.1996,-6.1996,-6.1996,-6.1996,-6.1996,-6.1996,-6.1996,-6.1996,-6.1996,-6.1996,-6.1996,-6.1996,-6.1996,-6.1996,-6.1996,-6.1996,-6.1996,-6.2087,-6.215,-6.2033,-6.1996,-6.1996,-6.1996,-6.1996,-6.1978,-6.1868,-6.1147,-6.0403,-5.999,-5.8823,-5.7889,-5.7901,-5.7881,-5.7848,-5.7746,-5.7034,-5.6491,-5.663,0.0,-5.6799,-5.6799,-5.7442,-5.7881,-5.7881,-5.7881,-5.7881,-5.7881,-5.7306,-5.7188,0.0,-5.7239,-5.6917,-5.6799,-5.7509,-5.7881,-5.7881,-5.7881,-5.7881,-5.7881,-5.7881,-5.7881,-5.7881,-5.7881,-5.7881,-5.7881,-5.7514,-5.7327,-5.7289,-5.6911,-5.6719,-5.668,-5.668,-5.668,-5.668,-5.668,-5.668,-5.668,-6.5479,-6.545,-6.5409,-6.5394,-6.5394,-6.5379,-6.5333,-6.5364,-6.5379,-6.5333,-6.5364,-6.5394,-6.5394,-6.5394,-6.5394,-6.5394,-6.5394,-6.5394,-6.5394,-6.5349,-6.5117,-6.4721,-6.4254,-6.3806,-6.34,-6.3008,-6.278,-6.278,-6.278,-6.278,-6.278,-6.278,-6.2672,-6.2389,-6.2389,-6.223,-6.1996,-6.1996,-6.1996,-6.1996,-6.1996,-6.1996,-6.1996,-6.1996,-6.1996,-6.1996,-6.1996,-6.1996,-6.1996,-6.1996,-6.1996,-6.1996,-6.1996,-6.1996,-6.1996,-6.1996,-6.2005,-6.2051,-6.2023,-6.1996,-6.1996,-6.1996,-6.1996,-6.185,-6.1268,-6.0588,-5.9946,-5.9502,-5.8599,-5.7893,-5.7906,-5.7881,-5.7695,-5.707,-5.685,-5.651,-5.597,0.0,-5.6799,-5.6799,-5.7442,-5.7881,-5.7881,-5.7881,-5.7881,-5.7881,-5.778,-5.7509,-5.7002,-5.7442,-5.7442,-5.6816,-5.7509,-5.7881,-5.7881,-5.7881,-5.7881,-5.7881,-5.7881,-5.7881,-5.7881,-5.7881,-5.7881,-5.7881,-5.7662,-5.7476,-5.7289,-5.7063,-5.6834,-5.668,-5.668,-5.668,-5.668,-5.668,-5.668,-5.668,-6.544,-6.5425,-6.5394,-6.5394,-6.5394,-6.5394,-6.5394,-6.5394,-6.5394,-6.5394,-6.5394,-6.5394,-6.5394,-6.5394,-6.5394,-6.5394,-6.5394,-6.5394,-6.5394,-6.5394,-6.5217,-6.4829,-6.4594,-6.4174,-6.3513,-6.3038,-6.278,-6.278,-6.278,-6.278,-6.278,-6.278,-6.2672,-6.2389,-6.2389,-6.223,-6.1996,-6.1996,-6.1996,-6.1996,-6.1996,-6.1996,-6.1996,-6.1996,-6.1996,-6.1996,-6.1996,-6.1996,-6.1996,-6.1996,-6.1996,-6.1996,-6.1996,-6.1996,-6.1996,-6.1996,-6.1996,-6.1996,-6.1996,-6.1996,-6.1996,-6.1996,-6.1996,-6.175,-6.0699,-6.004,-5.9415,-5.8682,-5.8186,-5.7919,-5.7903,-5.7881,-5.7645,-5.6917,-5.6799,0.0,0.0,-5.6342,-5.6799,-5.6799,-5.7442,-5.7881,-5.7881,-5.7881,-5.7881,-5.7881,-5.7881,-5.7746,-5.7408,-5.7712,-5.7729,-5.7391,-5.7712,-5.7881,-5.7881,-5.7881,-5.7881,-5.7881,-5.7881,-5.7881,-5.7881,-5.7881,-5.7881,-5.7881,-5.7698,-5.7476,-5.7289,-5.7101,-5.6872,-5.668,-5.668,-5.668,-5.668,-5.668,-5.668,-5.668,-6.5394,-6.5394,-6.5394,-6.5394,-6.5394,-6.5394,-6.5394,-6.5394,-6.5394,-6.5394,-6.5394,-6.5394,-6.5394,-6.5394,-6.5394,-6.5394,-6.5394,-6.5394,-6.5394,-6.5394,-6.5267,-6.4949,-6.4739,-6.4273,-6.3513,-6.3038,-6.278,-6.278,-6.278,-6.278,-6.278,-6.278,-6.2672,-6.2389,-6.2389,-6.223,-6.1996,-6.1996,-6.1996,-6.1996,-6.1996,-6.1996,-6.1996,-6.1996,-6.1996,-6.1996,-6.1996,-6.1996,-6.1996,-6.1996,-6.1996,-6.1996,-6.1996,-6.1996,-6.1996,-6.1996,-6.1996,-6.1996,-6.1996,-6.1996,-6.1996,-6.1996,-6.1996,-6.1658,-6.0303,-5.9637,-5.9035,-5.8084,-5.7884,-5.7881,-5.7881,-5.7881,-5.7645,-5.6917,0.0,0.0,0.0,-5.6444,-5.6867,-5.7036,-5.7543,-5.7881,-5.7881,-5.7881,-5.7881,-5.7881,-5.7881,-5.7881,-5.7881,-5.7881,-5.7881,-5.7881,-5.7881,-5.7881,-5.7881,-5.7881,-5.7881,-5.7881,-5.7881,-5.7881,-5.7881,-5.7881,-5.7881,-5.7881,-5.7698,-5.7476,-5.7289,-5.7101,-5.6872,-5.668,-5.668,-5.668,-5.668,-5.668,-5.668,-5.668,-6.5394,-6.5394,-6.5394,-6.5394,-6.5394,-6.5394,-6.5394,-6.5394,-6.5394,-6.5394,-6.5394,-6.5394,-6.5394,-6.5394,-6.5394,-6.5394,-6.5394,-6.5394,-6.5394,-6.5394,-6.5379,-6.5364,-6.4575,-6.3952,-6.3513,-6.3038,-6.278,-6.278,-6.278,-6.278,-6.278,-6.278,-6.2672,-6.2389,-6.2389,-6.223,-6.1996,-6.1996,-6.1996,-6.1996,-6.1996,-6.1996,-6.1996,-6.1996,-6.1996,-6.1996,-6.1996,-6.1996,-6.1996,-6.1996,-6.1996,-6.1996,-6.1996,-6.1996,-6.1996,-6.1996,-6.1996,-6.1996,-6.1996,-6.1996,-6.1996,-6.1996,-6.1996,-6.1664,-6.0309,-5.9619,-5.9027,-5.8089,-5.7901,-5.7881,-5.7881,-5.7881,-5.7645,-5.6917,0.0,0.0,-5.6731,-5.6765,-5.7053,-5.7729,-5.7865,-5.7881,-5.7881,-5.7881,-5.7881,-5.7881,-5.7881,-5.7881,-5.7881,-5.7881,-5.7881,-5.7881,-5.7881,-5.7881,-5.7881,-5.7881,-5.7881,-5.7881,-5.7881,-5.7881,-5.7881,-5.7881,-5.7881,-5.7881,-5.7698,-5.7476,-5.7289,-5.7101,-5.6872,-5.668,-5.668,-5.668,-5.668,-5.668,-5.668,-5.668,-6.5394,-6.5394,-6.5394,-6.5394,-6.5394,-6.5394,-6.5394,-6.5394,-6.5394,-6.5394,-6.5394,-6.5394,-6.5394,-6.5394,-6.5394,-6.5394,-6.5394,-6.5394,-6.5394,-6.5394,-6.5394,-6.5394,-6.4556,-6.4034,-6.3869,-6.3163,-6.278,-6.278,-6.278,-6.278,-6.278,-6.278,-6.2672,-6.2389,-6.2389,-6.223,-6.1996,-6.1996,-6.1996,-6.1996,-6.1996,-6.1996,-6.1996,-6.1996,-6.1996,-6.1996,-6.1996,-6.1996,-6.1996,-6.1996,-6.1996,-6.1996,-6.1996,-6.1996,-6.1996,-6.1996,-6.1996,-6.1996,-6.1996,-6.1996,-6.1996,-6.1996,-6.1996,-6.1712,-6.0629,-6.0039,-5.9502,-5.8686,-5.8209,-5.7881,-5.7881,-5.7881,-5.7645,-5.6917,0.0,-5.7306,-5.6867,-5.7188,-5.7577,-5.7865,-5.7881,-5.7881,-5.7881,-5.7881,-5.7881,-5.7881,-5.7881,-5.7881,-5.7881,-5.7881,-5.7881,-5.7881,-5.7881,-5.7881,-5.7881,-5.7881,-5.7881,-5.7881,-5.7881,-5.7881,-5.7881,-5.7881,-5.7845,-5.7698,-5.7625,-5.7402,-5.7101,-5.7025,-5.6872,-5.668,-5.668,-5.668,-5.668,-5.668,-5.668,-5.668,-6.5394,-6.5394,-6.5394,-6.5394,-6.5394,-6.5394,-6.5394,-6.5394,-6.5394,-6.5394,-6.5394,-6.5394,-6.5394,-6.5394,-6.5394,-6.5394,-6.5394,-6.5394,-6.5394,-6.5394,-6.5394,-6.5394,-6.4703,-6.4254,-6.4096,-6.3381,-6.2935,-6.278,-6.278,-6.278,-6.278,-6.2755,-6.2622,-6.2389,-6.2362,-6.2203,-6.1996,-6.1996,-6.1996,-6.1996,-6.1996,-6.1996,-6.1996,-6.1996,-6.1996,-6.1996,-6.1996,-6.1996,-6.1996,-6.1996,-6.1996,-6.1996,-6.1996,-6.1996,-6.1996,-6.1996,-6.1996,-6.1996,-6.1996,-6.1996,-6.1996,-6.1996,-6.1996,-6.1786,-6.0907,-6.0331,-5.9806,-5.9062,-5.8369,-5.7881,-5.7881,-5.7881,-5.7729,-5.7222,-5.756,-5.7712,-5.7222,-5.7577,-5.7881,-5.7881,-5.7881,-5.7881,-5.7881,-5.7881,-5.7881,-5.7881,-5.7881,-5.7881,-5.7881,-5.7881,-5.7881,-5.7881,-5.7881,-5.7881,-5.7881,-5.7881,-5.7881,-5.7881,-5.7881,-5.7881,-5.7881,-5.7845,-5.7735,-5.7588,-5.7476,-5.7252,-5.6987,-5.6949,-5.6834,-5.668,-5.668,-5.668,-5.668,-5.668,-5.668,-5.668,-6.5394,-6.5394,-6.5394,-6.5394,-6.5394,-6.5394,-6.5394,-6.5394,-6.5394,-6.5394,-6.5394,-6.5394,-6.5394,-6.5394,-6.5394,-6.5394,-6.5394,-6.5394,-6.5394,-6.5394,-6.5394,-6.5394,-6.5019,-6.4576,-6.4115,-6.3715,-6.328,-6.278,-6.278,-6.278,-6.2798,-6.2654,-6.2526,-6.2389,-6.2257,-6.2141,-6.1996,-6.1996,-6.1996,-6.1996,-6.1996,-6.1996,-6.1996,-6.1996,-6.1996,-6.1996,-6.1996,-6.1996,-6.1996,-6.1996,-6.1996,-6.1996,-6.1996,-6.1996,-6.1996,-6.1996,-6.1996,-6.1996,-6.1996,-6.1996,-6.1996,-6.1996,-6.1996,-6.1822,-6.1163,-6.0485,-5.9806,-5.9062,-5.8352,-5.7881,-5.7881,-5.7881,-5.7881,-5.7881,-5.7881,-5.7881,-5.7881,-5.7881,-5.7881,-5.7881,-5.7881,-5.7881,-5.7881,-5.7881,-5.7881,-5.7881,-5.7881,-5.7881,-5.7881,-5.7881,-5.7881,-5.7881,-5.7881,-5.7881,-5.7881,-5.7881,-5.7881,-5.7881,-5.7881,-5.7881,-5.7881,-5.7698,-5.7588,-5.7588,-5.7176,-5.6987,-5.6987,-5.6796,-5.668,-5.668,-5.668,-5.668,-5.668,-5.668,-5.668,-5.668,-6.5528,-6.5394,-6.5394,-6.5394,-6.5394,-6.5394,-6.5394,-6.5394,-6.5394,-6.5394,-6.5394,-6.5394,-6.5394,-6.5394,-6.5394,-6.5394,-6.5394,-6.5394,-6.5394,-6.5394,-6.5394,-6.5394,-6.5019,-6.4576,-6.4115,-6.3715,-6.328,-6.278,-6.278,-6.278,-6.2798,-6.2654,-6.2526,-6.2389,-6.2257,-6.2141,-6.1996,-6.1996,-6.1996,-6.1996,-6.1996,-6.1996,-6.1996,-6.1996,-6.1996,-6.1996,-6.1996,-6.1996,-6.1996,-6.1996,-6.1996,-6.1996,-6.1996,-6.1996,-6.1996,-6.1996,-6.1996,-6.1996,-6.1996,-6.1996,-6.1996,-6.1996,-6.1996,-6.195,-6.1766,-6.0837,-5.9934,-5.9709,-5.8737,-5.7881,-5.7881,-5.7881,-5.7881,-5.7881,-5.7881,-5.7881,-5.7881,-5.7881,-5.7881,-5.7881,-5.7881,-5.7881,-5.7881,-5.7881,-5.7881,-5.7881,-5.7881,-5.7881,-5.7881,-5.7881,-5.7881,-5.7881,-5.7881,-5.7881,-5.7881,-5.7881,-5.7881,-5.7881,-5.7881,-5.7881,-5.7881,-5.7698,-5.7514,-5.7364,-5.7101,-5.6911,-5.6796,-5.6719,-5.668,-5.668,-5.668,-5.668,-5.668,-5.668,-5.668,-5.668,-6.5566,-6.5394,-6.5394,-6.5394,-6.5394,-6.5394,-6.5394,-6.5394,-6.5394,-6.5394,-6.5394,-6.5394,-6.5394,-6.5394,-6.5394,-6.5394,-6.5394,-6.5394,-6.5394,-6.5394,-6.5394,-6.5394,-6.5169,-6.4827,-6.4388,-6.3971,-6.3517,-6.3062,-6.2904,-6.278,-6.2798,-6.2603,-6.2493,-6.2389,-6.2203,-6.2087,-6.1996,-6.1996,-6.1996,-6.1996,-6.1996,-6.1996,-6.1996,-6.1996,-6.1996,-6.1996,-6.1996,-6.1996,-6.1996,-6.1996,-6.1996,-6.1996,-6.1996,-6.1996,-6.1996,-6.1996,-6.1996,-6.1996,-6.1996,-6.1996,-6.1996,-6.1996,-6.1996,-6.1996,-6.1996,-6.0956,-5.9998,-5.9998,-5.8875,-5.7881,-5.7881,-5.7881,-5.7881,-5.7881,-5.7881,-5.7881,-5.7881,-5.7881,-5.7881,-5.7881,-5.7881,-5.7881,-5.7881,-5.7881,-5.7881,-5.7881,-5.7881,-5.7881,-5.7881,-5.7881,-5.7881,-5.7881,-5.7881,-5.7881,-5.7881,-5.7881,-5.7881,-5.7881,-5.7881,-5.7845,-5.7772,-5.7588,-5.7364,-5.7176,-5.6987,-5.6796,-5.668,-5.668,-5.668,-5.668,-5.668,-5.668,-5.668,-5.668,-5.668,-5.668,-6.57,-6.5452,-6.5394,-6.5394,-6.5394,-6.5394,-6.5394,-6.5394,-6.5394,-6.5394,-6.5394,-6.5394,-6.5394,-6.5394,-6.5394,-6.5394,-6.5394,-6.5394,-6.5394,-6.5394,-6.5394,-6.5394,-6.5394,-6.5201,-6.4811,-6.4331,-6.3869,-6.3422,-6.3008,-6.278,-6.278,-6.2545,-6.2389,-6.2389,-6.2114,-6.1996,-6.1996,-6.1996,-6.1996,-6.1996,-6.1996,-6.1996,-6.1996,-6.1996,-6.1996,-6.1996,-6.1996,-6.1996,-6.1996,-6.1996,-6.1996,-6.1996,-6.1996,-6.1996,-6.1996,-6.1996,-6.1996,-6.1996,-6.1996,-6.1996,-6.1996,-6.1996,-6.1996,-6.1996,-6.1996,-6.0956,-5.9998,-5.9998,-5.8875,-5.7881,-5.7881,-5.7881,-5.7881,-5.7881,-5.7881,-5.7881,-5.7881,-5.7881,-5.7881,-5.7881,-5.7881,-5.7881,-5.7881,-5.7881,-5.7881,-5.7881,-5.7881,-5.7881,-5.7881,-5.7881,-5.7881,-5.7881,-5.7881,-5.7881,-5.7881,-5.7881,-5.7881,-5.7881,-5.7881,-5.7772,-5.7551,-5.7402,-5.7176,-5.6987,-5.6796,-5.668,-5.668,-5.668,-5.668,-5.668,-5.668,-5.668,-5.668,-5.668,-5.668,-5.668,-6.6579,-6.5872,-6.5394,-6.5394,-6.5394,-6.5394,-6.5394,-6.5394,-6.5394,-6.5394,-6.5394,-6.5394,-6.5394,-6.5394,-6.5394,-6.5394,-6.5394,-6.5394,-6.5394,-6.5394,-6.5394,-6.5394,-6.5394,-6.5201,-6.4811,-6.4331,-6.372,-6.2959,-6.2855,-6.278,-6.278,-6.2545,-6.2389,-6.2389,-6.2114,-6.1996,-6.1996,-6.1996,-6.1996,-6.1996,-6.1996,-6.1996,-6.1996,-6.1996,-6.1996,-6.1996,-6.1996,-6.1996,-6.1996,-6.1996,-6.1996,-6.1996,-6.1996,-6.1996,-6.1996,-6.1996,-6.1996,-6.1996,-6.1996,-6.1996,-6.1996,-6.1996,-6.1996,-6.1996,-6.1996,-6.0956,-5.9998,-5.9998,-5.8875,-5.7881,-5.7881,-5.7881,-5.7881,-5.7881,-5.7881,-5.7881,-5.7881,-5.7881,-5.7881,-5.7881,-5.7881,-5.7881,-5.7881,-5.7881,-5.7881,-5.7881,-5.7881,-5.7881,-5.7881,-5.7881,-5.7881,-5.7881,-5.7881,-5.7881,-5.7881,-5.7881,-5.7808,-5.7662,-5.7808,-5.7698,-5.7364,-5.7327,-5.7176,-5.6987,-5.6796,-5.668,-5.668,-5.668,-5.668,-5.668,-5.668,-5.668,-5.668,-5.668,-5.668,-5.668,-6.6865,-6.6006,-6.5394,-6.5394,-6.5394,-6.5394,-6.5394,-6.5394,-6.5394,-6.5394,-6.5394,-6.5394,-6.5394,-6.5394,-6.5394,-6.5394,-6.5394,-6.5394,-6.5394,-6.5394,-6.5394,-6.5394,-6.5394,-6.5101,-6.4483,-6.4234,-6.3785,-6.3134,-6.291,-6.278,-6.278,-6.2545,-6.2389,-6.2389,-6.2114,-6.1996,-6.1996,-6.1996,-6.1996,-6.1996,-6.1996,-6.1996,-6.1996,-6.1996,-6.1996,-6.1996,-6.1996,-6.1996,-6.1996,-6.1996,-6.1996,-6.1996,-6.1996,-6.1996,-6.1996,-6.1996,-6.1996,-6.1996,-6.1996,-6.1996,-6.1996,-6.1996,-6.1996,-6.1923,-6.1608,-6.0729,-5.9902,-5.9528,-5.8633,-5.7881,-5.7881,-5.7881,-5.7881,-5.7881,-5.7881,-5.7881,-5.7881,-5.7881,-5.7881,-5.7881,-5.7881,-5.7881,-5.7881,-5.7881,-5.7881,-5.7881,-5.7881,-5.7881,-5.7881,-5.7881,-5.7881,-5.7881,-5.7881,-5.7881,-5.7881,-5.7881,-5.7735,-5.7476,-5.7662,-5.7551,-5.7176,-5.7176,-5.7063,-5.6834,-5.6757,-5.668,-5.668,-5.668,-5.668,-5.668,-5.668,-5.668,-5.668,-5.668,-5.668,-5.668,-6.6865,-6.6006,-6.5394,-6.5394,-6.5394,-6.5394,-6.5394,-6.5394,-6.5394,-6.5394,-6.5394,-6.5394,-6.5394,-6.5394,-6.5394,-6.5394,-6.5394,-6.5394,-6.5394,-6.5394,-6.5394,-6.5394,-6.5394,-6.5,-6.4116,-6.4096,-6.3869,-6.3377,-6.2984,-6.278,-6.278,-6.2545,-6.2389,-6.2389,-6.2114,-6.1996,-6.1996,-6.1996,-6.1996,-6.1996,-6.1996,-6.1996,-6.1996,-6.1996,-6.1996,-6.1996,-6.1996,-6.1996,-6.1996,-6.1996,-6.1996,-6.1996,-6.1996,-6.1996,-6.1996,-6.1996,-6.1996,-6.1996,-6.1996,-6.1996,-6.1996,-6.1996,-6.1996,-6.1822,-6.1133,-6.0468,-5.9838,-5.9196,-5.8458,-5.7881,-5.7881,-5.7881,-5.7881,-5.7881,-5.7881,-5.7881,-5.7881,-5.7881,-5.7881,-5.7881,-5.7881,-5.7881,-5.7881,-5.7881,-5.7881,-5.7881,-5.7881,-5.7881,-5.7881,-5.7881,-5.7881,-5.7881,-5.7881,-5.7881,-5.7845,-5.7881,-5.7662,-5.7252,-5.7439,-5.7327,-5.6949,-5.6987,-5.6872,-5.668,-5.668,-5.668,-5.668,-5.668,-5.668,-5.668,-5.668,-5.668,-5.668,-5.668,-5.668,-5.668,-6.6865,-6.6006,-6.5394,-6.5394,-6.5394,-6.5394,-6.5394,-6.5394,-6.5394,-6.5394,-6.5394,-6.5394,-6.5394,-6.5394,-6.5394,-6.5394,-6.5394,-6.5394,-6.5394,-6.5394,-6.5394,-6.5394,-6.5394,-6.5,-6.4116,-6.4096,-6.3699,-6.2886,-6.283,-6.278,-6.278,-6.2545,-6.2389,-6.2389,-6.2114,-6.1996,-6.1996,-6.1996,-6.1996,-6.1996,-6.1996,-6.1996,-6.1996,-6.1996,-6.1996,-6.1996,-6.1996,-6.1996,-6.1996,-6.1996,-6.1996,-6.1996,-6.1996,-6.1996,-6.1996,-6.1996,-6.1996,-6.1996,-6.1996,-6.1996,-6.1996,-6.1996,-6.1996,-6.1822,-6.1133,-6.0468,-5.9966,-5.987,-5.8789,-5.7881,-5.7881,-5.7881,-5.7881,-5.7881,-5.7881,-5.7881,-5.7881,-5.7881,-5.7881,-5.7881,-5.7881,-5.7881,-5.7881,-5.7881,-5.7881,-5.7881,-5.7881,-5.7881,-5.7881,-5.7881,-5.7881,-5.7881,-5.7881,-5.7808,-5.7625,-5.7808,-5.7625,-5.7025,-5.7252,-5.7139,-5.6757,-5.6911,-5.6872,-5.668,-5.668,-5.668,-5.668,-5.668,-5.668,-5.668,-5.668,-5.668,-5.668,-5.668,-5.668,-5.668,-6.6865,-6.6006,-6.5394,-6.5394,-6.5394,-6.5394,-6.5394,-6.5394,-6.5394,-6.5394,-6.5394,-6.5394,-6.5394,-6.5394,-6.5394,-6.5394,-6.5394,-6.5394,-6.5394,-6.5394,-6.5394,-6.5394,-6.5394,-6.5,-6.4116,-6.4096,-6.3677,-6.278,-6.278,-6.278,-6.278,-6.2545,-6.2389,-6.2389,-6.2114,-6.1996,-6.1996,-6.1996,-6.1996,-6.1996,-6.1996,-6.1996,-6.1996,-6.1996,-6.1996,-6.1996,-6.1996,-6.1996,-6.1996,-6.1996,-6.1996,-6.1996,-6.1996,-6.1996,-6.1996,-6.1996,-6.1996,-6.1996,-6.1996,-6.1996,-6.1996,-6.1996,-6.1996,-6.1923,-6.1636,-6.0729,-5.987,-5.9462,-5.8598,-5.7881,-5.7881,-5.7881,-5.7881,-5.7881,-5.7881,-5.7881,-5.7881,-5.7881,-5.7881,-5.7881,-5.7881,-5.7881,-5.7881,-5.7881,-5.7881,-5.7881,-5.7881,-5.7881,-5.7881,-5.7881,-5.7881,-5.7881,-5.7881,-5.7808,-5.7588,-5.7698,-5.7476,-5.6987,-5.7101,-5.6987,-5.668,-5.6796,-5.6796,-5.668,-5.668,-5.668,-5.668,-5.668,-5.668,-5.668,-5.668,-5.668,-5.668,-5.668,-5.668,-5.668]},{"header":{"parameterUnit":"m.s-1","parameterCategory":1,"la1":30.6,"la2":28.766,"lo1":-90.7593,"lo2":-88.6598,"dy":0.0162,"dx":0.0183,"nx":116,"ny":114,"refTime":"2023-04-18T06:00:00:Z","depth":0,"parameterNumber":3,"parameterNumberName":"V-component_of_WINDS"},"data":[0.0,0.0,0.0,0.0,0.0,0.0,0.0,0.0,0.0,0.0,0.0,0.0,0.0,0.0,0.0,0.0,0.0,0.0,0.0,0.0,0.0,0.0,0.0,0.0,0.0,0.0,0.0,0.0,0.0,0.0,0.0,0.0,0.0,0.0,0.0,0.0,0.0,0.0,0.0,0.0,0.0,0.0,0.0,0.0,0.0,0.0,0.0,0.0,0.0,0.0,0.0,0.0,0.0,0.0,0.0,0.0,0.0,0.0,0.0,0.0,0.0,0.0,0.0,0.0,0.0,0.0,0.0,0.0,0.0,0.0,0.0,0.0,0.0,0.0,0.0,0.0,0.0,0.0,0.0,0.0,0.0,0.0,0.0,0.0,0.0,0.0,0.0,0.0,0.0,0.0,0.0,0.0,0.0,0.0,0.0,0.0,0.0,0.0,0.0,0.0,0.0,0.0,0.0,0.0,0.0,0.0,0.0,0.0,0.0,0.0,0.0,0.0,0.0,0.0,0.0,0.0,0.0,0.0,0.0,0.0,0.0,0.0,0.0,0.0,0.0,0.0,0.0,0.0,0.0,0.0,0.0,0.0,0.0,0.0,0.0,0.0,0.0,0.0,0.0,0.0,0.0,0.0,0.0,0.0,0.0,0.0,0.0,0.0,0.0,0.0,0.0,0.0,0.0,0.0,0.0,0.0,0.0,0.0,0.0,0.0,0.0,0.0,0.0,0.0,0.0,0.0,0.0,0.0,0.0,0.0,0.0,0.0,0.0,0.0,0.0,0.0,0.0,0.0,0.0,0.0,0.0,0.0,0.0,0.0,0.0,0.0,0.0,0.0,0.0,0.0,0.0,0.0,0.0,0.0,0.0,0.0,0.0,0.0,0.0,0.0,0.0,0.0,0.0,0.0,0.0,0.0,0.0,0.0,0.0,0.0,0.0,0.0,0.0,0.0,0.0,0.0,0.0,0.0,0.0,0.0,0.0,0.0,0.0,0.0,0.0,0.0,0.0,0.0,0.0,0.0,0.0,0.0,0.0,0.0,0.0,0.0,0.0,0.0,0.0,0.0,0.0,0.0,0.0,0.0,0.0,0.0,0.0,0.0,0.0,0.0,0.0,0.0,0.0,0.0,0.0,0.0,0.0,0.0,0.0,0.0,0.0,0.0,0.0,0.0,0.0,0.0,0.0,0.0,0.0,0.0,0.0,0.0,0.0,0.0,0.0,0.0,0.0,0.0,0.0,0.0,0.0,0.0,0.0,0.0,0.0,0.0,0.0,0.0,0.0,0.0,0.0,0.0,0.0,0.0,0.0,0.0,0.0,0.0,0.0,0.0,0.0,0.0,0.0,0.0,0.0,0.0,0.0,0.0,0.0,0.0,0.0,0.0,0.0,0.0,0.0,0.0,0.0,0.0,0.0,0.0,0.0,0.0,0.0,0.0,0.0,0.0,0.0,0.0,0.0,0.0,0.0,0.0,0.0,0.0,0.0,0.0,0.0,0.0,0.0,0.0,0.0,0.0,0.0,0.0,0.0,0.0,0.0,0.0,0.0,0.0,0.0,0.0,0.0,0.0,0.0,0.0,0.0,0.0,0.0,0.0,0.0,0.0,0.0,0.0,0.0,0.0,0.0,0.0,0.0,0.0,0.0,0.0,0.0,0.0,0.0,0.0,0.0,0.0,0.0,0.0,0.0,0.0,0.0,0.0,0.0,0.0,0.0,0.0,0.0,0.0,0.0,0.0,0.0,0.0,0.0,0.0,0.0,0.0,0.0,0.0,0.0,0.0,0.0,0.0,0.0,0.0,0.0,0.0,0.0,0.0,0.0,0.0,0.0,0.0,0.0,0.0,0.0,0.0,0.0,0.0,0.0,0.0,0.0,0.0,0.0,0.0,0.0,0.0,0.0,0.0,0.0,0.0,0.0,0.0,0.0,0.0,0.0,0.0,0.0,0.0,0.0,0.0,0.0,0.0,0.0,0.0,0.0,0.0,0.0,0.0,0.0,0.0,0.0,0.0,0.0,0.0,0.0,0.0,0.0,0.0,0.0,0.0,0.0,0.0,0.0,0.0,0.0,0.0,0.0,0.0,0.0,0.0,0.0,0.0,0.0,0.0,0.0,0.0,0.0,0.0,0.0,0.0,0.0,0.0,0.0,0.0,0.0,0.0,0.0,0.0,0.0,0.0,0.0,0.0,0.0,0.0,0.0,0.0,0.0,0.0,0.0,0.0,0.0,0.0,0.0,0.0,0.0,0.0,0.0,0.0,0.0,0.0,0.0,0.0,0.0,0.0,0.0,0.0,0.0,0.0,0.0,0.0,0.0,0.0,0.0,0.0,0.0,0.0,0.0,0.0,0.0,0.0,0.0,0.0,0.0,0.0,0.0,0.0,0.0,0.0,0.0,0.0,0.0,0.0,0.0,0.0,0.0,0.0,0.0,0.0,0.0,0.0,0.0,0.0,0.0,0.0,0.0,0.0,0.0,0.0,0.0,0.0,0.0,0.0,0.0,0.0,0.0,0.0,0.0,0.0,0.0,0.0,0.0,0.0,0.0,0.0,0.0,0.0,0.0,0.0,0.0,0.0,0.0,0.0,0.0,0.0,0.0,0.0,0.0,0.0,0.0,0.0,0.0,0.0,0.0,0.0,0.0,0.0,0.0,0.0,0.0,0.0,0.0,0.0,0.0,0.0,0.0,0.0,0.0,0.0,0.0,0.0,0.0,0.0,0.0,0.0,0.0,0.0,0.0,0.0,0.0,0.0,0.0,0.0,0.0,0.0,0.0,0.0,0.0,0.0,0.0,0.0,0.0,0.0,0.0,0.0,0.0,0.0,0.0,0.0,0.0,0.0,0.0,0.0,0.0,0.0,0.0,0.0,0.0,0.0,0.0,0.0,0.0,0.0,0.0,0.0,0.0,0.0,0.0,0.0,0.0,0.0,0.0,0.0,0.0,0.0,0.0,0.0,0.0,0.0,0.0,0.0,0.0,0.0,0.0,0.0,0.0,0.0,0.0,0.0,0.0,0.0,0.0,0.0,0.0,0.0,0.0,0.0,0.0,0.0,0.0,0.0,0.0,0.0,0.0,0.0,0.0,0.0,0.0,0.0,0.0,0.0,0.0,0.0,0.0,0.0,0.0,0.0,0.0,0.0,0.0,0.0,0.0,0.0,0.0,0.0,0.0,0.0,0.0,0.0,0.0,0.0,0.0,0.0,0.0,0.0,0.0,0.0,0.0,0.0,0.0,0.0,0.0,0.0,0.0,0.0,0.0,0.0,0.0,0.0,0.0,0.0,0.0,0.0,0.0,0.0,0.0,0.0,0.0,0.0,0.0,0.0,0.0,0.0,0.0,0.0,0.0,0.0,0.0,0.0,0.0,0.0,0.0,0.0,0.0,0.0,0.0,0.0,0.0,0.0,0.0,0.0,0.0,0.0,0.0,0.0,0.0,0.0,0.0,0.0,0.0,0.0,0.0,0.0,0.0,0.0,0.0,0.0,0.0,0.0,0.0,0.0,0.0,0.0,0.0,0.0,0.0,0.0,0.0,0.0,0.0,0.0,0.0,0.0,0.0,0.0,0.0,0.0,0.0,0.0,0.0,0.0,0.0,0.0,0.0,0.0,0.0,0.0,0.0,0.0,0.0,0.0,0.0,0.0,0.0,0.0,0.0,0.0,0.0,0.0,0.0,0.0,0.0,0.0,0.0,0.0,0.0,0.0,0.0,0.0,0.0,0.0,0.0,0.0,0.0,0.0,0.0,0.0,0.0,0.0,0.0,0.0,0.0,0.0,0.0,0.0,0.0,0.0,0.0,0.0,0.0,0.0,0.0,0.0,0.0,0.0,0.0,0.0,0.0,0.0,0.0,0.0,0.0,0.0,0.0,0.0,0.0,0.0,0.0,0.0,0.0,0.0,0.0,0.0,0.0,0.0,0.0,0.0,0.0,0.0,0.0,0.0,0.0,0.0,0.0,0.0,0.0,0.0,0.0,0.0,0.0,0.0,0.0,0.0,0.0,0.0,0.0,0.0,0.0,0.0,0.0,0.0,0.0,0.0,0.0,0.0,0.0,0.0,0.0,0.0,0.0,0.0,0.0,0.0,0.0,0.0,0.0,0.0,0.0,0.0,0.0,0.0,0.0,0.0,0.0,0.0,0.0,0.0,0.0,0.0,0.0,0.0,0.0,0.0,0.0,0.0,0.0,0.0,0.0,0.0,0.0,0.0,0.0,0.0,0.0,0.0,0.0,0.0,0.0,0.0,0.0,0.0,0.0,0.0,0.0,0.0,0.0,0.0,0.0,0.0,0.0,0.0,0.0,0.0,0.0,0.0,0.0,0.0,0.0,0.0,0.0,0.0,0.0,0.0,0.0,0.0,0.0,0.0,0.0,0.0,0.0,0.0,0.0,0.0,0.0,0.0,0.0,0.0,0.0,0.0,0.0,0.0,0.0,0.0,0.0,0.0,0.0,0.0,0.0,0.0,0.0,0.0,0.0,0.0,0.0,0.0,0.0,0.0,0.0,0.0,0.0,0.0,0.0,0.0,0.0,0.0,0.0,0.0,0.0,0.0,0.0,0.0,0.0,0.0,0.0,0.0,0.0,0.0,0.0,0.0,0.0,0.0,0.0,0.0,0.0,0.0,0.0,0.0,0.0,0.0,0.0,0.0,0.0,0.0,0.0,0.0,0.0,0.0,0.0,0.0,0.0,0.0,0.0,0.0,0.0,0.0,0.0,0.0,0.0,0.0,0.0,0.0,0.0,0.0,0.0,0.0,0.0,0.0,0.0,0.0,0.0,0.0,0.0,0.0,0.0,0.0,0.0,0.0,0.0,0.0,0.0,0.0,0.0,0.0,0.0,0.0,0.0,0.0,0.0,0.0,0.0,0.0,0.0,0.0,0.0,0.0,0.0,0.0,0.0,0.0,0.0,0.0,0.0,0.0,0.0,0.0,0.0,0.0,0.0,0.0,0.0,0.0,0.0,0.0,0.0,0.0,0.0,0.0,0.0,0.0,0.0,0.0,0.0,0.0,0.0,0.0,0.0,0.0,0.0,0.0,0.0,0.0,0.0,0.0,0.0,0.0,0.0,0.0,0.0,0.0,0.0,0.0,0.0,0.0,0.0,0.0,0.0,0.0,0.0,0.0,0.0,0.0,0.0,0.0,0.0,0.0,0.0,0.0,0.0,0.0,0.0,0.0,0.0,0.0,0.0,0.0,0.0,0.0,0.0,0.0,0.0,0.0,0.0,0.0,0.0,0.0,0.0,0.0,0.0,0.0,0.0,0.0,0.0,0.0,0.0,0.0,0.0,0.0,0.0,0.0,0.0,0.0,0.0,0.0,0.0,0.0,0.0,0.0,0.0,0.0,0.0,0.0,0.0,0.0,0.0,0.0,0.0,0.0,0.0,0.0,0.0,0.0,0.0,0.0,0.0,0.0,0.0,0.0,0.0,0.0,0.0,0.0,0.0,0.0,0.0,0.0,0.0,0.0,0.0,0.0,0.0,0.0,0.0,0.0,0.0,0.0,0.0,0.0,0.0,0.0,0.0,0.0,0.0,0.0,0.0,0.0,0.0,0.0,0.0,0.0,0.0,0.0,0.0,0.0,0.0,0.0,0.0,0.0,0.0,0.0,0.0,0.0,0.0,0.0,0.0,0.0,0.0,0.0,0.0,0.0,0.0,0.0,0.0,0.0,0.0,0.0,0.0,0.0,0.0,0.0,0.0,0.0,0.0,0.0,0.0,0.0,0.0,0.0,0.0,0.0,0.0,0.0,0.0,0.0,0.0,0.0,0.0,0.0,0.0,0.0,0.0,0.0,0.0,0.0,0.0,0.0,0.0,0.0,0.0,0.0,0.0,0.0,0.0,0.0,0.0,0.0,0.0,0.0,0.0,0.0,0.0,0.0,0.0,0.0,0.0,0.0,0.0,0.0,0.0,0.0,0.0,0.0,0.0,0.0,0.0,0.0,0.0,0.0,0.0,0.0,0.0,0.0,0.0,0.0,0.0,0.0,0.0,0.0,0.0,0.0,0.0,0.0,0.0,0.0,0.0,0.0,0.0,0.0,0.0,0.0,0.0,0.0,0.0,0.0,0.0,0.0,0.0,0.0,0.0,0.0,2.5531,0.0,0.0,0.0,0.0,0.0,0.0,0.0,0.0,0.0,0.0,0.0,0.0,0.0,0.0,0.0,0.0,0.0,0.0,0.0,0.0,0.0,0.0,0.0,0.0,0.0,0.0,0.0,0.0,0.0,0.0,0.0,0.0,0.0,0.0,0.0,0.0,0.0,0.0,2.1109,2.1256,2.1476,2.1757,2.1603,2.1456,2.1316,0.0,0.0,0.0,0.0,0.0,0.0,0.0,0.0,0.0,0.0,0.0,0.0,0.0,0.0,0.0,0.0,0.0,0.0,0.0,0.0,0.0,0.0,0.0,0.0,0.0,0.0,0.0,0.0,0.0,0.0,0.0,0.0,0.0,0.0,0.0,0.0,0.0,0.0,0.0,0.0,0.0,0.0,0.0,0.0,0.0,0.0,0.0,0.0,0.0,0.0,0.0,0.0,0.0,0.0,0.0,0.0,0.0,0.0,0.0,0.0,0.0,0.0,0.0,0.0,0.0,0.0,0.0,0.0,0.0,0.0,0.0,2.6373,0.0,0.0,0.0,0.0,0.0,0.0,0.0,0.0,0.0,0.0,0.0,0.0,0.0,0.0,0.0,0.0,0.0,0.0,0.0,0.0,0.0,0.0,0.0,1.8538,1.8992,1.9219,1.9813,2.0361,0.0,0.0,0.0,0.0,0.0,0.0,2.1109,2.1109,2.1136,2.1189,2.1537,2.1824,2.2064,2.2064,2.1931,2.1755,2.1396,0.0,0.0,0.0,0.0,0.0,0.0,0.0,0.0,0.0,0.0,0.0,0.0,0.0,0.0,0.0,0.0,0.0,0.0,0.0,0.0,0.0,0.0,0.0,0.0,0.0,0.0,0.0,0.0,0.0,0.0,0.0,0.0,0.0,0.0,0.0,0.0,0.0,0.0,0.0,0.0,0.0,0.0,0.0,0.0,0.0,0.0,0.0,0.0,0.0,0.0,0.0,0.0,0.0,0.0,0.0,0.0,0.0,0.0,0.0,0.0,0.0,0.0,0.0,2.5379,2.5379,2.5379,2.5444,2.5444,2.5501,2.6456,2.7156,2.7692,0.0,0.0,0.0,0.0,0.0,0.0,0.0,0.0,0.0,0.0,0.0,0.0,0.0,0.0,0.0,0.0,0.0,0.0,0.0,0.0,0.0,0.0,1.8538,1.8933,1.8935,1.9699,2.0361,2.0661,0.0,0.0,0.0,0.0,0.0,2.1109,2.1109,2.1236,2.1561,2.2038,2.2325,2.2358,2.2358,2.2345,2.2291,2.1997,2.173,2.1561,0.0,0.0,0.0,0.0,0.0,0.0,0.0,0.0,0.0,0.0,0.0,0.0,0.0,0.0,0.0,0.0,0.0,0.0,0.0,0.0,0.0,0.0,0.0,0.0,0.0,0.0,0.0,0.0,0.0,0.0,0.0,0.0,0.0,0.0,0.0,0.0,0.0,0.0,0.0,0.0,0.0,2.5699,2.604,0.0,0.0,0.0,0.0,0.0,0.0,0.0,0.0,0.0,0.0,0.0,0.0,0.0,2.5982,2.5993,2.6001,2.5959,2.6008,2.6008,2.6008,2.6008,2.6334,2.6526,2.6577,2.7507,0.0,2.9551,3.1205,0.0,0.0,0.0,0.0,0.0,0.0,0.0,0.0,0.0,0.0,0.0,0.0,0.0,0.0,0.0,0.0,0.0,0.0,0.0,0.0,0.0,1.8345,1.8933,1.9341,2.0142,2.084,2.1162,2.1289,0.0,0.0,0.0,2.1109,2.1109,2.1269,2.1583,2.2038,2.2291,2.2505,2.2665,2.2665,2.2665,2.2665,2.2539,2.2225,2.1797,2.1797,0.0,0.0,0.0,0.0,0.0,0.0,0.0,0.0,0.0,0.0,0.0,0.0,0.0,0.0,0.0,0.0,0.0,0.0,0.0,0.0,0.0,0.0,0.0,0.0,0.0,0.0,0.0,0.0,0.0,0.0,0.0,0.0,0.0,0.0,0.0,0.0,0.0,0.0,0.0,2.5131,2.5537,2.6066,2.6005,2.5904,0.0,0.0,0.0,0.0,0.0,0.0,0.0,0.0,0.0,2.6495,2.6503,2.6547,2.669,2.6698,2.671,2.6741,2.6741,2.6741,2.6741,2.6867,2.7,2.7059,2.8261,2.947,3.071,3.1816,3.2611,3.3156,0.0,0.0,0.0,0.0,3.3417,3.3448,0.0,0.0,0.0,0.0,0.0,0.0,0.0,0.0,0.0,0.0,0.0,0.0,1.7581,1.8294,1.9038,1.9625,2.0483,2.1162,2.1421,2.155,2.1423,2.1122,2.1109,2.1109,2.1109,2.1476,2.1911,2.2418,2.2498,2.2645,2.2928,2.2928,2.2928,2.2928,2.2928,2.2579,2.2098,2.2098,2.1931,2.1722,0.0,0.0,0.0,0.0,0.0,0.0,0.0,0.0,0.0,0.0,0.0,0.0,0.0,0.0,0.0,0.0,0.0,0.0,0.0,0.0,0.0,0.0,0.0,0.0,0.0,0.0,0.0,0.0,0.0,0.0,0.0,0.0,0.0,0.0,0.0,0.0,0.0,2.5293,2.5569,2.6155,2.6135,2.6066,0.0,0.0,0.0,0.0,0.0,0.0,2.6897,2.7882,2.8045,2.6996,2.7026,2.7193,2.7463,2.7463,2.7463,2.7463,2.7463,2.7463,2.7463,2.7463,2.7463,2.753,2.8577,2.9811,3.1134,3.21,3.3096,3.4105,3.4614,3.4357,3.3808,3.4178,3.4308,3.4258,0.0,0.0,0.0,0.0,0.0,0.0,0.0,0.0,0.0,0.0,0.0,1.7853,1.7853,1.8576,1.9192,1.9598,2.0464,2.1032,2.1032,2.1421,2.1423,2.1122,2.1109,2.1109,2.1109,2.167,2.2111,2.2418,2.2706,2.2846,2.2928,2.2928,2.2928,2.2928,2.2928,2.2692,2.2398,2.2398,2.2231,2.1937,2.1728,0.0,0.0,0.0,0.0,0.0,0.0,0.0,0.0,0.0,0.0,0.0,0.0,0.0,0.0,0.0,0.0,0.0,0.0,0.0,0.0,0.0,0.0,0.0,0.0,0.0,0.0,0.0,0.0,0.0,0.0,0.0,0.0,0.0,0.0,0.0,0.0,0.0,0.0,2.6636,2.6954,0.0,0.0,0.0,0.0,2.8026,2.8143,2.8297,2.8576,2.9016,2.8742,2.7661,2.7979,2.8154,2.817,2.817,2.817,2.817,2.817,2.817,2.817,2.817,2.817,2.817,2.8239,2.9056,3.0487,3.253,3.3413,3.3562,3.4422,3.3984,3.2942,3.4278,3.4785,3.4847,0.0,0.0,0.0,0.0,0.0,0.0,0.0,0.0,1.7189,1.7449,1.7708,1.7943,1.8125,1.889,1.9548,2.0086,2.0987,2.1514,2.1593,2.174,2.1697,2.141,2.1216,2.1283,2.1663,2.2058,2.2412,2.2706,2.2812,2.2928,2.2928,2.2928,2.2928,2.2928,2.2928,2.2806,2.2706,2.2706,2.2532,2.2258,2.2151,2.2015,0.0,0.0,0.0,0.0,0.0,0.0,0.0,0.0,0.0,0.0,0.0,0.0,0.0,0.0,0.0,0.0,0.0,0.0,0.0,0.0,0.0,0.0,0.0,0.0,0.0,0.0,0.0,0.0,0.0,0.0,0.0,0.0,0.0,0.0,0.0,0.0,0.0,2.6628,2.6787,0.0,2.6684,2.6676,2.7353,2.8854,2.9983,3.0431,2.9911,3.084,3.0312,2.8111,2.8162,2.8225,2.8225,2.8225,2.8225,2.8225,2.8225,2.8225,2.8225,2.8225,2.8225,2.8225,2.8225,2.8976,3.0386,3.1101,3.2348,3.3843,3.5114,3.5128,3.4481,3.4995,3.519,3.5211,0.0,0.0,0.0,0.0,0.0,0.0,0.0,0.0,1.7316,1.7581,1.7853,1.8155,1.8517,1.9187,1.985,2.0325,2.109,2.1539,2.1366,2.1627,2.1614,2.1295,2.1339,2.1677,2.2265,2.2472,2.2719,2.302,2.2913,2.2928,2.2928,2.2928,2.2928,2.2928,2.2928,2.2928,2.2928,2.2928,2.2746,2.2559,2.2458,2.2264,2.2073,0.0,0.0,0.0,0.0,0.0,0.0,0.0,0.0,0.0,0.0,0.0,0.0,0.0,0.0,0.0,0.0,0.0,0.0,0.0,0.0,0.0,0.0,0.0,0.0,0.0,0.0,0.0,0.0,0.0,0.0,0.0,0.0,0.0,0.0,0.0,2.6471,2.6644,2.6779,2.6899,2.7018,2.7034,2.7758,2.9549,3.125,3.1851,3.119,3.2603,3.2331,2.9958,2.9539,2.9326,2.9326,2.8855,2.8583,2.8583,2.8583,2.8583,2.8583,2.8583,2.8583,2.8583,2.8583,2.9404,3.0711,3.1252,3.2631,3.4378,3.4759,3.4979,3.5088,3.4936,3.5198,3.5635,0.0,0.0,0.0,0.0,0.0,0.0,0.0,1.7316,1.7575,1.7835,1.8125,1.8505,1.903,1.9573,2.0002,2.0267,2.0859,2.099,2.0457,2.0999,2.1143,2.0661,2.1508,2.2285,2.2934,2.2886,2.304,2.334,2.304,2.2886,2.2879,2.2879,2.2941,2.2928,2.2928,2.2928,2.2928,2.2928,2.2928,2.2839,2.2545,2.2258,2.2037,0.0,0.0,0.0,0.0,0.0,0.0,0.0,0.0,0.0,0.0,0.0,0.0,0.0,0.0,0.0,0.0,0.0,0.0,0.0,0.0,0.0,0.0,0.0,0.0,0.0,0.0,0.0,0.0,0.0,0.0,0.0,0.0,0.0,2.5551,2.6267,2.6684,2.67,2.701,2.7359,2.7649,2.7681,2.8489,3.0259,3.168,3.2551,3.2636,3.4299,3.4595,3.3156,3.2079,3.1508,3.1437,3.0061,2.9369,2.9298,2.9298,2.9298,2.9298,2.9298,2.9298,2.9298,2.9298,3.0124,3.1508,3.2952,3.4181,3.4959,3.3261,3.3425,3.4629,3.4135,3.4886,3.6049,0.0,0.0,0.0,0.0,0.0,0.0,0.0,1.7316,1.7575,1.7835,1.8287,1.8776,1.9301,1.9845,2.0273,2.0539,2.0963,2.1065,2.0724,2.1174,2.145,2.1627,2.2305,2.2799,2.3193,2.3407,2.3561,2.3647,2.3561,2.3407,2.32,2.32,2.308,2.2928,2.2928,2.2928,2.2928,2.2928,2.2928,2.2921,2.2772,2.2565,2.2291,0.0,0.0,0.0,0.0,0.0,0.0,0.0,0.0,0.0,0.0,0.0,0.0,0.0,0.0,0.0,0.0,0.0,0.0,0.0,0.0,0.0,0.0,0.0,0.0,0.0,0.0,0.0,0.0,0.0,0.0,0.0,0.0,2.5578,2.6322,2.6547,2.6793,2.6957,2.7316,2.7589,2.7661,2.7891,2.9242,3.22,3.277,3.3576,3.4902,3.4463,3.3491,3.1975,3.1659,3.1022,2.9918,3.0543,3.0329,2.9298,2.9298,2.9298,2.9298,2.9298,2.9298,2.9298,2.9298,2.9505,2.9918,3.0329,3.0689,3.1258,3.4758,3.6163,3.6194,3.6061,3.6072,3.609,0.0,0.0,0.0,0.0,0.0,0.0,0.0,1.7382,1.766,1.8149,1.8493,1.8969,1.9724,2.0086,2.0382,2.0647,2.077,2.073,2.046,2.0781,2.1443,2.2338,2.2806,2.326,2.3688,2.3861,2.3955,2.3955,2.3834,2.3681,2.3514,2.3514,2.3414,2.3233,2.3113,2.3053,2.3046,2.2919,2.2928,2.2928,2.2928,2.2686,2.2418,2.2418,2.2238,2.205,2.2379,2.2635,2.2869,2.3142,0.0,0.0,0.0,0.0,0.0,0.0,0.0,0.0,0.0,0.0,0.0,0.0,0.0,0.0,0.0,0.0,0.0,0.0,0.0,0.0,0.0,0.0,0.0,0.0,2.5413,2.5659,2.6534,2.6639,2.6788,2.7126,2.7442,2.7807,2.8153,2.8316,2.9552,3.2258,3.3034,3.3889,3.4886,3.4758,3.3932,3.2473,3.2403,3.171,3.0266,3.1093,3.0747,2.9298,2.9298,2.9298,2.9298,2.9298,2.9298,0.0,2.9298,2.964,3.0195,3.0195,3.0614,0.0,0.0,0.0,0.0,0.0,3.6794,3.6401,0.0,0.0,0.0,0.0,0.0,0.0,0.0,1.7485,1.7774,1.8577,1.871,1.912,2.0165,2.0303,2.0412,2.0647,2.0424,2.0232,2.0033,2.0438,2.1335,2.2879,2.324,2.3688,2.4242,2.4255,2.4255,2.4255,2.3995,2.3848,2.3821,2.3821,2.3801,2.3754,2.346,2.3327,2.3307,2.2993,2.2928,2.2928,2.2928,2.2706,2.2472,2.2472,2.2305,2.215,2.2415,2.254,2.2665,2.3288,0.0,0.0,0.0,0.0,0.0,0.0,0.0,0.0,0.0,0.0,0.0,0.0,0.0,0.0,0.0,0.0,0.0,0.0,0.0,0.0,0.0,0.0,0.0,0.0,2.5169,2.5546,2.6398,2.668,2.687,2.7221,2.757,2.8029,2.8719,2.8758,2.9639,3.1623,3.2813,3.3568,3.3923,0.0,0.0,0.0,0.0,3.3022,3.1508,3.1508,3.0747,2.9298,2.9298,2.9298,2.9298,2.9298,2.9298,2.9298,2.9298,3.0053,3.1234,3.1234,3.1983,3.3022,3.0889,3.1719,3.4505,3.6759,3.7281,3.6877,0.0,0.0,0.0,0.0,0.0,0.0,0.0,1.7485,1.7774,1.8577,1.8873,1.9326,2.0183,2.0466,2.0611,2.0665,2.0424,2.0435,2.0686,2.1241,2.2046,2.315,2.3748,2.4195,2.4549,2.4556,2.4556,2.4556,2.4496,2.4349,2.4122,2.4122,2.3995,2.3754,2.346,2.3327,2.3307,2.2993,2.2928,2.2928,2.2928,2.2826,2.2779,2.2779,2.2739,2.276,2.2828,2.3032,2.3262,2.3416,2.3672,2.3953,2.4036,2.3859,0.0,0.0,0.0,0.0,0.0,0.0,0.0,0.0,0.0,0.0,0.0,0.0,0.0,0.0,0.0,0.0,0.0,0.0,0.0,2.5388,2.5711,2.5943,2.6139,2.696,2.7513,2.7506,2.7857,2.8247,2.871,2.8749,2.9955,3.3013,3.2473,3.2961,3.5325,3.4621,0.0,3.3707,3.3707,3.3022,3.1508,3.1508,3.0747,2.9298,0.0,0.0,2.9298,2.9298,2.9298,2.9298,2.9298,2.9433,2.9712,2.9712,2.9918,3.0471,3.3457,3.5743,3.7404,3.7878,3.7757,3.7363,0.0,0.0,0.0,0.0,0.0,0.0,0.0,1.7678,1.7968,1.8776,1.8994,1.9332,2.0008,2.0201,2.0279,2.0279,2.0158,2.0276,2.0808,2.1258,2.209,2.3378,2.3753,2.4123,2.4556,2.4636,2.4636,2.4636,2.4636,2.4563,2.4422,2.4422,2.4342,2.4195,2.3895,2.3768,2.3734,2.3287,2.3093,2.308,2.2926,2.2928,2.2928,2.2928,2.2928,2.2928,2.2928,2.2996,2.3181,2.3642,2.3863,2.4036,2.4487,2.4349,2.4049,0.0,0.0,0.0,0.0,0.0,0.0,0.0,0.0,0.0,0.0,0.0,0.0,0.0,0.0,2.4411,0.0,0.0,2.4959,2.5323,2.5628,2.5928,2.6261,2.6933,2.742,2.7342,2.7992,2.852,2.8683,2.8851,3.0313,3.343,3.2333,3.2482,3.469,3.413,3.3022,3.1508,3.2952,3.2604,3.04,3.1164,3.0747,2.9298,2.9298,2.9298,2.9298,2.9298,2.9298,2.9298,2.9298,2.9298,2.9298,2.9298,2.9712,3.0605,3.2831,3.463,3.6015,3.6789,3.7406,3.7839,0.0,0.0,0.0,0.0,0.0,0.0,0.0,1.7956,1.8227,1.8976,1.9078,1.9283,1.9827,1.9887,1.9863,1.9808,1.9947,2.0239,2.0804,2.1214,2.2107,2.3515,2.3673,2.3956,2.4556,2.4636,2.4636,2.4636,2.4636,2.4636,2.4636,2.4636,2.4636,2.4623,2.4335,2.4202,2.4168,2.3641,2.338,2.3307,2.3053,2.2919,2.2928,2.2928,2.2928,2.2928,2.2928,2.2894,2.2922,2.3665,2.3917,2.4017,2.4766,2.4832,2.4518,2.4254,2.413,0.0,0.0,0.0,0.0,0.0,0.0,0.0,0.0,2.4174,2.4196,2.4254,2.4531,2.4604,2.4342,2.4804,2.5175,2.5171,2.5538,2.597,2.6427,2.6974,2.7226,2.7082,2.789,2.8555,2.8779,2.921,3.0534,3.3092,3.2193,3.1992,3.3231,3.3291,3.2193,2.9783,3.2053,3.2123,2.9783,3.0605,3.0471,2.9298,2.9298,2.9298,2.9298,2.9298,2.9298,2.9298,2.9298,2.9298,2.9298,2.9298,2.9989,3.1093,3.1093,3.1983,3.3508,3.5256,3.6722,3.777,0.0,0.0,0.0,0.0,0.0,0.0,0.0,0.0,1.8444,1.9006,1.9078,1.9283,1.9827,1.9887,1.9784,1.9602,2.0171,2.0628,2.0755,2.1759,2.2718,2.3541,2.3855,2.416,2.4562,2.4636,2.4636,2.4636,2.4636,2.4636,2.4636,2.4636,2.4636,2.4623,2.4335,2.4202,2.4182,2.3861,2.3567,2.3327,2.3287,2.3106,2.2928,2.2928,2.2928,2.2928,2.2928,2.2692,2.2573,2.3249,2.3499,2.3662,2.4342,2.4557,2.4562,2.4591,2.4313,2.4013,2.3684,2.3625,2.3647,2.3647,2.3837,2.4115,0.0,2.4518,2.4598,2.4951,2.5017,2.5017,2.5017,2.5205,2.5432,2.5469,2.6261,2.6832,2.6565,2.739,2.7722,2.7077,2.7463,2.813,2.9146,2.9902,3.0722,3.164,3.1578,3.1578,3.171,3.1781,3.1578,3.1226,3.1578,3.1578,3.1226,3.0124,2.9433,2.9298,2.9298,2.9298,2.9298,2.9298,2.9298,2.9298,2.9298,2.9298,2.9298,2.9298,2.9369,2.9577,2.9577,3.0471,3.2062,3.4846,3.6025,3.6364,0.0,0.0,0.0,0.0,0.0,0.0,0.0,0.0,0.0,1.9024,1.9078,1.9163,1.9392,1.9416,1.9368,1.9247,1.9977,2.0523,2.0703,2.1646,2.2454,2.3199,2.3462,2.3816,2.4267,2.4488,2.4636,2.4636,2.4636,2.4636,2.4636,2.4636,2.4636,2.4636,2.4509,2.4456,2.4436,2.4148,2.3948,2.3808,2.3467,2.3247,2.3113,2.2933,2.2928,2.2839,2.2665,2.2525,0.0,2.2964,2.3333,2.3613,2.4267,2.4557,2.4569,2.4569,2.4335,2.4093,2.4145,2.402,2.3969,2.4349,2.4408,2.4452,2.4841,2.4921,2.4958,2.5097,2.5127,2.5178,2.5293,2.544,2.5659,0.0,2.646,2.6781,2.6757,2.7193,2.742,2.734,2.7267,2.7638,2.8498,2.9274,3.0258,3.1437,3.0676,3.0605,3.1437,3.2333,3.1983,3.0266,3.1921,3.1992,3.0266,2.964,2.9298,2.9298,2.9298,2.9298,2.9298,2.9298,2.9298,2.9298,2.9298,2.9298,2.9298,2.9298,2.9298,2.9298,2.9298,2.9712,3.0471,3.2552,3.4424,3.6025,0.0,0.0,0.0,0.0,0.0,0.0,0.0,0.0,0.0,0.0,1.9078,1.9078,1.9078,1.9078,1.9078,1.9078,1.9748,2.0309,2.0647,2.1354,2.2129,2.2992,2.3296,2.3667,2.4112,2.4488,2.4636,2.4636,2.4636,2.4636,2.4636,2.4636,2.4636,2.4636,2.4636,2.4636,2.4623,2.4409,2.4275,2.4168,2.3741,2.3474,2.33,2.3073,2.2886,2.2712,2.2498,2.2365,2.2365,2.2699,2.3043,2.336,2.4004,2.4354,2.4437,2.4437,2.4203,2.402,2.4349,2.4262,2.4218,2.4848,2.4877,2.4833,2.5068,2.5127,2.5127,2.5127,2.5127,2.5154,2.5469,2.56,2.5849,2.6413,2.6581,2.672,2.6961,2.6991,2.7136,2.7412,2.7274,2.7347,2.792,2.8851,2.9767,3.0668,3.0124,3.0053,3.0881,3.1772,3.1358,2.9361,3.1288,3.1358,2.9298,2.9298,2.9298,2.9298,2.9298,2.9298,2.9298,2.9298,2.9298,2.9298,2.9298,2.9298,2.9298,2.9298,2.9298,2.9298,2.9298,2.9298,2.9433,3.0471,3.2482,3.4768,0.0,0.0,0.0,0.0,0.0,0.0,0.0,0.0,0.0,0.0,0.0,0.0,0.0,1.9078,1.9078,1.9078,1.9579,2.0116,2.0635,2.1185,2.2086,2.3345,2.337,2.3742,2.4562,2.4562,2.4636,2.4636,2.4636,2.4636,2.4636,2.4636,2.4636,2.4636,2.4636,2.4636,2.4636,2.4623,2.4462,2.4202,2.4182,2.3834,2.3327,2.3313,2.2946,2.2432,2.2418,2.2238,2.2063,2.2393,2.2586,2.2721,2.3349,2.3768,2.4101,2.4101,2.3866,2.3684,2.4005,2.4093,2.4166,2.4503,2.4877,2.5112,2.5119,2.5127,2.5127,2.5127,2.5127,2.5154,2.5469,2.5791,2.6113,2.6449,2.6764,2.6976,2.6991,2.6991,2.6991,2.6991,2.734,2.7558,0.0,2.8963,2.9528,2.8835,3.0107,3.0392,2.9433,2.9059,2.8987,2.9298,2.8995,2.8987,2.9298,2.9298,2.9298,2.9298,2.9298,2.9298,2.9298,2.9298,2.9298,2.9298,2.9298,2.9298,2.9298,2.9298,2.9298,2.9298,2.9298,2.9298,2.9298,2.9369,3.0337,3.2062,0.0,0.0,0.0,0.0,0.0,0.0,0.0,0.0,0.0,0.0,0.0,0.0,0.0,0.0,0.0,0.0,1.9573,1.9959,2.014,2.0985,2.1703,2.2092,2.2959,2.3519,2.3816,2.4341,2.4636,2.4636,2.4636,2.4636,2.4636,2.4636,2.4636,2.4636,2.4636,2.4636,2.4636,2.4636,2.4576,2.4476,2.4282,2.3855,2.3307,2.31,2.2645,2.2104,0.0,2.1777,2.1762,2.2151,2.2399,2.2693,2.332,2.3602,2.3757,2.3757,2.3837,2.3991,2.432,2.4408,2.4481,2.4877,2.5046,2.5127,2.5127,2.5127,2.5127,2.5127,2.5127,2.5154,2.5469,2.5615,2.5871,2.6413,2.6596,2.6742,2.6961,2.6991,2.6991,2.6991,2.7129,0.0,0.0,0.0,0.0,2.8346,2.8771,2.8915,2.8498,2.9544,2.9687,2.857,2.9822,3.0036,2.8923,2.9146,2.9298,2.9298,2.9298,2.9298,2.9298,2.9298,2.9298,2.9298,2.9298,2.9298,2.9298,2.9298,2.9298,2.9298,2.9298,2.9298,2.9298,2.9298,2.964,3.0337,0.0,0.0,0.0,0.0,0.0,0.0,0.0,0.0,0.0,0.0,0.0,0.0,0.0,0.0,0.0,0.0,0.0,1.9682,1.9875,2.0533,2.1062,2.1392,2.2225,2.2775,2.3064,2.3569,2.3858,2.4001,2.4222,2.4329,2.4329,2.4536,2.4636,2.4636,2.4636,2.4636,2.4636,2.4636,2.4516,2.4309,2.4122,2.3627,2.2979,2.2779,2.2338,0.0,2.1688,2.1547,2.146,2.1838,2.2157,2.2525,2.3157,2.35,2.3618,2.3735,2.3837,2.4005,2.4452,2.4569,2.4649,2.5046,2.5127,2.5127,2.5127,2.5127,2.509,2.4973,2.5046,2.5118,2.5322,2.5454,2.5747,2.6398,2.65,2.6617,2.6947,2.6991,2.6991,2.6991,2.6991,2.6991,0.0,0.0,0.0,2.792,2.792,2.7992,2.8065,2.9258,2.933,2.8137,2.9679,2.9894,2.8699,2.9074,2.9298,2.9298,2.9298,2.9298,2.9298,2.9298,2.9298,2.9298,2.9298,2.9298,2.9298,2.9298,2.9298,2.9298,2.9298,2.9298,2.9298,2.9298,2.9298,2.9505,0.0,0.0,0.0,0.0,0.0,0.0,0.0,0.0,0.0,0.0,0.0,0.0,0.0,0.0,0.0,0.0,0.0,0.0,1.9814,1.9869,2.0307,2.1158,2.1276,2.1634,2.2323,2.2392,2.2592,2.2859,2.344,2.3721,2.3741,2.4289,2.4543,2.4543,2.4543,2.4543,2.4543,2.4543,2.4229,2.3721,2.3721,2.3187,2.2398,2.2398,2.2038,2.1594,2.1594,2.1356,2.1192,2.1488,2.1866,2.2251,2.2943,2.3362,2.3684,2.4013,2.3888,2.3786,2.4423,2.4665,2.4664,2.5046,2.5127,2.5127,2.5127,2.5112,2.5009,2.4701,2.4818,2.5097,2.5097,0.0,2.574,2.6376,2.6493,2.6617,2.6947,2.6991,2.6991,0.0,2.6991,0.0,0.0,0.0,0.0,2.7558,0.0,2.7703,2.8065,2.8065,2.8065,2.8065,2.8491,2.8699,2.8699,2.9074,2.9298,2.9298,2.9298,2.9298,2.9298,2.9298,2.9298,2.9298,2.9298,2.9298,2.9298,2.9298,2.9298,2.9298,2.9298,2.9298,2.9298,2.9298,2.9298,2.9505,0.0,0.0,0.0,0.0,0.0,0.0,0.0,0.0,0.0,0.0,0.0,0.0,0.0,0.0,0.0,0.0,0.0,0.0,1.9271,1.9664,2.0014,2.0282,2.094,2.1358,2.1565,2.211,2.2454,2.2523,2.2951,2.3162,2.31,2.3247,2.3313,2.3313,2.3313,2.3313,2.3313,2.3313,2.3227,2.3162,2.3162,2.2692,2.2098,2.2098,2.173,2.1223,2.1223,2.1316,2.1467,2.1563,2.2138,2.2893,2.3264,2.3631,2.402,2.4349,2.4386,2.4415,2.4892,2.4995,2.5017,2.5105,2.5127,2.5127,2.5127,2.4936,2.4671,2.465,2.4701,2.476,2.476,2.5147,0.0,2.6076,2.6347,0.0,2.6947,2.6991,0.0,2.6991,2.6991,2.6991,2.6991,2.6991,0.0,0.0,2.7129,2.7202,2.7274,2.7558,2.7703,2.7703,2.8339,2.8699,2.8699,2.9074,2.9298,2.9298,2.9298,2.9298,2.9298,2.9298,2.9298,2.9298,2.9298,2.9298,2.9298,2.9298,2.9298,2.9298,2.9298,2.9298,2.9298,2.9298,2.9298,2.9369,0.0,0.0,0.0,0.0,0.0,0.0,0.0,0.0,0.0,0.0,0.0,0.0,0.0,0.0,0.0,0.0,0.0,0.0,0.0,1.9362,1.9531,1.9531,2.008,2.0367,2.0568,2.0962,2.1295,2.1633,2.209,2.2344,2.2485,2.2807,2.2928,2.2928,2.2928,2.2928,2.2928,2.2928,2.278,0.0,0.0,2.2124,2.1603,2.1603,2.1396,2.1109,2.1109,2.1303,2.1608,2.1761,2.2339,2.3138,2.357,2.3897,2.4159,2.4686,2.4753,2.4642,2.5031,2.5127,2.5127,2.5127,2.5127,2.509,2.4943,2.4767,2.4488,2.4203,2.4371,2.4569,2.4569,2.5096,2.5681,0.0,0.0,0.0,2.6947,2.6991,2.6991,2.6991,2.6991,2.6991,2.6991,2.6991,2.6991,0.0,2.6991,2.6991,2.6991,2.7412,2.7623,2.7623,2.8339,2.8771,2.8995,2.9218,2.9298,2.9298,2.9298,2.9298,2.9298,2.9298,2.9298,2.9298,0.0,2.9298,2.9298,2.9298,2.9298,2.9298,2.9298,2.9298,2.9298,2.9298,2.9298,2.9298,0.0,0.0,0.0,0.0,0.0,0.0,0.0,0.0,0.0,0.0,0.0,0.0,0.0,0.0,0.0,0.0,0.0,0.0,0.0,0.0,1.9078,1.9078,1.9078,1.9264,1.9514,1.9577,1.9903,2.0545,2.1111,2.1542,2.1877,2.2392,2.2625,2.2625,2.2625,2.2625,2.2625,2.2625,2.2338,2.1871,2.1871,2.1563,2.1109,0.0,2.1109,2.1116,2.1156,2.1363,2.1722,2.1944,2.2477,2.3103,2.3806,2.4021,2.4211,2.4904,2.4854,2.476,2.5046,2.5127,2.5127,2.5127,2.5127,2.5039,2.4709,2.454,2.4327,2.372,2.4049,2.4466,2.4554,2.5059,2.5696,2.6391,2.65,2.6617,2.6947,2.6991,2.6991,2.6991,2.6991,2.6991,2.6991,2.6991,2.6991,2.6991,2.6991,2.6991,2.6991,2.734,2.7558,2.7623,2.8266,2.8779,2.9226,2.9226,2.9226,2.9226,2.9298,2.9298,2.9298,2.9298,2.9298,2.9298,0.0,0.0,2.9298,2.9298,2.9298,2.9298,2.9298,2.9298,2.9298,2.9298,2.9298,2.9298,0.0,0.0,0.0,0.0,0.0,0.0,0.0,0.0,0.0,0.0,1.9078,1.9078,0.0,0.0,0.0,0.0,0.0,0.0,0.0,0.0,0.0,1.9078,1.9078,1.9142,1.9206,1.945,1.9775,2.017,2.0579,2.095,2.1263,2.1363,2.141,2.141,2.141,2.141,2.141,2.141,2.1356,2.1263,2.1263,2.1203,2.1109,2.1109,0.0,0.0,2.139,2.1663,2.1951,2.2245,2.2646,2.3137,2.3798,2.4214,2.4499,2.497,2.5083,2.5053,2.5105,2.5127,2.5127,2.5127,2.5127,2.5039,2.4709,2.4364,2.4057,2.3676,2.3684,2.3925,2.4466,2.4883,2.544,2.6354,2.65,2.6617,2.6947,2.6991,2.6991,2.6991,2.6991,2.6991,2.6991,2.6991,0.0,0.0,0.0,2.6991,2.6991,2.7063,2.7347,2.7992,2.8137,2.8418,2.8779,2.8779,2.8779,2.8843,2.9146,2.9298,2.9298,2.9298,2.9298,2.9298,0.0,0.0,2.9298,2.9298,2.9298,2.9298,2.9298,2.9298,2.9298,2.9298,2.9298,2.9298,0.0,0.0,0.0,0.0,0.0,0.0,0.0,1.9078,1.9078,1.9078,1.9078,1.9078,1.9078,1.9078,1.9078,0.0,0.0,0.0,0.0,0.0,0.0,0.0,1.9078,1.92,1.9392,1.9514,1.9839,2.0361,0.0,2.0799,2.1109,2.1109,2.1109,2.1109,2.1109,2.1109,2.1109,2.1109,2.1109,2.1109,2.1109,2.1109,2.1109,0.0,0.0,0.0,2.1269,2.151,2.1777,2.1924,2.2203,2.2605,2.3398,2.3952,2.427,2.4444,2.4785,2.509,2.4914,2.4995,2.5127,2.5127,2.5127,2.4995,2.443,2.4196,2.394,2.3442,2.3479,2.3793,2.4452,2.484,2.5315,2.612,2.6391,2.6559,2.6713,2.6888,2.6991,2.6991,2.6991,2.6991,2.6991,2.6991,2.6991,0.0,0.0,2.6991,2.6991,2.7347,2.763,2.7848,2.8202,2.8418,2.8418,2.8627,2.8699,2.8699,2.9146,2.9298,2.9298,2.9298,2.9298,2.9298,2.9298,0.0,2.9298,2.9298,2.9298,2.9298,2.9298,2.9298,2.9298,2.9298,2.9298,2.9298,0.0,0.0,0.0,0.0,0.0,0.0,0.0,1.9078,1.9078,1.9078,1.9078,1.9078,1.9078,1.9078,1.9078,0.0,0.0,0.0,0.0,0.0,0.0,0.0,0.0,0.0,0.0,0.0,0.0,2.0609,2.0609,0.0,0.0,0.0,0.0,0.0,2.1109,2.1109,2.1109,2.1109,2.1109,0.0,0.0,2.1109,0.0,0.0,0.0,0.0,0.0,2.1303,2.1614,2.1614,2.1809,2.213,2.2862,2.335,2.3728,2.3947,2.441,2.4845,2.4723,2.4929,2.5127,2.5127,2.5127,2.4951,2.4232,2.4086,2.3896,2.3245,2.331,2.3713,2.4437,2.4789,2.5103,2.5886,2.6171,2.6347,2.6486,2.672,2.691,2.6983,2.6991,0.0,2.6991,2.6991,0.0,0.0,0.0,0.0,2.6991,2.7565,2.7775,2.763,2.8194,2.8346,2.8065,2.8483,2.8699,2.8699,2.9146,2.9298,2.9298,2.9298,2.9226,2.9146,2.9146,0.0,0.0,2.9146,2.9226,2.9298,2.9298,2.9298,2.9298,2.9298,2.9298,2.9298,0.0,0.0,0.0,0.0,0.0,0.0,0.0,1.9078,1.9078,1.9078,1.9078,1.9078,1.9078,1.9078,1.9078,0.0,0.0,0.0,0.0,0.0,0.0,0.0,0.0,0.0,0.0,0.0,0.0,2.0609,2.0609,0.0,0.0,0.0,0.0,0.0,0.0,2.1109,2.1109,2.1109,0.0,0.0,0.0,0.0,0.0,0.0,0.0,0.0,0.0,2.1303,2.1614,2.1614,2.1809,2.1997,2.2117,2.2329,2.2838,2.3826,2.4125,2.4338,2.4867,2.5097,2.5127,2.5127,2.5127,2.4951,2.4232,2.4086,2.3896,2.3245,2.3135,2.3442,2.4393,2.4349,2.4576,2.5813,2.5791,2.5827,2.642,2.653,2.6661,2.6954,0.0,0.0,2.6991,0.0,0.0,0.0,0.0,0.0,2.6991,2.7063,2.7274,2.7558,2.7695,2.784,2.8065,2.8483,2.8699,2.8699,2.9146,2.9298,2.9298,2.9298,2.9074,2.8771,0.0,0.0,0.0,2.8771,2.8995,2.9298,2.9298,2.9298,2.9298,2.9298,2.9298,2.9298,0.0,0.0,0.0,0.0,0.0,0.0,1.9078,1.9078,1.9078,1.9078,1.9078,1.9078,1.9078,1.9078,1.9078,1.9078,0.0,0.0,0.0,0.0,0.0,0.0,0.0,0.0,0.0,0.0,2.0227,2.0919,2.0919,0.0,0.0,0.0,0.0,0.0,0.0,0.0,2.1109,2.1109,0.0,0.0,0.0,0.0,0.0,0.0,0.0,0.0,0.0,0.0,2.1289,2.1289,2.1363,2.1456,2.1456,2.1521,2.1839,2.2918,2.3605,2.4156,2.4422,2.4826,2.5127,2.5127,2.5127,2.4951,2.4232,2.4086,2.3896,2.3245,2.3106,2.3288,2.3874,2.4035,2.4313,2.503,2.5359,2.5688,2.6149,2.6376,2.6625,2.6947,2.6991,0.0,0.0,0.0,0.0,0.0,0.0,0.0,2.6991,2.7202,2.7347,2.7274,2.7485,2.7623,2.7775,2.813,2.8491,2.8699,2.9146,2.9298,2.9298,2.9298,2.9074,2.8699,0.0,0.0,0.0,2.8995,2.9146,2.9298,2.9298,2.9298,2.9298,2.9298,2.9298,2.9298,0.0,0.0,0.0,0.0,0.0,1.9078,1.9078,1.9078,1.9078,1.9078,1.9078,1.9078,1.9078,1.9078,1.9078,1.9078,1.9078,0.0,0.0,0.0,0.0,0.0,0.0,0.0,0.0,0.0,2.0418,2.1109,2.1109,2.1109,0.0,0.0,0.0,0.0,0.0,0.0,0.0,0.0,0.0,0.0,0.0,0.0,0.0,0.0,0.0,0.0,0.0,0.0,0.0,0.0,0.0,2.1109,2.1109,2.1109,2.1289,2.2169,2.3018,2.3751,2.4043,2.4495,2.5002,2.5097,2.5053,2.4766,2.421,2.4005,2.3779,2.3223,2.3106,2.3208,2.3537,2.3779,2.4079,2.4503,2.4949,2.5388,2.5813,2.6157,2.6449,2.6676,0.0,2.6844,0.0,0.0,0.0,0.0,0.0,0.0,0.0,2.7274,2.7267,2.6991,2.7492,2.7775,2.7775,2.8209,2.857,2.8851,2.9146,2.9298,2.9298,2.9298,2.9074,2.8699,0.0,0.0,0.0,2.9002,2.9218,2.9298,2.9298,2.9298,2.9298,2.9298,2.9298,2.9298,0.0,0.0,0.0,0.0,0.0,0.0,1.9078,1.9078,1.9078,1.9078,1.9078,1.9078,1.9078,1.9078,1.9078,1.9078,1.9078,0.0,0.0,0.0,0.0,0.0,0.0,0.0,0.0,0.0,2.0418,2.1109,2.1109,2.1109,2.1109,2.1109,2.1109,2.1109,0.0,0.0,0.0,0.0,0.0,0.0,0.0,0.0,0.0,0.0,0.0,0.0,0.0,0.0,0.0,0.0,0.0,0.0,0.0,2.1109,2.1233,2.1913,2.2323,2.2849,2.3865,2.437,2.4649,2.5046,2.4877,2.4488,2.4159,2.383,2.3508,2.3179,2.3106,2.3208,2.3537,2.3596,2.3815,2.4466,2.4643,2.4803,2.5447,2.582,2.6025,0.0,0.0,2.6508,0.0,0.0,0.0,0.0,0.0,0.0,0.0,2.6991,2.6991,2.6991,2.771,2.8065,2.8065,2.8859,2.9298,2.9298,2.9298,2.9298,2.9298,2.9298,2.9074,0.0,0.0,0.0,0.0,2.8699,2.8923,2.9298,2.9298,2.9298,2.9298,2.9298,2.9298,2.9298,0.0,0.0,0.0,0.0,0.0,0.0,0.0,1.9078,1.9078,1.9078,1.8285,1.8022,1.9008,1.8221,1.8028,1.9008,1.9078,0.0,0.0,0.0,0.0,0.0,0.0,0.0,0.0,2.0106,2.0418,2.1109,2.1109,2.1109,2.1109,2.1109,2.1109,2.1109,2.1109,0.0,0.0,0.0,0.0,0.0,0.0,0.0,0.0,0.0,0.0,0.0,0.0,0.0,0.0,0.0,0.0,0.0,0.0,0.0,0.0,2.1343,2.1838,2.2429,2.3199,2.3674,2.3999,2.4298,2.4313,2.4152,2.3823,2.3669,2.3501,2.3179,2.3106,2.3142,2.3245,2.3449,2.3735,2.4166,2.4423,2.4796,2.544,0.0,0.0,2.6318,2.6639,0.0,0.0,0.0,0.0,0.0,0.0,0.0,0.0,2.6991,2.7136,2.7412,2.763,2.7985,2.8491,2.8779,2.8995,2.9298,2.9298,2.9298,2.9298,2.9298,0.0,0.0,0.0,0.0,0.0,2.8995,2.9218,2.9298,2.9298,2.9298,2.9298,2.9298,2.9298,2.9298,0.0,0.0,0.0,0.0,0.0,0.0,0.0,1.8226,1.7706,1.8221,1.7566,1.7302,1.8221,1.8022,1.8156,1.9008,1.9078,0.0,0.0,0.0,0.0,0.0,0.0,0.0,2.0106,2.0106,2.0418,2.1109,2.1109,2.1109,2.1109,2.1109,2.1109,2.1109,2.1109,2.1109,0.0,0.0,0.0,0.0,0.0,0.0,2.1109,0.0,0.0,0.0,0.0,0.0,0.0,0.0,0.0,0.0,0.0,0.0,0.0,0.0,2.1433,2.1851,2.2545,2.3035,2.3472,2.3854,2.3926,2.3845,2.364,2.3501,2.3354,2.3149,2.3106,2.3106,2.3106,2.3274,2.3515,2.3845,2.4174,2.4569,0.0,0.0,0.0,2.6281,0.0,0.0,0.0,0.0,0.0,0.0,0.0,0.0,0.0,0.0,2.734,2.7623,2.7623,2.7913,2.8491,2.8483,2.8707,2.9074,2.9074,2.9146,2.9298,2.9298,0.0,0.0,0.0,0.0,0.0,2.9218,2.9298,2.9298,2.9298,2.9298,2.9298,2.9298,2.9298,2.9298,0.0,0.0,0.0,0.0,0.0,0.0,0.0,1.6861,1.5624,1.685,1.691,1.691,1.6974,1.8092,1.888,1.9072,0.0,0.0,0.0,0.0,0.0,0.0,0.0,0.0,2.0106,2.0106,2.0418,2.1109,2.1109,2.1109,2.1109,2.1109,2.1109,2.1109,2.1109,2.1109,2.1109,2.1109,2.1109,2.1109,2.1229,2.1235,0.0,0.0,0.0,0.0,0.0,0.0,0.0,0.0,0.0,0.0,0.0,0.0,0.0,0.0,0.0,0.0,0.0,2.2481,2.3057,2.3422,2.3529,2.3567,2.3559,2.3325,0.0,2.3106,2.3106,2.3106,2.3106,2.3106,2.3215,2.3545,2.3874,2.4196,2.4525,2.514,0.0,0.0,0.0,0.0,0.0,0.0,0.0,0.0,0.0,0.0,0.0,0.0,2.755,2.763,2.755,2.7703,2.8065,2.8065,2.8274,2.8627,2.8627,2.8851,2.9298,2.9298,0.0,0.0,0.0,0.0,0.0,2.9298,2.9298,2.9298,2.9298,2.9298,2.9298,2.9298,2.9298,2.9298,0.0,0.0,0.0,0.0,0.0,0.0,0.0,0.0,0.0,0.0,1.6073,1.5814,1.691,1.6333,1.6726,0.0,0.0,0.0,0.0,0.0,0.0,0.0,0.0,0.0,2.0106,2.0106,2.0418,2.1109,2.1109,2.1109,2.1109,2.1109,2.1109,2.1109,2.1109,2.1109,2.1109,2.1109,2.1109,2.1172,2.2215,2.2647,0.0,0.0,0.0,0.0,2.3076,2.2827,0.0,0.0,0.0,0.0,0.0,0.0,0.0,0.0,2.1109,2.1122,2.1316,0.0,2.2111,2.2687,2.284,2.2909,0.0,2.3164,2.3106,2.3106,2.3106,2.3106,2.3106,2.3106,2.3215,2.3545,2.3874,2.4196,2.4525,2.5337,0.0,2.6347,0.0,0.0,0.0,0.0,0.0,0.0,0.0,0.0,0.0,0.0,2.742,2.7992,2.742,2.742,2.8065,2.8065,2.8137,2.8202,2.8202,2.8418,2.8843,2.8843,0.0,0.0,0.0,0.0,2.9298,2.9298,2.9298,2.9298,2.9298,2.9298,2.9298,2.9298,2.9298,2.9298,0.0,0.0,0.0,0.0,0.0,0.0,0.0,0.0,0.0,0.0,0.0,1.5168,1.5944,1.6532,0.0,0.0,0.0,0.0,0.0,0.0,0.0,0.0,0.0,1.9398,2.0106,2.0106,2.0418,2.1109,2.1109,2.1109,2.1109,2.1109,2.1109,2.1109,2.1109,2.1418,2.2034,2.2034,2.2034,2.2153,2.345,0.0,0.0,0.0,0.0,0.0,2.3752,2.3876,0.0,2.1971,2.1481,2.1908,0.0,0.0,0.0,0.0,2.1109,2.1109,2.1109,2.1355,2.167,2.2048,2.2355,2.2668,2.2863,2.2981,2.3106,2.3106,2.3106,2.3106,2.3106,2.3106,2.3164,2.3347,2.3771,2.4298,2.492,0.0,2.6303,2.6486,0.0,0.0,0.0,0.0,0.0,0.0,0.0,0.0,0.0,0.0,2.7347,2.7565,2.742,2.7492,2.7848,2.7703,2.7703,2.7848,2.8065,2.8346,2.8699,2.8923,0.0,0.0,0.0,0.0,2.9298,2.9298,2.9298,2.9298,2.9298,2.9298,2.9298,2.9298,2.9298,2.9298,0.0,0.0,0.0,0.0,0.0,0.0,0.0,0.0,0.0,0.0,0.0,0.0,0.0,0.0,0.0,0.0,0.0,0.0,0.0,0.0,0.0,0.0,1.9078,1.9398,2.0106,2.0106,2.0418,2.1109,2.1109,2.1109,2.1109,2.1109,2.1109,2.1109,2.1109,2.1846,2.3076,2.2889,2.3014,2.3504,2.4564,0.0,0.0,0.0,0.0,0.0,0.0,0.0,0.0,2.2654,2.2153,2.2897,2.1538,0.0,0.0,0.0,0.0,0.0,2.1109,2.1299,2.1551,2.1614,2.2048,2.248,2.2613,2.2793,2.3043,2.3106,2.3106,2.3128,2.3171,2.3186,2.3201,2.3252,2.3764,2.4481,2.5403,2.6047,2.6449,0.0,0.0,0.0,0.0,0.0,0.0,0.0,0.0,0.0,0.0,0.0,0.0,2.7136,2.734,2.7485,2.7485,2.7202,2.7274,2.7623,2.792,2.8346,2.8699,2.9066,2.9226,0.0,0.0,0.0,2.9298,2.9298,2.9298,2.9298,2.9298,2.9298,2.9298,2.9298,2.9298,2.9298,0.0,0.0,0.0,0.0,0.0,0.0,0.0,0.0,0.0,0.0,0.0,0.0,0.0,0.0,0.0,0.0,0.0,0.0,0.0,0.0,0.0,1.9078,1.9078,1.9398,2.0106,2.0106,2.0418,2.1109,2.1109,2.1109,2.1109,2.1109,2.1109,2.1109,2.1109,2.1846,2.3014,2.1908,2.2709,2.4748,2.4933,0.0,0.0,0.0,0.0,0.0,0.0,0.0,0.0,2.3752,2.2952,2.2897,2.1538,0.0,0.0,0.0,0.0,0.0,2.1109,2.1172,2.1235,2.1544,2.167,2.1922,2.248,2.2668,2.2738,2.3043,2.3106,2.3193,2.3471,2.3523,2.361,2.3888,2.4247,2.4737,0.0,0.0,0.0,0.0,0.0,0.0,0.0,0.0,0.0,0.0,0.0,0.0,0.0,0.0,0.0,2.7485,2.7274,2.7056,2.7056,2.7347,2.7558,2.7623,2.792,2.8346,2.8699,2.8771,2.8995,0.0,0.0,2.9298,2.9298,2.9298,2.9298,2.9298,2.9298,2.9298,2.9298,2.9298,2.9298,2.9298,0.0,0.0,0.0,0.0,0.0,0.0,0.0,0.0,0.0,0.0,0.0,0.0,0.0,0.0,0.0,0.0,0.0,0.0,0.0,0.0,1.9078,1.9078,1.9264,1.9584,2.0106,2.0106,2.0418,2.1109,2.1109,2.1109,2.1109,2.1109,2.1109,2.1109,2.1109,2.1846,2.3076,2.2459,2.3263,2.5056,0.0,0.0,0.0,0.0,0.0,0.0,0.0,0.0,0.0,0.0,2.4131,2.3884,2.2584,0.0,0.0,0.0,0.0,0.0,2.1109,2.1109,2.1212,2.1501,2.1604,2.1734,2.2237,2.248,2.2668,2.305,2.3106,2.3208,2.3537,2.3596,2.3764,2.4269,2.462,2.4993,2.5461,2.5966,0.0,0.0,0.0,0.0,0.0,0.0,0.0,0.0,0.0,0.0,0.0,0.0,0.0,0.0,2.7136,2.7136,2.7347,2.7703,2.7775,2.763,2.813,2.8483,2.8699,2.8923,2.9146,2.9298,0.0,2.9298,2.9298,2.9298,2.9298,2.9298,2.9298,2.9298,2.9298,2.9298,2.9298,2.9298,0.0,0.0,0.0,0.0,0.0,0.0,0.0,0.0,0.0,0.0,0.0,0.0,0.0,0.0,0.0,0.0,0.0,0.0,0.0,1.8944,1.9078,1.9078,1.945,1.9775,2.0106,2.017,2.0482,2.1109,2.1109,2.1109,2.1109,2.1109,2.1109,2.1109,2.1109,2.1846,2.3076,2.2764,2.3574,2.5117,0.0,0.0,0.0,0.0,0.0,0.0,0.0,0.0,0.0,0.0,0.0,0.0,0.0,0.0,0.0,2.1172,2.1109,2.1109,2.1109,2.1109,2.1162,2.1396,2.1521,2.1667,2.2117,2.2455,2.2764,2.3143,2.3269,2.3435,2.3764,2.3888,2.4071,2.4503,2.4914,2.5169,0.0,0.0,0.0,0.0,0.0,0.0,0.0,0.0,0.0,0.0,0.0,0.0,0.0,0.0,0.0,0.0,2.6991,2.7136,2.7485,2.792,2.7992,2.784,2.8563,2.8843,2.8851,2.9146,2.9298,2.9298,2.9298,2.9298,2.9298,2.9298,2.9298,2.9298,2.9298,2.9298,2.9298,2.9298,2.9298,2.9298,0.0,0.0,0.0,0.0,0.0,0.0,0.0,0.0,0.0,0.0,0.0,0.0,0.0,0.0,0.0,0.0,0.0,0.0,0.0,1.8349,1.9078,1.9078,1.945,1.9775,2.0106,2.0418,2.0729,2.1109,2.1109,2.1109,2.1109,2.1109,2.1109,2.1109,2.1109,2.1846,2.3014,2.179,2.2716,2.4994,2.5117,0.0,0.0,0.0,0.0,0.0,0.0,0.0,0.0,0.0,0.0,0.0,0.0,0.0,2.2702,2.1481,2.1109,2.1109,2.1109,2.1109,2.1116,2.1136,2.14,2.1719,2.2315,2.2704,2.3088,2.3414,2.3746,2.4108,2.4437,2.4744,2.4936,2.4613,2.4914,0.0,0.0,0.0,0.0,0.0,0.0,0.0,0.0,0.0,0.0,0.0,0.0,0.0,0.0,0.0,0.0,0.0,0.0,2.6991,2.7063,2.7775,2.8274,2.8627,2.9074,2.9298,2.9298,2.9298,2.9298,2.9298,2.9298,2.9298,2.9298,2.9298,2.9298,2.9298,2.9298,2.9298,2.9298,2.9298,2.9298,2.9298,0.0,0.0,0.0,0.0,0.0,0.0,0.0,0.0,0.0,0.0,0.0,0.0,0.0,0.0,0.0,0.0,0.0,0.0,0.0,1.8291,1.9078,1.9078,1.9654,1.9979,2.0106,2.0418,2.0729,2.1109,2.1109,2.1109,2.1109,2.1109,2.1109,2.1109,2.1109,2.1355,2.1846,2.1292,2.2591,2.4933,2.4124,2.5109,0.0,0.0,0.0,0.0,0.0,0.0,0.0,0.0,2.5476,2.4432,2.376,2.2772,2.1783,2.1229,2.1109,2.1109,2.1109,2.1243,2.143,2.161,2.1737,2.1934,2.2185,2.2634,2.3093,2.342,2.3811,2.4181,2.451,2.484,2.5083,2.4958,2.5046,0.0,0.0,0.0,0.0,0.0,0.0,0.0,0.0,0.0,0.0,0.0,0.0,0.0,0.0,0.0,0.0,0.0,0.0,2.7129,2.734,2.7848,2.8274,2.8699,2.9146,2.9298,2.9298,2.9298,2.9298,2.9298,2.9298,2.9298,2.9298,2.9298,2.9298,2.9298,2.9298,2.9298,2.9298,2.9298,2.9298,2.9298,0.0,0.0,0.0,0.0,0.0,0.0,0.0,0.0,0.0,0.0,0.0,0.0,0.0,0.0,0.0,0.0,0.0,0.0,1.6398,1.8092,1.9078,1.9078,1.9724,2.0106,2.0106,2.0545,2.0856,2.1109,2.1109,2.1109,2.1109,2.1109,2.1109,2.1109,2.1109,2.1109,2.1109,2.1109,2.216,2.376,2.3263,2.4186,0.0,0.0,0.0,0.0,0.0,0.0,0.0,0.0,2.4863,2.3698,2.376,2.2834,2.1664,2.1229,2.1109,2.1109,2.1109,2.1329,2.1661,2.1797,2.1984,2.2137,2.2198,2.2559,2.299,2.3417,2.3984,2.443,2.4547,2.484,2.509,0.0,0.0,0.0,0.0,0.0,0.0,0.0,0.0,0.0,0.0,0.0,0.0,0.0,0.0,0.0,0.0,0.0,0.0,0.0,0.0,2.7202,2.7623,2.7848,2.8411,2.9401,2.9695,2.964,2.9298,2.9298,2.9298,2.9298,2.9298,2.9298,2.9298,2.9298,2.9298,2.9298,2.9298,2.9298,2.9298,2.9298,2.9298,2.9298,0.0,0.0,0.0,0.0,0.0,0.0,0.0,0.0,0.0,0.0,0.0,0.0,0.0,0.0,0.0,0.0,0.0,0.0,1.4973,1.7512,1.9072,1.9072,1.9724,2.0106,2.0106,2.0736,2.1109,2.1109,2.1109,2.1109,2.1109,2.1109,2.1109,2.1109,2.1109,2.1109,2.1109,2.1109,2.1109,2.1229,2.2522,2.3076,2.3263,0.0,0.0,0.0,0.0,0.0,0.0,0.0,2.3938,2.4502,2.1915,2.2034,2.2834,2.1475,2.1109,2.1109,2.1109,2.1329,2.1628,2.1628,2.1991,2.2418,2.2418,2.2457,2.2658,2.336,2.4348,2.5024,2.4627,2.484,0.0,0.0,0.0,0.0,0.0,0.0,0.0,0.0,0.0,0.0,0.0,0.0,0.0,0.0,0.0,0.0,0.0,0.0,0.0,0.0,0.0,0.0,2.7623,2.7623,2.8755,3.0943,3.0943,3.04,2.9369,2.9298,2.9298,2.9298,2.9298,2.9298,2.9298,2.9298,2.9298,2.9298,2.9298,2.9298,2.9298,2.9298,2.9298,2.9298,0.0,0.0,0.0,0.0,0.0,0.0,0.0,0.0,0.0,0.0,0.0,0.0,0.0,0.0,0.0,0.0,0.0,0.0,1.4842,1.6592,1.763,1.763,1.9194,2.0106,2.0106,2.0736,2.1109,2.1109,2.1109,2.1109,2.1109,2.1109,2.1109,2.1109,2.1109,2.1109,2.1109,2.1109,2.1664,2.2459,2.1908,2.2278,2.3139,0.0,0.0,0.0,0.0,0.0,0.0,0.0,0.0,0.0,2.2459,2.2153,2.1601,2.1235,2.1256,2.1423,2.1423,2.1784,2.2164,2.2164,2.2291,2.2418,2.2418,2.2619,2.299,2.3459,2.4405,2.5024,2.4627,2.484,0.0,0.0,0.0,0.0,0.0,0.0,0.0,0.0,0.0,0.0,0.0,0.0,0.0,0.0,0.0,0.0,0.0,0.0,0.0,0.0,0.0,0.0,3.0305,3.0589,3.1217,3.2123,3.2351,3.2491,3.2333,3.1296,3.0818,3.0818,2.9783,2.9298,2.9298,2.9298,2.9298,2.9298,2.9298,2.9298,2.9298,2.9298,2.9298,2.9298,0.0,0.0,0.0,0.0,0.0,0.0,0.0,0.0,0.0,0.0,1.4777,1.3735,0.0,0.0,0.0,0.0,0.0,0.0,0.0,1.5939,1.698,1.698,1.8996,2.0234,2.0482,2.0919,2.1109,2.1109,2.1109,2.1109,2.1109,2.1109,2.1109,2.1109,2.1109,2.1109,2.1109,2.1109,2.1538,2.2215,2.1418,2.1601,2.2341,0.0,0.0,0.0,0.0,0.0,0.0,0.0,0.0,0.0,2.2027,2.1727,2.1109,2.1109,2.1323,2.1614,2.1614,2.1977,2.2418,2.2418,2.2505,2.2565,2.2445,2.2821,2.3241,2.3523,2.4352,2.5061,2.487,2.4987,0.0,0.0,0.0,0.0,0.0,0.0,0.0,0.0,0.0,0.0,0.0,0.0,0.0,0.0,0.0,0.0,0.0,0.0,0.0,0.0,0.0,0.0,3.1719,3.1789,3.2482,3.3725,3.3803,3.4424,3.5451,3.33,3.2053,3.1437,2.9918,2.9298,2.9298,2.9298,2.9298,2.9298,2.9298,2.9298,2.9298,2.9298,2.9298,2.9298,0.0,0.0,0.0,0.0,0.0,0.0,0.0,0.0,0.0,0.0,1.4507,1.2882,0.0,0.0,0.0,0.0,0.0,0.0,0.0,1.5419,1.685,1.7044,1.906,2.0418,2.1109,2.1109,2.1109,2.1109,2.1109,2.1109,2.1109,2.1109,2.1109,2.1109,2.1109,2.1109,2.1109,2.1109,2.1109,2.1109,2.1109,2.1109,2.1109,2.1109,0.0,0.0,0.0,0.0,0.0,0.0,0.0,0.0,2.1109,2.1109,2.1109,2.1109,2.1323,2.1628,2.1648,2.1997,2.2425,2.2452,2.2659,2.2792,2.2525,2.2996,2.3451,2.3462,2.4334,2.5119,2.5083,2.5105,0.0,0.0,0.0,0.0,0.0,0.0,0.0,0.0,0.0,0.0,0.0,0.0,0.0,0.0,0.0,0.0,0.0,0.0,0.0,0.0,0.0,0.0,3.2421,3.2132,3.3179,0.0,3.5237,3.6141,3.8114,3.5247,3.3022,3.1437,3.0053,2.9433,2.9298,2.9298,2.9298,2.9298,2.9298,2.9298,2.9298,2.9298,2.9298,2.9298,0.0,0.0,0.0,0.0,0.0,0.0,0.0,0.0,0.0,0.0,0.0,0.0,0.0,0.0,0.0,0.0,0.0,0.0,0.0,1.5038,1.5949,1.7308,1.938,2.0672,2.1109,2.1109,2.1109,2.1109,2.1109,2.1109,2.1109,2.1109,2.1109,2.1109,2.1109,2.1109,2.1109,2.1109,2.1109,2.1109,2.1109,2.1109,2.1109,2.1109,2.1109,0.0,0.0,0.0,0.0,0.0,0.0,0.0,2.1109,2.1109,2.1109,2.1109,2.1323,2.1668,2.183,2.2151,2.2472,2.2706,2.2881,2.2914,2.2779,2.3106,2.3377,2.3165,2.4176,2.5046,2.4789,0.0,0.0,0.0,0.0,0.0,0.0,0.0,0.0,0.0,0.0,0.0,0.0,0.0,0.0,0.0,0.0,0.0,0.0,0.0,0.0,0.0,0.0,3.5099,3.5167,3.5344,3.5889,0.0,3.6924,3.7404,3.8114,3.6296,3.4001,3.1508,3.1155,3.0409,2.9298,2.9298,2.9298,2.9298,2.9298,2.9298,2.9298,2.9298,2.9298,2.9298,0.0,0.0,0.0,0.0,0.0,0.0,0.0,0.0,0.0,0.0,0.0,0.0,0.0,0.0,0.0,0.0,0.0,0.0,0.0,0.0,1.5033,1.7625,1.9571,2.0736,2.1109,2.1109,2.1109,2.1109,2.1109,2.1109,2.1109,2.1109,2.1109,2.1109,2.1109,2.1109,2.1109,2.1109,2.1109,2.1109,2.1109,2.1109,2.1109,2.1109,2.1109,2.1109,2.1109,0.0,0.0,0.0,0.0,0.0,0.0,0.0,2.1109,2.1109,2.1323,2.1681,2.1904,2.2198,2.2492,2.2786,2.2928,2.2928,2.2928,2.3133,2.3379,2.3472,2.4206,2.4798,0.0,0.0,0.0,0.0,0.0,0.0,0.0,0.0,0.0,0.0,0.0,0.0,0.0,0.0,0.0,0.0,0.0,0.0,0.0,0.0,0.0,0.0,3.5918,3.6016,3.6016,3.6326,3.6722,3.7079,3.7415,3.7827,3.8114,3.5879,3.4001,3.2473,3.1093,2.9989,2.9298,2.9298,2.9298,2.9298,2.9298,2.9298,2.9298,2.9298,2.9298,2.9298,0.0,0.0,0.0,0.0,0.0,0.0,0.0,0.0,0.0,0.0,0.0,0.0,0.0,0.0,0.0,0.0,0.0,0.0,0.0,0.0,0.0,1.7876,1.9763,2.0792,2.1109,2.1109,2.1109,2.1109,2.1109,2.1109,2.1109,2.1109,2.1109,2.1109,2.1109,2.1109,2.1109,2.1109,2.1109,2.1109,2.1109,2.1109,2.1109,2.1109,2.1109,2.1109,2.1109,2.1109,2.1109,2.1109,0.0,0.0,0.0,0.0,2.1109,2.1109,2.1283,2.1543,2.183,2.2158,2.2492,2.2786,2.2928,2.2928,2.2928,2.3133,2.3406,2.3891,2.4299,0.0,0.0,0.0,0.0,0.0,0.0,0.0,0.0,0.0,0.0,0.0,0.0,0.0,0.0,0.0,0.0,0.0,0.0,0.0,0.0,0.0,3.5312,3.5391,3.5732,3.5947,3.6016,3.6393,3.6799,3.7079,3.7492,3.7904,3.8114,3.5315,3.3923,3.3568,3.0881,2.9577,2.9298,2.9298,2.9298,2.9298,2.9298,2.9298,2.9298,2.9298,2.9298,2.9298,0.0,0.0,0.0,0.0,0.0,0.0,0.0,0.0,0.0,0.0,1.1901,1.2029,0.0,0.0,0.0,0.0,0.0,0.0,0.0,0.0,0.0,1.8011,1.9947,2.1046,2.1109,2.1109,2.1109,2.1109,2.1109,2.1109,2.1109,2.1109,2.1109,2.1109,2.1109,2.1109,2.1109,2.1109,2.1109,2.1109,2.1109,2.1109,2.1109,2.1109,2.1109,2.1109,2.1109,2.1109,2.1109,2.1109,2.1109,0.0,0.0,0.0,2.1109,2.1109,2.1136,2.1236,2.153,2.2004,2.2492,2.2786,2.2928,2.2928,2.2928,2.2934,2.3133,0.0,0.0,0.0,0.0,0.0,0.0,0.0,0.0,0.0,0.0,0.0,0.0,0.0,0.0,0.0,0.0,0.0,0.0,0.0,0.0,0.0,0.0,3.456,3.498,3.5381,3.5449,3.5654,3.6016,3.6684,3.7079,3.7079,3.777,3.8114,3.8114,3.6374,3.4905,3.3637,3.1913,3.0471,2.9298,2.9298,2.9298,2.9298,2.9298,2.9298,2.9298,2.9298,2.9298,2.9298,0.0,0.0,0.0,0.0,0.0,0.0,0.0,0.0,0.0,0.0,0.0,1.1376,0.0,0.0,0.0,0.0,0.0,0.0,0.0,0.0,0.0,1.6829,1.9546,2.1109,2.1109,2.1109,2.1109,2.1109,2.1109,2.1109,2.1109,2.1109,2.1109,2.1109,2.1109,2.1109,2.1109,2.1109,2.1109,2.1109,2.1109,2.1109,2.1109,2.1109,2.1109,2.1109,2.1109,2.1109,2.1109,2.1109,2.1109,2.1109,2.1109,0.0,0.0,0.0,2.1109,2.1176,2.1534,2.1977,2.2452,2.2579,2.2739,2.2928,2.2928,2.2928,2.3071,2.3543,0.0,0.0,0.0,0.0,0.0,0.0,0.0,0.0,0.0,0.0,0.0,0.0,0.0,0.0,0.0,0.0,0.0,0.0,0.0,0.0,3.3711,3.4111,3.4443,3.4648,3.5137,3.5478,3.5664,3.6632,3.729,3.7703,3.8048,3.8181,3.8114,3.5734,3.4337,3.3637,3.2123,3.0676,2.9298,2.9298,2.9298,2.9298,2.9298,2.9298,2.9298,2.9298,2.9298,2.9298,0.0,0.0,0.0,0.0,0.0,0.0,0.0,0.0,0.0,0.0,0.0,0.0,0.0,0.0,0.0,0.0,0.0,0.0,0.0,0.0,0.0,1.6496,1.9158,2.0716,2.1109,2.1109,2.1109,2.1109,2.1109,2.1109,2.1109,2.1109,2.1109,2.1109,2.1109,2.1109,2.1109,2.1109,2.1109,2.1109,2.1109,2.1109,2.1109,2.1109,2.1109,2.1109,2.1109,2.1109,2.1109,2.1109,2.1109,2.1109,2.1109,2.1109,0.0,0.0,0.0,2.1176,2.1534,2.1871,2.2231,2.2385,2.2585,2.2772,2.2914,0.0,2.2996,0.0,0.0,0.0,0.0,0.0,0.0,0.0,0.0,0.0,0.0,0.0,0.0,0.0,0.0,0.0,0.0,0.0,0.0,0.0,0.0,0.0,3.3418,3.373,3.3965,3.4072,3.4717,3.5166,3.5391,3.6532,3.7492,3.8181,3.8181,3.8181,3.8114,3.5451,3.4052,3.3568,3.171,3.0337,2.9298,2.9298,2.9298,2.9298,2.9298,2.9298,2.9298,2.9298,2.9298,2.9298,0.0,0.0,0.0,0.0,0.0,0.0,0.0,0.0,0.0,0.0,0.0,0.0,1.2816,1.2684,1.2161,1.085,1.0721,0.0,0.0,0.0,0.0,1.8244,1.8838,0.0,2.1046,2.1109,2.1109,2.1109,2.1109,2.1109,2.1109,2.1109,2.1109,2.1109,2.1109,2.1109,2.1109,2.1109,2.1109,2.1109,2.1109,2.1109,2.1109,2.1109,2.1109,2.1109,2.1109,2.1109,2.1109,2.1109,2.1109,2.1109,2.1109,2.1109,2.1109,0.0,0.0,0.0,2.1534,2.1641,2.173,2.2278,2.2432,2.2512,0.0,0.0,0.0,0.0,0.0,0.0,0.0,0.0,0.0,0.0,0.0,0.0,0.0,0.0,0.0,0.0,0.0,0.0,0.0,0.0,0.0,0.0,0.0,0.0,3.3418,3.3447,3.3643,3.4062,3.4121,3.4541,3.5391,3.6532,3.7492,3.8181,3.8181,3.8181,3.8114,3.6509,3.5042,3.3568,3.0676,2.9361,2.9298,2.9298,2.9298,2.9298,2.9298,2.9298,2.9298,2.9298,2.9298,2.9298,0.0,0.0,0.0,0.0,0.0,0.0,0.0,0.0,0.0,0.0,0.0,0.0,0.0,1.3604,1.3927,1.3473,1.2553,0.0,0.0,0.0,0.0,1.7087,1.9228,2.0589,2.1109,2.1109,2.1109,2.1109,2.1109,2.1109,2.1109,2.1109,2.1109,2.1109,2.1109,2.1109,2.1109,2.1109,2.1109,2.1109,2.1109,2.1109,2.1109,2.1109,2.1109,2.1136,2.1323,2.1396,2.1423,2.161,2.155,2.1396,2.1396,2.1263,2.1109,2.1109,2.1109,2.1129,2.1236,2.141,2.1668,2.181,2.2004,2.2171,2.2271,2.2445,0.0,0.0,0.0,0.0,0.0,0.0,0.0,0.0,0.0,0.0,0.0,0.0,0.0,0.0,0.0,0.0,0.0,0.0,0.0,0.0,0.0,0.0,3.3418,3.3418,3.3496,3.3652,3.3926,3.4622,3.5685,3.631,3.7064,3.7827,3.8114,3.8181,3.8114,3.6577,3.5597,3.4973,3.1992,3.0195,2.9298,2.9298,2.9298,2.9298,2.9298,2.9298,2.9298,2.9298,2.9298,2.9298,0.0,0.0,0.0,0.0,0.0,0.0,0.0,0.0,1.685,1.4507,0.0,0.0,0.0,0.0,1.5424,1.4907,1.4058,1.3468,1.3464,1.5019,1.6506,1.7929,1.9553,2.0589,2.1109,2.1109,2.1109,2.1109,2.1109,2.1109,2.1109,2.1109,2.1109,2.1109,2.1109,2.1109,2.1109,2.1109,2.1109,2.1109,2.1109,2.1109,2.1122,2.1223,2.1256,2.1296,2.159,2.1762,2.1789,2.1924,2.1797,2.1614,2.1614,2.1349,2.1109,2.1109,2.1109,2.1109,2.1109,2.1256,2.1494,2.1594,2.1762,2.1864,2.1964,0.0,0.0,0.0,0.0,0.0,0.0,0.0,0.0,0.0,0.0,0.0,0.0,0.0,0.0,0.0,0.0,0.0,0.0,0.0,0.0,0.0,0.0,0.0,3.3418,3.3418,3.3418,3.3418,3.3848,3.4605,3.5635,3.6132,3.6765,3.7601,3.7975,3.8181,3.8114,3.6577,3.5879,3.5743,3.33,3.1367,2.9989,2.9505,2.9298,2.9298,2.9298,2.9298,2.9298,2.9298,2.9298,2.9298,0.0,0.0,0.0,0.0,0.0,0.0,0.0,0.0,1.8612,1.7173,0.0,0.0,0.0,0.0,0.0,1.5103,1.4973,1.5814,1.7812,1.6716,1.749,2.0912,0.0,0.0,2.1046,2.1109,2.1109,2.1109,2.1109,2.1109,2.1109,2.1109,2.1109,2.1109,2.1109,2.1109,2.1109,2.1109,2.1109,2.1109,2.1122,2.1122,2.1156,2.145,2.1635,2.1668,2.1897,2.1997,2.1997,2.2004,2.181,2.1628,2.1608,2.1343,2.1109,2.1109,2.1109,2.1109,0.0,0.0,0.0,2.1534,0.0,0.0,2.1904,0.0,0.0,0.0,0.0,0.0,0.0,0.0,0.0,0.0,0.0,0.0,0.0,0.0,0.0,0.0,0.0,0.0,0.0,0.0,0.0,0.0,0.0,3.3418,3.3418,3.3418,3.3418,3.3418,3.3828,3.4374,3.5087,3.5942,3.6724,3.7498,3.7953,3.8171,3.8114,3.6654,3.5947,3.5889,3.4415,3.2952,3.1508,2.9989,2.9369,2.9298,2.9298,2.9298,2.9298,2.9298,2.9298,2.9298,0.0,0.0,0.0,0.0,0.0,1.8944,1.8547,1.888,1.8612,0.0,0.0,0.0,1.7173,1.7893,1.7963,1.6527,1.6656,1.6726,1.6522,1.7286,1.832,1.9553,2.0202,2.0716,2.1109,2.1109,2.1109,2.1109,2.1109,2.1109,2.1109,2.1109,2.1109,2.1109,2.1109,2.1109,2.1109,2.1109,2.1109,2.1129,2.1343,2.143,2.1463,2.1757,2.1864,2.1904,2.2191,2.2298,2.2331,0.0,2.2285,2.179,2.137,2.1176,2.1109,2.1109,2.1109,2.1109,2.1109,0.0,0.0,0.0,0.0,0.0,0.0,0.0,0.0,0.0,0.0,0.0,0.0,0.0,0.0,0.0,0.0,0.0,0.0,0.0,0.0,0.0,0.0,0.0,0.0,0.0,0.0,0.0,3.3418,3.3418,3.3418,3.3418,3.3418,3.3418,3.3545,3.3941,3.4704,3.521,3.5976,3.7084,3.7491,3.786,3.8191,3.777,3.7559,3.7492,3.5947,3.5042,3.4493,3.193,3.0258,2.9298,2.9298,2.9298,2.9298,2.9298,2.9298,2.9298,0.0,0.0,0.0,0.0,0.0,1.9078,1.9078,1.9078,1.881,0.0,0.0,0.0,1.7958,1.8617,1.8746,1.7958,1.815,1.815,1.7695,1.8722,1.9553,1.9877,2.0659,2.1109,2.1109,2.1109,2.1109,2.1109,2.1109,2.1109,2.1109,2.1109,2.1109,2.1109,2.1109,2.1109,2.1109,2.1109,2.1182,2.1296,2.1349,2.1507,2.1648,2.1877,2.1984,2.2038,2.2452,0.0,2.2632,2.2806,2.2552,0.0,2.1329,2.1196,2.1269,2.1149,2.1109,2.1109,2.1109,2.1109,2.1109,2.1109,0.0,0.0,2.1329,2.1527,0.0,0.0,0.0,0.0,0.0,0.0,0.0,0.0,0.0,0.0,0.0,0.0,0.0,0.0,0.0,0.0,0.0,0.0,0.0,0.0,3.3418,3.3418,3.3418,3.3418,3.3418,3.3418,3.3418,3.3672,3.4308,3.4806,3.5541,3.6391,3.7106,3.7632,3.7902,3.8098,3.8181,3.8114,3.728,3.6509,3.5743,3.4011,3.207,3.0124,2.9577,2.9298,2.9298,2.9298,2.9298,2.9298,0.0,0.0,1.9078,1.9078,1.9078,1.9078,1.9078,1.9078,1.9078,0.0,1.9078,1.9078,1.9078,1.9078,1.9136,1.9136,1.945,1.9775,2.0106,2.0482,2.0792,2.1109,2.1109,2.1109,2.1109,2.1109,2.1109,2.1109,2.1109,2.1109,2.1109,2.1109,2.1109,2.1109,2.1109,2.1109,2.1109,2.1109,2.1276,2.1601,2.1303,2.1383,2.1742,2.1971,2.2084,2.2151,2.2679,2.2928,2.2921,2.2854,2.2612,0.0,0.0,0.0,0.0,0.0,2.1136,2.1109,2.1109,2.1109,2.1109,2.1109,0.0,0.0,2.1149,2.1336,2.1661,0.0,0.0,0.0,0.0,0.0,0.0,0.0,0.0,0.0,0.0,0.0,0.0,0.0,0.0,0.0,0.0,0.0,3.3418,3.3418,3.3418,3.3418,3.3418,3.3418,3.3418,3.3418,3.3418,3.3544,3.3922,3.4625,3.5237,3.5605,3.682,3.7394,3.7508,3.7922,3.814,3.8181,3.8181,3.7415,3.6161,3.5967,3.4245,3.1604,3.0124,2.9513,2.9545,2.9377,2.9298,2.9298,0.0,1.9078,1.9078,1.9078,1.9078,1.9078,1.9078,1.9078,1.9078,1.9078,1.9078,1.9078,1.9078,1.9078,1.92,1.945,1.9781,2.0164,2.0482,2.0792,2.1046,2.1109,2.1109,2.1109,2.1109,2.1109,2.1109,2.1109,2.1109,2.1109,2.1109,2.1109,2.1109,2.1109,2.1109,2.1109,2.1109,2.1109,2.1276,2.1635,2.1744,2.1991,2.2285,2.2579,2.2692,2.2774,2.2887,2.2928,2.2861,2.2311,2.2271,2.2305,0.0,0.0,0.0,2.1547,0.0,0.0,0.0,0.0,0.0,0.0,0.0,0.0,2.141,2.1329,2.1349,0.0,0.0,0.0,0.0,0.0,0.0,0.0,0.0,0.0,0.0,0.0,0.0,0.0,0.0,0.0,0.0,0.0,3.3418,3.3418,3.3418,3.3418,3.3418,3.3418,3.3418,3.3418,3.3418,3.3544,3.3922,3.4315,3.4861,3.5605,3.6107,3.6773,3.7498,3.7591,3.7829,3.8181,3.8181,3.8048,3.7636,3.6405,3.4888,3.3115,3.1614,3.1106,3.0946,2.9729,2.9298,2.9298,1.9078,1.9078,1.9078,1.9078,1.9078,1.9078,1.9078,1.9078,1.9078,1.9078,1.9078,1.9078,1.9078,1.9264,1.945,1.9577,2.0036,2.0418,2.0609,2.0919,2.1109,2.1109,2.1109,2.1109,2.1109,2.1109,2.1109,2.1109,2.1109,2.1109,2.1109,2.1109,2.1109,2.1109,2.1109,2.1109,2.1122,2.1269,2.1496,2.177,2.177,0.0,2.2231,2.2532,2.2639,2.2659,2.2812,2.2928,2.2799,2.2352,2.2298,0.0,0.0,2.1735,2.1614,0.0,2.1343,2.1109,0.0,0.0,0.0,2.1109,0.0,0.0,0.0,2.1216,2.1236,0.0,0.0,0.0,0.0,0.0,0.0,0.0,0.0,0.0,0.0,0.0,0.0,0.0,0.0,0.0,0.0,0.0,3.3418,3.3418,3.3418,3.3418,3.3418,3.3418,3.3418,3.3418,3.3418,3.3481,3.367,3.3985,3.4471,3.5017,3.5556,3.6189,3.6844,3.7047,3.7394,3.7822,3.7822,3.7986,3.8125,3.7341,3.6628,3.5752,3.349,3.2579,3.2535,3.1743,3.1477,3.1477,1.92,1.9136,1.9078,1.9078,1.9078,1.9078,1.9078,1.9078,1.9078,1.9078,1.9142,1.9218,1.9209,1.9487,1.973,1.978,2.0253,2.0609,2.0672,2.0919,2.1109,2.1109,2.1109,2.1109,2.1109,2.1109,2.1109,2.1109,2.1109,2.1109,2.1109,2.1109,2.1109,2.1109,2.1109,2.1142,2.1209,2.1514,2.1717,2.1971,0.0,2.1857,2.2104,2.2392,2.2465,2.2458,2.2752,2.2928,2.2819,2.2519,2.2452,2.2445,2.2091,2.1824,0.0,0.0,0.0,0.0,0.0,0.0,0.0,0.0,0.0,2.1109,0.0,0.0,0.0,0.0,0.0,0.0,0.0,0.0,0.0,0.0,0.0,0.0,0.0,0.0,0.0,0.0,0.0,0.0,0.0,0.0,3.3418,3.3418,3.3418,3.3418,3.3418,3.3418,3.3418,3.3418,3.3418,3.3418,3.3418,3.3733,3.4047,3.4288,3.511,3.566,3.6026,3.649,3.6907,3.7371,3.7371,3.7616,3.7909,3.8006,3.8083,3.7796,3.516,3.4154,3.4059,3.3783,3.3705,3.367,1.9577,1.9328,1.9078,1.9078,1.9078,1.9078,1.9078,1.9078,1.9078,1.9078,1.9392,1.9542,1.9457,1.9797,2.0138,2.0385,2.0496,2.0736,2.1046,2.1109,2.1109,2.1109,2.1109,2.1109,2.1109,2.1109,2.1109,2.1109,2.1109,2.1109,2.1109,2.1109,2.1109,2.1109,2.1109,2.1256,2.1568,2.1601,2.1717,0.0,2.2231,2.2338,0.0,2.2699,2.2645,2.2458,2.2752,2.2928,2.2819,0.0,2.2592,2.2712,0.0,2.1964,2.1884,2.1695,0.0,0.0,0.0,0.0,0.0,0.0,2.1109,0.0,0.0,0.0,0.0,0.0,0.0,0.0,0.0,0.0,0.0,0.0,0.0,0.0,0.0,0.0,0.0,0.0,0.0,0.0,0.0,0.0,0.0,3.3418,3.3418,3.3418,3.3418,3.3418,3.3418,3.3418,3.3418,3.3418,3.3418,3.3733,3.3912,3.3955,3.4671,3.5231,3.5697,3.6029,3.6467,3.6905,3.6902,3.69,3.6987,3.7432,3.7616,3.7452,3.6179,3.5661,3.5489,3.4164,3.3707,3.367,1.9973,1.9647,1.9386,1.9386,1.92,1.9078,1.9078,1.9078,1.9078,1.9078,1.92,1.9426,1.976,1.9809,2.0143,2.0986,2.0955,2.105,0.0,2.1463,2.1443,2.161,2.1289,2.1189,2.1363,2.1196,2.1109,2.1109,2.1109,2.1109,2.1109,2.1109,2.1109,2.1116,2.1289,2.1501,2.1641,2.1911,2.2031,0.0,0.0,0.0,0.0,2.2686,2.2786,2.2692,2.2819,2.2928,2.2914,0.0,2.2645,0.0,0.0,0.0,0.0,0.0,0.0,0.0,0.0,0.0,0.0,0.0,0.0,0.0,2.1149,0.0,2.1109,0.0,0.0,0.0,0.0,0.0,0.0,0.0,0.0,0.0,0.0,0.0,0.0,0.0,0.0,0.0,0.0,0.0,0.0,0.0,0.0,3.3057,3.3057,3.3291,3.3418,3.3418,3.3418,3.3418,3.3418,3.3544,3.3723,3.3882,3.4398,3.4826,3.518,3.5521,3.5977,3.6384,3.6411,3.6577,3.6808,3.6985,3.7106,3.703,3.6581,3.679,3.7126,3.6258,3.5894,3.5751,2.0418,1.9966,1.9577,1.9577,1.9328,1.9078,1.9078,1.9078,1.9078,1.9078,1.92,1.9456,2.0061,2.0044,2.0431,2.1528,2.1378,2.1496,0.0,0.0,2.1748,2.1971,2.1503,2.1329,2.1614,2.1343,2.1189,2.1109,2.1109,2.1109,2.1109,2.1109,2.1109,2.1122,2.1336,2.1523,2.1769,2.2124,2.2271,2.2245,2.2452,2.2412,2.2265,2.2612,2.2792,2.2928,2.2928,2.2928,2.2928,2.2928,2.2719,0.0,2.2699,0.0,0.0,0.0,0.0,0.0,2.161,0.0,0.0,0.0,0.0,0.0,0.0,0.0,0.0,0.0,0.0,0.0,0.0,0.0,0.0,0.0,0.0,0.0,0.0,0.0,0.0,0.0,0.0,0.0,0.0,0.0,0.0,0.0,0.0,0.0,3.2793,3.3086,3.3301,3.3418,3.3418,3.3418,3.3418,3.3418,3.3534,3.3766,3.4216,3.4534,3.4758,3.518,3.5603,3.5934,3.5934,3.6121,3.6433,3.6582,3.6611,3.6611,3.678,3.7197,3.7772,3.7466,3.7326,3.7071,2.1046,2.0278,1.9577,1.9577,1.9328,1.9078,1.9078,1.9078,1.9078,1.9078,1.9392,1.9788,2.0333,2.0738,2.1182,2.1821,0.0,2.1977,2.1984,0.0,2.1748,0.0,0.0,2.1608,0.0,2.1608,2.1396,2.1109,2.1109,2.1109,2.1109,2.1109,2.1109,2.1109,2.1122,2.1436,2.1971,2.1991,2.2325,2.2839,2.2914,2.2914,2.2874,0.0,2.2612,2.2928,2.2928,0.0,0.0,2.2928,2.2921,0.0,0.0,0.0,0.0,0.0,0.0,0.0,0.0,0.0,0.0,2.1904,0.0,0.0,0.0,0.0,2.1109,0.0,0.0,0.0,0.0,0.0,0.0,0.0,0.0,0.0,0.0,0.0,0.0,0.0,0.0,0.0,0.0,0.0,0.0,0.0,0.0,0.0,3.2773,3.2803,3.2998,3.3408,3.3418,3.3418,3.3418,3.3418,3.3428,3.3418,3.41,3.4441,3.4419,3.5088,3.5428,3.5428,3.5428,3.5428,3.551,3.5966,3.609,3.6163,3.6609,3.6807,3.6863,3.6824,3.682,3.6745,2.1109,2.0475,1.9909,1.9909,1.9647,1.9392,1.9142,1.9078,0.0,0.0,1.9779,0.0,0.0,2.1164,2.1415,0.0,0.0,2.209,2.2552,2.2291,0.0,0.0,0.0,2.1837,0.0,0.0,0.0,2.1109,2.1109,2.1109,2.1109,2.1109,2.1109,2.1116,2.1316,2.1617,2.1997,0.0,0.0,0.0,0.0,2.2452,2.2311,0.0,0.0,2.2928,2.2928,2.2928,0.0,2.2928,2.2928,2.2914,2.2746,2.2579,2.2398,2.2298,2.2138,0.0,0.0,0.0,2.2151,2.2251,0.0,0.0,0.0,0.0,0.0,0.0,0.0,0.0,0.0,0.0,0.0,0.0,0.0,0.0,0.0,0.0,0.0,0.0,0.0,0.0,0.0,0.0,0.0,0.0,0.0,0.0,0.0,3.2646,3.2988,3.3408,3.3418,3.3418,3.3418,3.3418,3.3418,3.3428,3.3851,3.4193,3.4409,3.4841,3.518,3.5418,3.5418,3.5418,3.5428,3.5593,3.5614,3.5676,3.579,3.5862,3.5925,3.6216,3.6321,3.6286,2.1109,2.0736,2.0361,2.017,1.9711,1.9328,0.0,0.0,0.0,0.0,2.0005,0.0,2.1624,0.0,2.1741,0.0,2.2481,2.2455,2.2846,2.2585,0.0,2.2914,2.2398,0.0,0.0,0.0,0.0,0.0,2.1162,2.1109,2.1109,2.1109,2.1109,2.1116,2.1309,2.1557,2.185,2.2138,2.2325,0.0,0.0,2.2305,0.0,0.0,2.2706,2.2719,0.0,2.2928,2.2928,2.2928,2.2928,2.2928,2.2928,2.2732,2.2579,2.2579,2.2445,2.2338,2.2525,2.2498,0.0,2.2552,2.2278,0.0,2.1884,0.0,0.0,0.0,0.0,0.0,0.0,0.0,0.0,0.0,0.0,0.0,0.0,0.0,0.0,0.0,0.0,0.0,0.0,0.0,0.0,0.0,0.0,0.0,0.0,0.0,3.2806,3.3398,3.3418,3.3418,3.3418,3.3418,3.3418,3.3418,3.3759,3.4067,3.4438,3.4779,3.5088,3.5418,3.5418,3.5418,3.5418,3.5418,3.5418,3.5418,3.5418,3.5418,3.5428,3.5769,3.5862,3.579,2.1109,2.1109,2.0856,2.0234,1.959,0.0,0.0,0.0,1.9557,0.0,2.0067,2.0607,2.1416,2.1737,2.2152,2.2839,2.2928,2.2928,2.2928,2.2599,0.0,0.0,2.2592,2.2432,2.2418,0.0,0.0,0.0,0.0,2.1109,2.1109,2.1109,2.1109,2.1109,2.1109,2.1276,2.1635,2.185,2.2138,2.2418,2.2432,2.2432,2.2418,2.2432,2.2432,2.2458,2.2752,2.2928,2.2928,2.2928,2.2928,2.2928,2.2928,2.2928,2.2928,2.2928,2.2928,2.2928,2.2928,2.2652,2.2505,2.2792,0.0,0.0,0.0,0.0,2.205,0.0,0.0,0.0,0.0,0.0,0.0,0.0,0.0,0.0,0.0,0.0,0.0,0.0,0.0,0.0,0.0,0.0,0.0,0.0,0.0,0.0,0.0,0.0,3.2548,3.335,3.3408,3.3418,3.3418,3.3418,3.3418,3.3418,3.3696,3.4064,3.436,3.4706,3.5088,3.5366,3.5366,3.5418,3.5418,3.5418,3.5418,3.5418,3.5418,3.5418,3.5418,3.5418,3.5418,3.5418,2.1109,2.0919,2.0609,0.0,1.9979,1.9781,0.0,0.0,0.0,0.0,1.9837,2.0118,2.1616,2.1269,2.1458,2.2784,2.2928,0.0,0.0,0.0,0.0,2.2928,2.2786,2.2645,2.2425,2.2131,0.0,2.1614,0.0,2.1109,2.1109,2.1109,2.1109,2.1109,2.1109,2.1276,2.1621,2.1695,2.1957,2.2438,2.2659,2.2612,0.0,0.0,2.2612,2.2458,2.2752,2.2928,2.2928,2.2928,2.2928,2.2928,2.2928,2.2928,2.2928,2.2928,2.2928,2.2928,2.2928,2.2806,2.2766,2.2914,2.2856,2.2733,0.0,0.0,0.0,0.0,0.0,0.0,0.0,0.0,0.0,0.0,0.0,0.0,0.0,0.0,0.0,0.0,0.0,0.0,0.0,0.0,0.0,0.0,0.0,0.0,0.0,0.0,0.0,3.2936,3.3213,3.3418,3.3418,3.3418,3.3418,3.3418,3.351,3.3729,3.4011,3.4383,3.4684,3.5014,3.5304,3.5418,3.5418,3.5418,3.5418,3.5418,3.5418,3.5418,3.5418,3.5418,3.5418,3.5418,2.1109,2.0919,0.0,2.0361,0.0,0.0,1.9873,2.0128,0.0,2.0488,2.0495,0.0,2.1813,2.1718,2.1953,2.2791,2.2928,0.0,2.2928,0.0,0.0,2.2928,2.2928,2.2786,2.2612,2.2325,0.0,2.1737,0.0,2.1236,2.1109,2.1109,2.1109,2.1109,2.1109,2.1203,2.1376,2.1637,2.1931,2.2258,2.2552,0.0,0.0,2.2605,2.2645,2.2632,2.2806,2.2928,2.2928,2.2928,2.2928,2.2928,2.2928,2.2928,2.2928,2.2928,2.2928,2.2928,2.2928,2.2928,2.2928,2.2928,2.3011,2.3153,2.3153,2.3359,2.3441,0.0,0.0,0.0,0.0,0.0,0.0,0.0,0.0,0.0,0.0,0.0,0.0,0.0,0.0,0.0,0.0,0.0,0.0,0.0,0.0,0.0,0.0,0.0,0.0,3.2777,3.2994,3.3029,3.2848,3.3246,3.333,3.3144,3.334,3.3573,3.3928,3.4077,3.4413,3.4891,3.5118,3.5242,3.5418,3.5418,3.5418,3.5418,3.5418,3.5418,3.5418,3.5418,3.5418,3.5418,2.1109,2.1109,0.0,0.0,0.0,0.0,0.0,2.0642,0.0,2.0535,0.0,2.2024,2.1913,2.2345,2.2654,2.2866,0.0,2.2928,2.2928,2.2928,2.2928,2.2928,2.2928,2.2928,2.2928,2.2572,2.2278,0.0,0.0,2.1403,2.1109,2.1109,2.1109,2.1109,2.1109,0.0,0.0,2.175,2.2004,2.2071,2.2358,2.2478,2.2478,2.2478,2.2639,2.2928,2.2928,2.2928,2.2928,2.2928,2.2928,2.2928,2.2928,2.2928,2.2928,2.2928,2.2928,2.2928,2.2928,2.2928,2.2934,2.2928,2.3201,2.3475,2.3543,2.3884,2.4163,2.4095,2.3877,2.3806,0.0,0.0,0.0,0.0,0.0,0.0,0.0,0.0,0.0,0.0,0.0,0.0,0.0,0.0,0.0,0.0,0.0,0.0,0.0,0.0,0.0,0.0,3.2731,0.0,3.2295,0.0,3.3242,3.2881,3.3242,3.3544,3.3859,3.3875,3.4265,3.4809,3.4849,3.5066,3.5418,3.5418,3.5418,3.5418,3.5418,3.5418,3.5418,3.5418,3.5418,3.5418,2.1109,0.0,0.0,0.0,0.0,2.0799,2.1019,2.1312,2.1326,2.0835,2.0668,2.091,2.1826,2.137,2.1534,2.2791,2.2928,0.0,0.0,0.0,0.0,2.2928,2.2928,2.2928,2.2928,2.2572,2.2278,0.0,0.0,0.0,2.1109,2.1109,2.1109,2.1109,2.1109,0.0,2.1561,2.1844,0.0,2.2372,2.2665,2.2786,2.2786,2.2786,2.2819,2.2928,2.2928,2.2928,2.2928,2.2928,2.2928,2.2928,2.2928,2.2928,2.2928,2.2928,2.2928,2.2928,2.2928,2.2928,2.2996,2.327,2.3611,2.3959,2.4231,2.4645,2.4781,2.4503,2.4663,2.4943,2.5231,0.0,0.0,0.0,0.0,0.0,0.0,0.0,0.0,0.0,0.0,0.0,0.0,0.0,0.0,0.0,0.0,0.0,0.0,0.0,0.0,0.0,0.0,0.0,0.0,0.0,3.3389,3.331,3.3389,3.3418,3.3481,3.3743,3.412,3.4528,3.4797,3.5118,3.5418,3.5418,3.5418,3.5418,3.5418,3.5418,3.5418,3.5418,3.5418,3.5418,2.1109,0.0,0.0,0.0,0.0,0.0,0.0,2.1494,0.0,2.1124,2.1405,2.1754,2.2102,2.1945,2.2097,2.2859,2.2928,2.2928,2.2928,2.2928,2.2928,2.2928,2.2928,0.0,2.2928,2.2719,2.2432,2.1984,0.0,0.0,2.1109,2.1109,2.1109,2.1116,0.0,2.1423,0.0,0.0,0.0,2.2445,2.2746,2.2996,2.3133,2.3133,2.327,2.3406,2.3201,2.3133,2.3133,2.2934,2.2928,2.2928,2.2928,2.2928,2.2928,2.2928,2.2928,2.2928,2.2928,2.2928,2.2928,2.3133,2.3543,2.4027,2.4231,2.4713,2.5059,2.4849,2.4984,2.5539,2.6929,2.8682,0.0,0.0,0.0,0.0,0.0,0.0,0.0,0.0,0.0,0.0,0.0,0.0,0.0,0.0,0.0,0.0,0.0,0.0,0.0,0.0,0.0,0.0,0.0,0.0,0.0,3.2773,3.3213,3.3418,3.3428,3.3544,3.3796,3.4173,3.4485,3.4859,3.517,3.5356,3.5418,3.5418,3.5418,3.5418,3.5418,3.5418,3.5418,3.5418,0.0,2.1115,0.0,0.0,2.0664,0.0,2.0699,2.1334,2.1781,2.1446,2.231,2.2791,2.2448,2.2722,2.2928,2.2928,2.2928,2.2928,2.2928,2.2928,2.2928,2.2928,2.2928,2.2928,2.2928,2.2928,2.2605,0.0,0.0,0.0,0.0,2.1109,0.0,0.0,0.0,0.0,0.0,0.0,2.2452,2.2532,2.2902,2.3133,2.3406,2.3475,2.3747,2.3959,2.3543,2.3406,2.3338,2.2996,2.2928,2.2928,2.2928,2.2928,2.2928,2.2928,2.2928,2.2928,2.2928,2.2928,2.2934,2.3065,2.355,2.4027,2.4231,2.4713,2.5127,2.5127,2.5584,2.6608,2.8772,3.0266,0.0,0.0,0.0,0.0,0.0,0.0,0.0,0.0,0.0,0.0,0.0,0.0,0.0,0.0,0.0,3.1084,3.1485,3.1103,0.0,0.0,0.0,3.1904,3.166,0.0,3.2998,0.0,3.3105,3.3418,3.3418,3.3418,3.3607,3.3922,3.4173,3.4548,3.4922,3.5232,3.5418,3.5418,3.5418,3.5418,3.5418,3.5418,3.5418,3.5418,0.0,0.0,0.0,0.0,0.0,0.0,1.9987,2.1044,2.1991,2.2203,2.2585,2.2859,2.2866,2.2866,2.2928,2.2928,2.2928,2.2928,2.2928,2.2928,2.2928,2.2928,2.2928,2.2928,2.2928,2.2928,2.2706,0.0,0.0,0.0,0.0,0.0,0.0,0.0,0.0,0.0,0.0,2.2398,2.2572,2.2887,2.3188,2.3338,2.3406,2.3823,2.3959,2.3959,2.3543,2.3406,2.3338,2.2996,2.2928,2.2928,2.2928,2.2928,2.2928,2.2928,2.2928,2.2928,2.2928,2.2928,2.3065,2.3754,2.3959,2.4163,2.4849,2.5059,2.5127,2.5127,2.7094,2.9296,3.0744,3.1879,3.2523,0.0,0.0,0.0,0.0,0.0,0.0,0.0,0.0,0.0,0.0,0.0,0.0,0.0,0.0,3.1064,3.1455,3.1103,3.1094,3.1533,0.0,3.1748,3.21,3.2607,0.0,3.331,3.3379,3.3418,3.3418,3.3418,3.3607,3.3922,3.3922,3.4298,3.4922,3.5232,3.5418,3.5418,3.5418,3.5418,3.5418,3.5418,3.5418,3.5418,0.0,0.0,0.0,0.0,0.0,0.0,0.0,2.0506,2.19,2.1383,2.2235,2.2928,2.2928,2.2928,2.2928,2.2928,2.2928,2.2928,2.2928,2.2928,2.2928,2.2928,2.2928,2.2928,2.2928,2.2928,2.2719,0.0,0.0,0.0,0.0,0.0,0.0,0.0,0.0,2.2331,2.2767,2.2748,2.3025,2.355,2.3406,2.3679,2.4088,2.4231,2.4435,2.4578,2.4224,2.4088,2.3952,2.3406,2.3065,2.2928,2.2928,2.2928,2.2928,2.2928,2.2928,2.2928,2.2928,2.3065,2.327,2.3543,2.3952,2.4367,2.4638,2.4916,2.5127,2.5127,2.7286,2.9639,3.1056,3.2296,3.3033,0.0,0.0,0.0,0.0,0.0,0.0,0.0,0.0,0.0,0.0,0.0,0.0,0.0,0.0,0.0,3.1133,3.1221,0.0,3.1894,0.0,3.2109,3.2539,3.2715,3.2881,3.3047,3.3301,3.3418,3.3418,3.3418,3.367,3.4173,3.4173,3.461,3.5232,3.5356,3.5418,3.5418,3.5418,3.5418,3.5418,3.5418,3.5418,3.5418,1.6528,0.0,1.6546,0.0,1.8064,1.9073,1.8383,2.0666,2.2166,2.1396,2.2235,2.2928,2.2928,2.2928,2.2928,2.2928,2.2928,2.2928,2.2928,2.2928,2.2928,2.2928,2.2928,0.0,2.2928,2.2928,2.2759,2.2545,2.2258,0.0,0.0,0.0,0.0,0.0,2.2465,2.2808,2.3105,2.3181,2.3543,2.3959,2.3816,2.402,2.4503,2.4638,2.4849,2.5059,2.4638,2.4503,2.4367,2.3679,2.3338,2.3208,2.3003,2.2928,2.2928,2.2928,2.2928,2.2928,2.2928,2.3133,2.3406,2.3543,2.402,2.4503,2.4638,2.4916,2.5322,2.6107,2.7874,2.977,3.1579,3.2702,3.3287,3.2874,0.0,0.0,0.0,0.0,0.0,0.0,3.1898,3.2213,3.2175,0.0,0.0,0.0,0.0,0.0,0.0,0.0,0.0,0.0,0.0,0.0,0.0,3.2607,3.2734,3.2978,3.3281,3.3418,3.3418,3.3418,3.3733,3.4235,3.436,3.4735,3.5232,3.5356,3.5418,3.5418,3.5418,3.5418,3.5418,3.5418,3.5418,3.5418,1.6772,1.6793,1.6929,1.7003,1.8457,1.9835,2.0299,2.1767,2.2859,2.2859,2.2859,2.2928,2.2928,2.2928,2.2928,2.2928,2.2928,2.2928,2.2928,2.2928,2.2928,0.0,0.0,2.2928,2.2928,2.2928,2.2928,2.2859,0.0,0.0,2.1977,0.0,2.1857,2.2412,2.2821,2.3126,2.34,2.3823,2.3959,2.4027,2.4367,2.4503,2.457,2.4916,2.5127,2.5059,2.4638,2.4503,2.4367,2.3679,2.3679,2.3891,2.314,2.2928,2.2928,2.2928,2.2928,2.2928,2.2928,2.3133,2.3475,2.3891,2.4231,2.457,2.4984,2.5127,2.5846,2.86,2.9182,3.003,3.2838,3.3364,3.3242,3.2838,0.0,0.0,0.0,0.0,0.0,0.0,3.1928,3.2215,3.2199,0.0,0.0,0.0,0.0,0.0,0.0,0.0,0.0,3.1514,3.1123,0.0,3.2229,3.2238,3.2588,3.3418,3.3418,3.3418,3.3418,3.3418,3.3607,3.3922,3.4235,3.461,3.4922,3.5232,3.5418,3.5418,3.5418,3.5418,3.5418,3.5418,3.5418,3.5418,1.3349,1.3484,1.3803,1.4082,1.5695,1.7027,1.7441,1.8824,1.9849,1.9849,1.9849,1.9849,1.9849,2.0762,2.1327,0.0,2.0409,2.0271,0.0,2.1327,2.1816,2.2859,2.2928,2.2928,2.2928,2.2928,2.2928,2.2928,0.0,0.0,0.0,2.2392,2.2613,2.2787,2.3127,2.3453,2.3823,2.3959,2.4299,2.4713,2.457,2.4638,2.4916,2.5059,2.5127,2.5059,2.4916,2.4916,2.4849,2.4299,2.4231,2.4231,2.3475,2.327,2.3201,2.2996,2.2928,2.2928,2.3201,2.3543,2.3884,2.4231,2.4638,2.4916,2.5059,2.5127,2.5913,2.86,2.9182,3.003,3.2902,3.3418,3.3287,3.2855,3.3054,0.0,0.0,0.0,0.0,0.0,3.2119,3.2319,0.0,3.2207,0.0,0.0,0.0,0.0,0.0,0.0,0.0,0.0,3.2256,0.0,3.3018,3.2744,3.2871,3.3418,3.3418,3.3418,3.3418,3.3418,3.3607,3.3922,3.4235,3.461,3.4922,3.5232,3.5418,3.5418,3.5418,3.5418,3.5418,3.5418,3.5418,3.5418,1.1958,1.2119,1.2757,1.3674,1.4946,1.6216,1.7624,1.8105,1.8594,1.9153,1.8734,1.8379,1.8379,1.8734,0.0,1.9715,1.8944,1.8804,1.9715,2.0277,2.1051,2.2022,2.2578,2.2928,2.2928,0.0,0.0,2.2928,2.2679,2.2585,2.2585,2.2772,2.2996,2.3133,2.3475,2.3816,2.4231,2.4367,2.4713,2.5059,2.4849,2.4849,2.5127,2.5127,2.5127,2.5127,2.5127,2.5127,2.5052,2.4638,2.457,2.457,2.3884,2.3679,2.3747,2.3201,2.3065,2.3133,2.3543,2.3891,2.4231,2.4435,2.4781,2.5127,2.5127,2.5517,2.6517,2.8741,2.9643,3.0658,3.2975,3.3418,3.3335,3.3087,3.3253,3.3185,3.2541,0.0,0.0,0.0,0.0,0.0,0.0,3.2559,0.0,0.0,0.0,0.0,0.0,0.0,0.0,3.2549,3.2559,0.0,3.3184,3.293,3.3008,3.3418,3.3418,3.3418,3.3418,3.3418,3.3607,3.3922,3.4235,3.461,3.4922,3.5232,3.5418,3.5418,3.5418,3.5418,3.5418,3.5418,3.5418,3.5418,1.2266,1.2545,0.0,0.0,1.5726,0.0,1.986,1.9013,1.8594,2.0069,1.9013,1.8105,1.8105,1.678,1.6503,1.7965,0.0,0.0,0.0,1.9507,2.0346,2.056,2.1953,2.2791,2.2928,2.2928,2.2928,2.2928,2.2928,2.2928,2.2928,2.2928,2.3065,2.3406,2.3823,2.4163,2.4503,2.4916,2.5127,2.5127,2.5127,2.5127,2.5127,2.5127,2.5127,2.5127,2.5127,2.5127,2.5052,2.4638,2.4774,2.4991,2.4231,2.4231,2.4367,2.3679,2.3406,2.3543,2.3959,2.4231,2.4503,2.4503,2.4849,2.5127,2.5127,2.604,2.7392,2.8859,3.0215,3.1635,3.3111,3.3418,3.3418,3.3418,3.3418,3.3232,3.288,0.0,0.0,0.0,0.0,0.0,0.0,3.2842,3.2832,0.0,0.0,0.0,0.0,0.0,3.2256,3.2256,3.2256,3.2441,3.2832,3.2842,3.3037,3.3418,3.3418,3.3418,3.3418,3.3418,3.3544,3.3859,3.4235,3.461,3.4922,3.5232,3.5418,3.5418,3.5418,3.5418,3.5418,3.5418,3.5418,3.5418,0.0,0.0,1.3325,1.3749,1.4177,1.5026,1.6851,1.5938,1.5518,1.6992,1.5867,1.4955,1.4955,1.4675,1.4604,1.4955,1.4955,1.5447,1.6569,1.6992,1.818,2.0491,2.0975,2.1678,2.2859,2.2928,2.2928,2.2928,2.2928,2.2928,2.2928,2.2928,2.3065,2.3406,2.3823,2.4163,2.4503,2.4916,2.5127,2.5127,2.5127,2.5127,2.5127,2.5127,2.5127,2.5127,2.5127,2.5127,2.5119,2.4984,2.4991,2.4991,2.4503,2.4435,2.4435,2.3959,2.3891,2.3959,2.4299,2.4435,2.457,2.4849,2.5052,2.5127,2.5127,2.5322,2.628,2.8726,2.9442,3.0455,3.2965,3.3418,3.3418,3.3418,3.3418,3.3232,3.288,3.2865,0.0,0.0,3.2734,3.292,3.3242,3.3271,3.3144,0.0,0.0,0.0,0.0,3.2832,3.3125,3.3125,3.3125,3.3174,3.3271,3.3271,3.333,3.3418,3.3418,3.3418,3.3418,3.3418,3.3418,3.3544,3.4173,3.4423,3.4548,3.517,3.5418,3.5418,3.5418,3.5418,3.5418,3.5418,3.5418,3.5418,1.276,1.3043,1.3325,1.3539,1.3757,1.4395,1.5872,1.4817,1.4395,1.5943,1.4817,1.39,1.39,1.39,1.39,1.39,1.39,1.4252,1.5026,1.573,1.7132,1.9507,2.0207,2.1327,2.2859,2.2928,2.2928,2.2928,2.2928,2.2928,2.2928,2.2928,2.3208,2.3679,2.3891,2.4299,2.4774,2.4984,2.5127,2.5127,2.5127,2.5127,2.5127,2.5127,2.5127,2.5127,2.5127,2.5127,2.5127,2.5127,2.5127,2.5052,2.4849,2.4781,2.4713,2.4578,2.4367,2.4299,2.4645,2.4781,2.4849,2.5059,2.5127,2.5127,2.5127,2.6093,2.739,2.8915,3.0222,3.1598,3.3092,3.3418,3.3418,3.3418,3.3276,3.3041,3.2858,3.2816,0.0,3.2793,3.2969,3.3174,3.3398,3.3418,3.333,3.3096,0.0,0.0,3.2754,3.2998,3.3135,3.3135,3.332,3.3418,3.3418,3.3418,3.3418,3.3418,3.3418,3.3418,3.3418,3.3418,3.3418,3.3418,3.411,3.4423,3.4423,3.5108,3.5418,3.5418,3.5418,3.5418,3.5418,3.5418,3.5418,3.5418,1.3325,1.3325,1.3472,1.3829,1.39,1.4324,1.5589,1.4675,1.4324,1.5593,1.4675,1.39,1.39,1.39,1.39,1.39,1.39,1.39,1.39,1.5097,1.6433,1.7965,1.9507,2.0975,2.2516,2.2791,2.2928,2.2928,2.2928,2.2928,2.2928,2.2928,2.3277,2.4027,2.4027,2.4435,2.5127,2.5127,2.5127,2.5127,2.5127,2.5127,2.5127,2.5127,2.5127,2.5127,2.5127,2.5127,2.5127,2.5127,2.5127,2.5127,2.5127,2.5127,2.5127,2.5127,2.4849,2.4638,2.4984,2.5127,2.5127,2.5127,2.5127,2.5119,2.539,2.7224,2.8973,2.9421,3.1442,3.317,3.3345,3.3418,3.3398,3.334,3.3011,3.2779,3.2695,0.0,3.2793,3.2793,3.3164,3.3418,3.3418,3.3418,3.3418,3.3418,3.3086,3.3018,0.0,3.3047,3.2861,3.2793,3.3203,3.3418,3.3418,3.3418,3.3418,3.3418,3.3418,3.3418,3.3418,3.3418,3.3418,3.3418,3.4047,3.436,3.4423,3.5046,3.5356,3.5418,3.5418,3.5418,3.5418,3.5418,3.5418,3.5418,1.3396,1.3539,1.3829,1.39,1.39,1.3971,1.4185,1.4043,1.3971,1.4185,1.4043,1.39,1.39,1.39,1.39,1.39,1.39,1.39,1.39,1.4114,1.4884,1.6362,1.7895,1.9431,2.0906,2.2235,2.2928,2.2928,2.2928,2.2928,2.2928,2.2928,2.3277,2.4027,2.4027,2.4435,2.5127,2.5127,2.5127,2.5127,2.5127,2.5127,2.5127,2.5127,2.5127,2.5127,2.5127,2.5127,2.5127,2.5127,2.5127,2.5127,2.5127,2.5127,2.5127,2.5127,2.5052,2.4991,2.5059,2.5127,2.5127,2.5127,2.5127,2.5382,2.6561,2.7134,2.8113,3.0482,3.1322,3.2008,3.318,3.3418,3.331,3.2949,3.2822,3.2708,3.2314,0.0,3.2793,3.2793,3.3164,3.3418,3.3418,3.3418,3.3418,3.3418,3.3359,3.3203,3.291,3.3164,3.3164,3.2803,3.3203,3.3418,3.3418,3.3418,3.3418,3.3418,3.3418,3.3418,3.3418,3.3418,3.3418,3.3418,3.3796,3.411,3.4423,3.4797,3.517,3.5418,3.5418,3.5418,3.5418,3.5418,3.5418,3.5418,1.3686,1.3757,1.39,1.39,1.39,1.39,1.39,1.39,1.39,1.39,1.39,1.39,1.39,1.39,1.39,1.39,1.39,1.39,1.39,1.39,1.4533,1.6013,1.678,1.825,2.056,2.2091,2.2928,2.2928,2.2928,2.2928,2.2928,2.2928,2.3277,2.4027,2.4027,2.4435,2.5127,2.5127,2.5127,2.5127,2.5127,2.5127,2.5127,2.5127,2.5127,2.5127,2.5127,2.5127,2.5127,2.5127,2.5127,2.5127,2.5127,2.5127,2.5127,2.5127,2.5127,2.5127,2.5127,2.5127,2.5127,2.5127,2.5127,2.542,2.6787,2.7679,2.8818,3.0874,3.1922,3.2602,3.3262,3.3418,3.3281,3.2861,3.2793,0.0,0.0,3.2529,3.2793,3.2793,3.3164,3.3418,3.3418,3.3418,3.3418,3.3418,3.3418,3.334,3.3144,3.332,3.333,3.3135,3.332,3.3418,3.3418,3.3418,3.3418,3.3418,3.3418,3.3418,3.3418,3.3418,3.3418,3.3418,3.3733,3.411,3.4423,3.4735,3.5108,3.5418,3.5418,3.5418,3.5418,3.5418,3.5418,3.5418,1.39,1.39,1.39,1.39,1.39,1.39,1.39,1.39,1.39,1.39,1.39,1.39,1.39,1.39,1.39,1.39,1.39,1.39,1.39,1.39,1.4395,1.5518,1.6291,1.79,2.056,2.2091,2.2928,2.2928,2.2928,2.2928,2.2928,2.2928,2.3277,2.4027,2.4027,2.4435,2.5127,2.5127,2.5127,2.5127,2.5127,2.5127,2.5127,2.5127,2.5127,2.5127,2.5127,2.5127,2.5127,2.5127,2.5127,2.5127,2.5127,2.5127,2.5127,2.5127,2.5127,2.5127,2.5127,2.5127,2.5127,2.5127,2.5127,2.554,2.7244,2.8446,2.9675,3.1455,3.2666,3.3418,3.3418,3.3418,3.3281,3.2861,0.0,0.0,0.0,3.2588,3.2832,3.293,3.3223,3.3418,3.3418,3.3418,3.3418,3.3418,3.3418,3.3418,3.3418,3.3418,3.3418,3.3418,3.3418,3.3418,3.3418,3.3418,3.3418,3.3418,3.3418,3.3418,3.3418,3.3418,3.3418,3.3418,3.3733,3.411,3.4423,3.4735,3.5108,3.5418,3.5418,3.5418,3.5418,3.5418,3.5418,3.5418,1.39,1.39,1.39,1.39,1.39,1.39,1.39,1.39,1.39,1.39,1.39,1.39,1.39,1.39,1.39,1.39,1.39,1.39,1.39,1.39,1.3971,1.4043,1.6775,1.8944,2.056,2.2091,2.2928,2.2928,2.2928,2.2928,2.2928,2.2928,2.3277,2.4027,2.4027,2.4435,2.5127,2.5127,2.5127,2.5127,2.5127,2.5127,2.5127,2.5127,2.5127,2.5127,2.5127,2.5127,2.5127,2.5127,2.5127,2.5127,2.5127,2.5127,2.5127,2.5127,2.5127,2.5127,2.5127,2.5127,2.5127,2.5127,2.5127,2.5779,2.8443,2.9158,2.9995,3.2698,3.3345,3.3418,3.3418,3.3418,3.3281,3.2861,0.0,0.0,3.2754,3.2773,3.2939,3.333,3.3408,3.3418,3.3418,3.3418,3.3418,3.3418,3.3418,3.3418,3.3418,3.3418,3.3418,3.3418,3.3418,3.3418,3.3418,3.3418,3.3418,3.3418,3.3418,3.3418,3.3418,3.3418,3.3418,3.3418,3.3733,3.411,3.4423,3.4735,3.5108,3.5418,3.5418,3.5418,3.5418,3.5418,3.5418,3.5418,1.39,1.39,1.39,1.39,1.39,1.39,1.39,1.39,1.39,1.39,1.39,1.39,1.39,1.39,1.39,1.39,1.39,1.39,1.39,1.39,1.39,1.39,1.6771,1.8664,1.9222,2.1672,2.2928,2.2928,2.2928,2.2928,2.2928,2.2928,2.3277,2.4027,2.4027,2.4435,2.5127,2.5127,2.5127,2.5127,2.5127,2.5127,2.5127,2.5127,2.5127,2.5127,2.5127,2.5127,2.5127,2.5127,2.5127,2.5127,2.5127,2.5127,2.5127,2.5127,2.5127,2.5127,2.5127,2.5127,2.5127,2.5127,2.5127,2.5562,2.7471,2.8557,2.9747,3.1698,3.2765,3.3418,3.3418,3.3418,3.3281,3.2861,0.0,3.3086,3.2832,3.3018,3.3242,3.3408,3.3418,3.3418,3.3418,3.3418,3.3418,3.3418,3.3418,3.3418,3.3418,3.3418,3.3418,3.3418,3.3418,3.3418,3.3418,3.3418,3.3418,3.3418,3.3418,3.3418,3.3418,3.3418,3.3481,3.3733,3.3859,3.4235,3.4735,3.4859,3.5108,3.5418,3.5418,3.5418,3.5418,3.5418,3.5418,3.5418,1.39,1.39,1.39,1.39,1.39,1.39,1.39,1.39,1.39,1.39,1.39,1.39,1.39,1.39,1.39,1.39,1.39,1.39,1.39,1.39,1.39,1.39,1.6357,1.7895,1.8379,2.09,2.2441,2.2928,2.2928,2.2928,2.2928,2.2996,2.3413,2.4027,2.4095,2.4503,2.5127,2.5127,2.5127,2.5127,2.5127,2.5127,2.5127,2.5127,2.5127,2.5127,2.5127,2.5127,2.5127,2.5127,2.5127,2.5127,2.5127,2.5127,2.5127,2.5127,2.5127,2.5127,2.5127,2.5127,2.5127,2.5127,2.5127,2.5435,2.68,2.8213,2.9574,3.0992,3.2438,3.3418,3.3418,3.3418,3.333,3.3037,3.3232,3.332,3.3037,3.3242,3.3418,3.3418,3.3418,3.3418,3.3418,3.3418,3.3418,3.3418,3.3418,3.3418,3.3418,3.3418,3.3418,3.3418,3.3418,3.3418,3.3418,3.3418,3.3418,3.3418,3.3418,3.3418,3.3418,3.3481,3.367,3.3922,3.411,3.4485,3.4922,3.4984,3.517,3.5418,3.5418,3.5418,3.5418,3.5418,3.5418,3.5418,1.39,1.39,1.39,1.39,1.39,1.39,1.39,1.39,1.39,1.39,1.39,1.39,1.39,1.39,1.39,1.39,1.39,1.39,1.39,1.39,1.39,1.39,1.531,1.6851,1.8385,1.986,2.1327,2.2928,2.2928,2.2928,2.2934,2.327,2.3611,2.4027,2.4367,2.4713,2.5127,2.5127,2.5127,2.5127,2.5127,2.5127,2.5127,2.5127,2.5127,2.5127,2.5127,2.5127,2.5127,2.5127,2.5127,2.5127,2.5127,2.5127,2.5127,2.5127,2.5127,2.5127,2.5127,2.5127,2.5127,2.5127,2.5127,2.545,2.6753,2.8205,2.9574,3.0992,3.2428,3.3418,3.3418,3.3418,3.3418,3.3418,3.3418,3.3418,3.3418,3.3418,3.3418,3.3418,3.3418,3.3418,3.3418,3.3418,3.3418,3.3418,3.3418,3.3418,3.3418,3.3418,3.3418,3.3418,3.3418,3.3418,3.3418,3.3418,3.3418,3.3418,3.3418,3.3418,3.3418,3.3733,3.3922,3.3922,3.461,3.4922,3.4922,3.5232,3.5418,3.5418,3.5418,3.5418,3.5418,3.5418,3.5418,3.5418,1.3928,1.39,1.39,1.39,1.39,1.39,1.39,1.39,1.39,1.39,1.39,1.39,1.39,1.39,1.39,1.39,1.39,1.39,1.39,1.39,1.39,1.39,1.531,1.6851,1.8385,1.986,2.1327,2.2928,2.2928,2.2928,2.2934,2.327,2.3611,2.4027,2.4367,2.4713,2.5127,2.5127,2.5127,2.5127,2.5127,2.5127,2.5127,2.5127,2.5127,2.5127,2.5127,2.5127,2.5127,2.5127,2.5127,2.5127,2.5127,2.5127,2.5127,2.5127,2.5127,2.5127,2.5127,2.5127,2.5127,2.5127,2.5127,2.5187,2.5584,2.7485,2.9313,2.977,3.1726,3.3418,3.3418,3.3418,3.3418,3.3418,3.3418,3.3418,3.3418,3.3418,3.3418,3.3418,3.3418,3.3418,3.3418,3.3418,3.3418,3.3418,3.3418,3.3418,3.3418,3.3418,3.3418,3.3418,3.3418,3.3418,3.3418,3.3418,3.3418,3.3418,3.3418,3.3418,3.3418,3.3733,3.4047,3.4298,3.4735,3.5046,3.5232,3.5356,3.5418,3.5418,3.5418,3.5418,3.5418,3.5418,3.5418,3.5418,1.3937,1.39,1.39,1.39,1.39,1.39,1.39,1.39,1.39,1.39,1.39,1.39,1.39,1.39,1.39,1.39,1.39,1.39,1.39,1.39,1.39,1.39,1.4746,1.5938,1.7479,1.8949,2.0485,2.2022,2.2585,2.2928,2.2934,2.3406,2.3754,2.4027,2.4503,2.4849,2.5127,2.5127,2.5127,2.5127,2.5127,2.5127,2.5127,2.5127,2.5127,2.5127,2.5127,2.5127,2.5127,2.5127,2.5127,2.5127,2.5127,2.5127,2.5127,2.5127,2.5127,2.5127,2.5127,2.5127,2.5127,2.5127,2.5127,2.5127,2.5127,2.7219,2.9182,2.9182,3.1469,3.3418,3.3418,3.3418,3.3418,3.3418,3.3418,3.3418,3.3418,3.3418,3.3418,3.3418,3.3418,3.3418,3.3418,3.3418,3.3418,3.3418,3.3418,3.3418,3.3418,3.3418,3.3418,3.3418,3.3418,3.3418,3.3418,3.3418,3.3418,3.3418,3.3418,3.3481,3.3607,3.3922,3.4298,3.461,3.4922,3.5232,3.5418,3.5418,3.5418,3.5418,3.5418,3.5418,3.5418,3.5418,3.5418,3.5418,1.3965,1.3912,1.39,1.39,1.39,1.39,1.39,1.39,1.39,1.39,1.39,1.39,1.39,1.39,1.39,1.39,1.39,1.39,1.39,1.39,1.39,1.39,1.39,1.4604,1.6084,1.7614,1.9222,2.0837,2.2235,2.2928,2.2928,2.3618,2.4027,2.4027,2.4781,2.5127,2.5127,2.5127,2.5127,2.5127,2.5127,2.5127,2.5127,2.5127,2.5127,2.5127,2.5127,2.5127,2.5127,2.5127,2.5127,2.5127,2.5127,2.5127,2.5127,2.5127,2.5127,2.5127,2.5127,2.5127,2.5127,2.5127,2.5127,2.5127,2.5127,2.7219,2.9182,2.9182,3.1469,3.3418,3.3418,3.3418,3.3418,3.3418,3.3418,3.3418,3.3418,3.3418,3.3418,3.3418,3.3418,3.3418,3.3418,3.3418,3.3418,3.3418,3.3418,3.3418,3.3418,3.3418,3.3418,3.3418,3.3418,3.3418,3.3418,3.3418,3.3418,3.3418,3.3418,3.3607,3.3985,3.4235,3.461,3.4922,3.5232,3.5418,3.5418,3.5418,3.5418,3.5418,3.5418,3.5418,3.5418,3.5418,3.5418,3.5418,1.4152,1.4002,1.39,1.39,1.39,1.39,1.39,1.39,1.39,1.39,1.39,1.39,1.39,1.39,1.39,1.39,1.39,1.39,1.39,1.39,1.39,1.39,1.39,1.4604,1.6084,1.7614,1.971,2.2372,2.2722,2.2928,2.2928,2.3618,2.4027,2.4027,2.4781,2.5127,2.5127,2.5127,2.5127,2.5127,2.5127,2.5127,2.5127,2.5127,2.5127,2.5127,2.5127,2.5127,2.5127,2.5127,2.5127,2.5127,2.5127,2.5127,2.5127,2.5127,2.5127,2.5127,2.5127,2.5127,2.5127,2.5127,2.5127,2.5127,2.5127,2.7219,2.9182,2.9182,3.1469,3.3418,3.3418,3.3418,3.3418,3.3418,3.3418,3.3418,3.3418,3.3418,3.3418,3.3418,3.3418,3.3418,3.3418,3.3418,3.3418,3.3418,3.3418,3.3418,3.3418,3.3418,3.3418,3.3418,3.3418,3.3418,3.3418,3.3418,3.3544,3.3796,3.3544,3.3733,3.4298,3.436,3.461,3.4922,3.5232,3.5418,3.5418,3.5418,3.5418,3.5418,3.5418,3.5418,3.5418,3.5418,3.5418,3.5418,1.4213,1.403,1.39,1.39,1.39,1.39,1.39,1.39,1.39,1.39,1.39,1.39,1.39,1.39,1.39,1.39,1.39,1.39,1.39,1.39,1.39,1.39,1.39,1.4955,1.7127,1.7965,1.9501,2.1816,2.251,2.2928,2.2928,2.3618,2.4027,2.4027,2.4781,2.5127,2.5127,2.5127,2.5127,2.5127,2.5127,2.5127,2.5127,2.5127,2.5127,2.5127,2.5127,2.5127,2.5127,2.5127,2.5127,2.5127,2.5127,2.5127,2.5127,2.5127,2.5127,2.5127,2.5127,2.5127,2.5127,2.5127,2.5127,2.5255,2.5913,2.7676,2.9378,3.0086,3.1918,3.3418,3.3418,3.3418,3.3418,3.3418,3.3418,3.3418,3.3418,3.3418,3.3418,3.3418,3.3418,3.3418,3.3418,3.3418,3.3418,3.3418,3.3418,3.3418,3.3418,3.3418,3.3418,3.3418,3.3418,3.3418,3.3418,3.3418,3.367,3.411,3.3796,3.3985,3.461,3.461,3.4797,3.517,3.5294,3.5418,3.5418,3.5418,3.5418,3.5418,3.5418,3.5418,3.5418,3.5418,3.5418,3.5418,1.4213,1.403,1.39,1.39,1.39,1.39,1.39,1.39,1.39,1.39,1.39,1.39,1.39,1.39,1.39,1.39,1.39,1.39,1.39,1.39,1.39,1.39,1.39,1.5305,1.8309,1.8379,1.9222,2.0975,2.2304,2.2928,2.2928,2.3618,2.4027,2.4027,2.4781,2.5127,2.5127,2.5127,2.5127,2.5127,2.5127,2.5127,2.5127,2.5127,2.5127,2.5127,2.5127,2.5127,2.5127,2.5127,2.5127,2.5127,2.5127,2.5127,2.5127,2.5127,2.5127,2.5127,2.5127,2.5127,2.5127,2.5127,2.5127,2.545,2.682,2.8196,2.9509,3.0734,3.2237,3.3418,3.3418,3.3418,3.3418,3.3418,3.3418,3.3418,3.3418,3.3418,3.3418,3.3418,3.3418,3.3418,3.3418,3.3418,3.3418,3.3418,3.3418,3.3418,3.3418,3.3418,3.3418,3.3418,3.3418,3.3418,3.3481,3.3418,3.3796,3.4485,3.4173,3.436,3.4984,3.4922,3.5108,3.5418,3.5418,3.5418,3.5418,3.5418,3.5418,3.5418,3.5418,3.5418,3.5418,3.5418,3.5418,3.5418,1.4213,1.403,1.39,1.39,1.39,1.39,1.39,1.39,1.39,1.39,1.39,1.39,1.39,1.39,1.39,1.39,1.39,1.39,1.39,1.39,1.39,1.39,1.39,1.5305,1.8309,1.8379,1.9779,2.2578,2.2791,2.2928,2.2928,2.3618,2.4027,2.4027,2.4781,2.5127,2.5127,2.5127,2.5127,2.5127,2.5127,2.5127,2.5127,2.5127,2.5127,2.5127,2.5127,2.5127,2.5127,2.5127,2.5127,2.5127,2.5127,2.5127,2.5127,2.5127,2.5127,2.5127,2.5127,2.5127,2.5127,2.5127,2.5127,2.545,2.682,2.8196,2.9248,2.9444,3.1588,3.3418,3.3418,3.3418,3.3418,3.3418,3.3418,3.3418,3.3418,3.3418,3.3418,3.3418,3.3418,3.3418,3.3418,3.3418,3.3418,3.3418,3.3418,3.3418,3.3418,3.3418,3.3418,3.3418,3.3418,3.3544,3.3859,3.3544,3.3859,3.4859,3.4485,3.4673,3.5294,3.5046,3.5108,3.5418,3.5418,3.5418,3.5418,3.5418,3.5418,3.5418,3.5418,3.5418,3.5418,3.5418,3.5418,3.5418,1.4213,1.403,1.39,1.39,1.39,1.39,1.39,1.39,1.39,1.39,1.39,1.39,1.39,1.39,1.39,1.39,1.39,1.39,1.39,1.39,1.39,1.39,1.39,1.5305,1.8309,1.8379,1.9849,2.2928,2.2928,2.2928,2.2928,2.3618,2.4027,2.4027,2.4781,2.5127,2.5127,2.5127,2.5127,2.5127,2.5127,2.5127,2.5127,2.5127,2.5127,2.5127,2.5127,2.5127,2.5127,2.5127,2.5127,2.5127,2.5127,2.5127,2.5127,2.5127,2.5127,2.5127,2.5127,2.5127,2.5127,2.5127,2.5127,2.5255,2.5846,2.7676,2.9444,3.0216,3.1982,3.3418,3.3418,3.3418,3.3418,3.3418,3.3418,3.3418,3.3418,3.3418,3.3418,3.3418,3.3418,3.3418,3.3418,3.3418,3.3418,3.3418,3.3418,3.3418,3.3418,3.3418,3.3418,3.3418,3.3418,3.3544,3.3922,3.3733,3.411,3.4922,3.4735,3.4922,3.5418,3.5232,3.5232,3.5418,3.5418,3.5418,3.5418,3.5418,3.5418,3.5418,3.5418,3.5418,3.5418,3.5418,3.5418,3.5418]}]]